<?xml version="1.0" encoding="UTF-8" standalone="no" ?>
<gpx xmlns="http://www.topografix.com/GPX/1/1" xmlns:xsi="http://www.w3.org/2001/XMLSchema-instance" xsi:schemaLocation="http://www.topografix.com/GPX/1/1 http://www.topografix.com/GPX/1/1/gpx.xsd" version="1.1" creator="VisuGPX - https://www.visugpx.com">
  <metadata>
    <name>Sorques 10/02/2022</name>
    <desc><![CDATA[Boucle en forêt au départ de Sorques avec de jolies points de vue.]]></desc>
  </metadata>
  <trk>
    <name><![CDATA[Sorques 10/02/2022]]></name>
    <trkseg>
      <trkpt lat="48.34487" lon="2.77604">
        <ele>52.400001525879</ele>
        <time>2022-02-10T12:52:54Z</time>
      </trkpt>
      <trkpt lat="48.34489" lon="2.77608">
        <ele>52.799999237061</ele>
        <time>2022-02-10T12:52:59Z</time>
      </trkpt>
      <trkpt lat="48.3449" lon="2.77611">
        <ele>52.799999237061</ele>
        <time>2022-02-10T12:53:04Z</time>
      </trkpt>
      <trkpt lat="48.34491" lon="2.77614">
        <ele>52.599998474121</ele>
        <time>2022-02-10T12:53:09Z</time>
      </trkpt>
      <trkpt lat="48.34495" lon="2.7762">
        <ele>52.799999237061</ele>
        <time>2022-02-10T12:53:14Z</time>
      </trkpt>
      <trkpt lat="48.34498" lon="2.77623">
        <ele>52.799999237061</ele>
        <time>2022-02-10T12:53:19Z</time>
      </trkpt>
      <trkpt lat="48.34503" lon="2.77625">
        <ele>52.599998474121</ele>
        <time>2022-02-10T12:53:24Z</time>
      </trkpt>
      <trkpt lat="48.34509" lon="2.77631">
        <ele>53</ele>
        <time>2022-02-10T12:53:29Z</time>
      </trkpt>
      <trkpt lat="48.34514" lon="2.77635">
        <ele>53</ele>
        <time>2022-02-10T12:53:34Z</time>
      </trkpt>
      <trkpt lat="48.34518" lon="2.7764">
        <ele>53</ele>
        <time>2022-02-10T12:53:39Z</time>
      </trkpt>
      <trkpt lat="48.34519" lon="2.77645">
        <ele>53</ele>
        <time>2022-02-10T12:53:44Z</time>
      </trkpt>
      <trkpt lat="48.34521" lon="2.77649">
        <ele>53</ele>
        <time>2022-02-10T12:53:49Z</time>
      </trkpt>
      <trkpt lat="48.34523" lon="2.77654">
        <ele>53.200000762939</ele>
        <time>2022-02-10T12:53:54Z</time>
      </trkpt>
      <trkpt lat="48.34527" lon="2.77661">
        <ele>53</ele>
        <time>2022-02-10T12:53:59Z</time>
      </trkpt>
      <trkpt lat="48.34531" lon="2.77667">
        <ele>53</ele>
        <time>2022-02-10T12:54:04Z</time>
      </trkpt>
      <trkpt lat="48.34534" lon="2.77674">
        <ele>53</ele>
        <time>2022-02-10T12:54:09Z</time>
      </trkpt>
      <trkpt lat="48.34538" lon="2.77679">
        <ele>53</ele>
        <time>2022-02-10T12:54:14Z</time>
      </trkpt>
      <trkpt lat="48.34541" lon="2.77684">
        <ele>53.200000762939</ele>
        <time>2022-02-10T12:54:19Z</time>
      </trkpt>
      <trkpt lat="48.34544" lon="2.77688">
        <ele>53.400001525879</ele>
        <time>2022-02-10T12:54:24Z</time>
      </trkpt>
      <trkpt lat="48.34548" lon="2.77693">
        <ele>53.599998474121</ele>
        <time>2022-02-10T12:54:29Z</time>
      </trkpt>
      <trkpt lat="48.3455" lon="2.77699">
        <ele>53.799999237061</ele>
        <time>2022-02-10T12:54:34Z</time>
      </trkpt>
      <trkpt lat="48.3455" lon="2.777">
        <ele>54</ele>
        <time>2022-02-10T12:54:39Z</time>
      </trkpt>
      <trkpt lat="48.34552" lon="2.77699">
        <ele>54</ele>
        <time>2022-02-10T12:54:44Z</time>
      </trkpt>
      <trkpt lat="48.34558" lon="2.77699">
        <ele>54.599998474121</ele>
        <time>2022-02-10T12:54:49Z</time>
      </trkpt>
      <trkpt lat="48.3456" lon="2.77697">
        <ele>54.799999237061</ele>
        <time>2022-02-10T12:54:54Z</time>
      </trkpt>
      <trkpt lat="48.34561" lon="2.77694">
        <ele>55</ele>
        <time>2022-02-10T12:54:59Z</time>
      </trkpt>
      <trkpt lat="48.34564" lon="2.77693">
        <ele>55.400001525879</ele>
        <time>2022-02-10T12:55:04Z</time>
      </trkpt>
      <trkpt lat="48.34568" lon="2.77688">
        <ele>55.799999237061</ele>
        <time>2022-02-10T12:55:09Z</time>
      </trkpt>
      <trkpt lat="48.34572" lon="2.77687">
        <ele>56</ele>
        <time>2022-02-10T12:55:14Z</time>
      </trkpt>
      <trkpt lat="48.34576" lon="2.77686">
        <ele>56</ele>
        <time>2022-02-10T12:55:19Z</time>
      </trkpt>
      <trkpt lat="48.34578" lon="2.77687">
        <ele>56.200000762939</ele>
        <time>2022-02-10T12:55:24Z</time>
      </trkpt>
      <trkpt lat="48.3458" lon="2.77687">
        <ele>56.400001525879</ele>
        <time>2022-02-10T12:55:29Z</time>
      </trkpt>
      <trkpt lat="48.34583" lon="2.77689">
        <ele>56.200000762939</ele>
        <time>2022-02-10T12:55:34Z</time>
      </trkpt>
      <trkpt lat="48.34585" lon="2.77689">
        <ele>56</ele>
        <time>2022-02-10T12:55:39Z</time>
      </trkpt>
      <trkpt lat="48.34589" lon="2.77687">
        <ele>56.400001525879</ele>
        <time>2022-02-10T12:55:44Z</time>
      </trkpt>
      <trkpt lat="48.34596" lon="2.77686">
        <ele>56.799999237061</ele>
        <time>2022-02-10T12:55:49Z</time>
      </trkpt>
      <trkpt lat="48.34603" lon="2.77683">
        <ele>57</ele>
        <time>2022-02-10T12:55:54Z</time>
      </trkpt>
      <trkpt lat="48.34608" lon="2.77678">
        <ele>57.200000762939</ele>
        <time>2022-02-10T12:55:59Z</time>
      </trkpt>
      <trkpt lat="48.34612" lon="2.77675">
        <ele>57.599998474121</ele>
        <time>2022-02-10T12:56:04Z</time>
      </trkpt>
      <trkpt lat="48.34614" lon="2.77668">
        <ele>58</ele>
        <time>2022-02-10T12:56:09Z</time>
      </trkpt>
      <trkpt lat="48.34617" lon="2.77663">
        <ele>58.200000762939</ele>
        <time>2022-02-10T12:56:14Z</time>
      </trkpt>
      <trkpt lat="48.34621" lon="2.77657">
        <ele>58.400001525879</ele>
        <time>2022-02-10T12:56:19Z</time>
      </trkpt>
      <trkpt lat="48.34623" lon="2.77652">
        <ele>58.400001525879</ele>
        <time>2022-02-10T12:56:24Z</time>
      </trkpt>
      <trkpt lat="48.34625" lon="2.77648">
        <ele>59</ele>
        <time>2022-02-10T12:56:29Z</time>
      </trkpt>
      <trkpt lat="48.34627" lon="2.77646">
        <ele>59.599998474121</ele>
        <time>2022-02-10T12:56:34Z</time>
      </trkpt>
      <trkpt lat="48.34629" lon="2.77641">
        <ele>59.400001525879</ele>
        <time>2022-02-10T12:56:39Z</time>
      </trkpt>
      <trkpt lat="48.34631" lon="2.77635">
        <ele>59.599998474121</ele>
        <time>2022-02-10T12:56:44Z</time>
      </trkpt>
      <trkpt lat="48.34633" lon="2.77629">
        <ele>60</ele>
        <time>2022-02-10T12:56:49Z</time>
      </trkpt>
      <trkpt lat="48.34634" lon="2.77625">
        <ele>60.400001525879</ele>
        <time>2022-02-10T12:56:54Z</time>
      </trkpt>
      <trkpt lat="48.34635" lon="2.77622">
        <ele>60.799999237061</ele>
        <time>2022-02-10T12:56:59Z</time>
      </trkpt>
      <trkpt lat="48.34638" lon="2.77619">
        <ele>61</ele>
        <time>2022-02-10T12:57:04Z</time>
      </trkpt>
      <trkpt lat="48.34642" lon="2.77618">
        <ele>61.200000762939</ele>
        <time>2022-02-10T12:57:09Z</time>
      </trkpt>
      <trkpt lat="48.34649" lon="2.77614">
        <ele>61.599998474121</ele>
        <time>2022-02-10T12:57:14Z</time>
      </trkpt>
      <trkpt lat="48.34652" lon="2.7761">
        <ele>62.599998474121</ele>
        <time>2022-02-10T12:57:19Z</time>
      </trkpt>
      <trkpt lat="48.34657" lon="2.77603">
        <ele>63</ele>
        <time>2022-02-10T12:57:24Z</time>
      </trkpt>
      <trkpt lat="48.34661" lon="2.77598">
        <ele>63.400001525879</ele>
        <time>2022-02-10T12:57:29Z</time>
      </trkpt>
      <trkpt lat="48.34661" lon="2.77597">
        <ele>63.799999237061</ele>
        <time>2022-02-10T12:57:34Z</time>
      </trkpt>
      <trkpt lat="48.34664" lon="2.77594">
        <ele>64.199996948242</ele>
        <time>2022-02-10T12:57:39Z</time>
      </trkpt>
      <trkpt lat="48.34667" lon="2.77589">
        <ele>64.599998474121</ele>
        <time>2022-02-10T12:57:44Z</time>
      </trkpt>
      <trkpt lat="48.34669" lon="2.77584">
        <ele>65</ele>
        <time>2022-02-10T12:57:49Z</time>
      </trkpt>
      <trkpt lat="48.34671" lon="2.77579">
        <ele>65.800003051758</ele>
        <time>2022-02-10T12:57:54Z</time>
      </trkpt>
      <trkpt lat="48.34676" lon="2.77575">
        <ele>66</ele>
        <time>2022-02-10T12:57:59Z</time>
      </trkpt>
      <trkpt lat="48.3468" lon="2.77571">
        <ele>65.599998474121</ele>
        <time>2022-02-10T12:58:04Z</time>
      </trkpt>
      <trkpt lat="48.34685" lon="2.77566">
        <ele>66.199996948242</ele>
        <time>2022-02-10T12:58:09Z</time>
      </trkpt>
      <trkpt lat="48.3469" lon="2.77563">
        <ele>66.400001525879</ele>
        <time>2022-02-10T12:58:14Z</time>
      </trkpt>
      <trkpt lat="48.34692" lon="2.77559">
        <ele>66.599998474121</ele>
        <time>2022-02-10T12:58:19Z</time>
      </trkpt>
      <trkpt lat="48.34693" lon="2.77554">
        <ele>66.800003051758</ele>
        <time>2022-02-10T12:58:24Z</time>
      </trkpt>
      <trkpt lat="48.34695" lon="2.7755">
        <ele>67.199996948242</ele>
        <time>2022-02-10T12:58:29Z</time>
      </trkpt>
      <trkpt lat="48.34697" lon="2.77547">
        <ele>67.199996948242</ele>
        <time>2022-02-10T12:58:34Z</time>
      </trkpt>
      <trkpt lat="48.34701" lon="2.77543">
        <ele>67.199996948242</ele>
        <time>2022-02-10T12:58:39Z</time>
      </trkpt>
      <trkpt lat="48.34703" lon="2.77538">
        <ele>67.400001525879</ele>
        <time>2022-02-10T12:58:44Z</time>
      </trkpt>
      <trkpt lat="48.34705" lon="2.77534">
        <ele>68</ele>
        <time>2022-02-10T12:58:49Z</time>
      </trkpt>
      <trkpt lat="48.34708" lon="2.77529">
        <ele>68</ele>
        <time>2022-02-10T12:58:54Z</time>
      </trkpt>
      <trkpt lat="48.34712" lon="2.77525">
        <ele>68.199996948242</ele>
        <time>2022-02-10T12:58:59Z</time>
      </trkpt>
      <trkpt lat="48.34716" lon="2.77521">
        <ele>68.599998474121</ele>
        <time>2022-02-10T12:59:04Z</time>
      </trkpt>
      <trkpt lat="48.34719" lon="2.77515">
        <ele>69</ele>
        <time>2022-02-10T12:59:09Z</time>
      </trkpt>
      <trkpt lat="48.34722" lon="2.77509">
        <ele>69</ele>
        <time>2022-02-10T12:59:14Z</time>
      </trkpt>
      <trkpt lat="48.34722" lon="2.77502">
        <ele>68.800003051758</ele>
        <time>2022-02-10T12:59:19Z</time>
      </trkpt>
      <trkpt lat="48.34719" lon="2.77494">
        <ele>68.800003051758</ele>
        <time>2022-02-10T12:59:24Z</time>
      </trkpt>
      <trkpt lat="48.34715" lon="2.77492">
        <ele>69</ele>
        <time>2022-02-10T12:59:29Z</time>
      </trkpt>
      <trkpt lat="48.34716" lon="2.77486">
        <ele>69</ele>
        <time>2022-02-10T12:59:34Z</time>
      </trkpt>
      <trkpt lat="48.34717" lon="2.77482">
        <ele>69</ele>
        <time>2022-02-10T12:59:39Z</time>
      </trkpt>
      <trkpt lat="48.34717" lon="2.77478">
        <ele>69.199996948242</ele>
        <time>2022-02-10T12:59:44Z</time>
      </trkpt>
      <trkpt lat="48.34716" lon="2.77475">
        <ele>69.400001525879</ele>
        <time>2022-02-10T12:59:49Z</time>
      </trkpt>
      <trkpt lat="48.34716" lon="2.77475">
        <ele>69.800003051758</ele>
        <time>2022-02-10T12:59:54Z</time>
      </trkpt>
      <trkpt lat="48.34736" lon="2.77475">
        <ele>69.800003051758</ele>
        <time>2022-02-10T12:59:59Z</time>
      </trkpt>
      <trkpt lat="48.34738" lon="2.77463">
        <ele>70.199996948242</ele>
        <time>2022-02-10T13:00:04Z</time>
      </trkpt>
      <trkpt lat="48.34734" lon="2.7745">
        <ele>70.800003051758</ele>
        <time>2022-02-10T13:00:09Z</time>
      </trkpt>
      <trkpt lat="48.34728" lon="2.77442">
        <ele>71</ele>
        <time>2022-02-10T13:00:14Z</time>
      </trkpt>
      <trkpt lat="48.34725" lon="2.77435">
        <ele>71</ele>
        <time>2022-02-10T13:00:19Z</time>
      </trkpt>
      <trkpt lat="48.3472" lon="2.77429">
        <ele>71.599998474121</ele>
        <time>2022-02-10T13:00:24Z</time>
      </trkpt>
      <trkpt lat="48.34715" lon="2.77422">
        <ele>72.400001525879</ele>
        <time>2022-02-10T13:00:29Z</time>
      </trkpt>
      <trkpt lat="48.34712" lon="2.77415">
        <ele>73</ele>
        <time>2022-02-10T13:00:34Z</time>
      </trkpt>
      <trkpt lat="48.34711" lon="2.77411">
        <ele>73.599998474121</ele>
        <time>2022-02-10T13:00:39Z</time>
      </trkpt>
      <trkpt lat="48.3471" lon="2.77405">
        <ele>73.599998474121</ele>
        <time>2022-02-10T13:00:44Z</time>
      </trkpt>
      <trkpt lat="48.34711" lon="2.77403">
        <ele>73.800003051758</ele>
        <time>2022-02-10T13:00:49Z</time>
      </trkpt>
      <trkpt lat="48.34707" lon="2.77396">
        <ele>73.800003051758</ele>
        <time>2022-02-10T13:00:54Z</time>
      </trkpt>
      <trkpt lat="48.34702" lon="2.7739">
        <ele>74</ele>
        <time>2022-02-10T13:00:59Z</time>
      </trkpt>
      <trkpt lat="48.34699" lon="2.77382">
        <ele>74</ele>
        <time>2022-02-10T13:01:04Z</time>
      </trkpt>
      <trkpt lat="48.34694" lon="2.77375">
        <ele>74.199996948242</ele>
        <time>2022-02-10T13:01:09Z</time>
      </trkpt>
      <trkpt lat="48.34691" lon="2.77367">
        <ele>74.199996948242</ele>
        <time>2022-02-10T13:01:14Z</time>
      </trkpt>
      <trkpt lat="48.34687" lon="2.7736">
        <ele>74.599998474121</ele>
        <time>2022-02-10T13:01:19Z</time>
      </trkpt>
      <trkpt lat="48.34686" lon="2.77352">
        <ele>74.599998474121</ele>
        <time>2022-02-10T13:01:24Z</time>
      </trkpt>
      <trkpt lat="48.34685" lon="2.77346">
        <ele>74.599998474121</ele>
        <time>2022-02-10T13:01:29Z</time>
      </trkpt>
      <trkpt lat="48.34685" lon="2.77339">
        <ele>74.400001525879</ele>
        <time>2022-02-10T13:01:34Z</time>
      </trkpt>
      <trkpt lat="48.34685" lon="2.77333">
        <ele>74.599998474121</ele>
        <time>2022-02-10T13:01:39Z</time>
      </trkpt>
      <trkpt lat="48.34684" lon="2.77327">
        <ele>74.599998474121</ele>
        <time>2022-02-10T13:01:44Z</time>
      </trkpt>
      <trkpt lat="48.34681" lon="2.77317">
        <ele>74.800003051758</ele>
        <time>2022-02-10T13:01:49Z</time>
      </trkpt>
      <trkpt lat="48.34677" lon="2.7731">
        <ele>74.599998474121</ele>
        <time>2022-02-10T13:01:54Z</time>
      </trkpt>
      <trkpt lat="48.34672" lon="2.77303">
        <ele>74.599998474121</ele>
        <time>2022-02-10T13:01:59Z</time>
      </trkpt>
      <trkpt lat="48.34668" lon="2.77297">
        <ele>74.599998474121</ele>
        <time>2022-02-10T13:02:04Z</time>
      </trkpt>
      <trkpt lat="48.34663" lon="2.77291">
        <ele>74.599998474121</ele>
        <time>2022-02-10T13:02:09Z</time>
      </trkpt>
      <trkpt lat="48.34658" lon="2.77285">
        <ele>74.599998474121</ele>
        <time>2022-02-10T13:02:14Z</time>
      </trkpt>
      <trkpt lat="48.34652" lon="2.7728">
        <ele>74.400001525879</ele>
        <time>2022-02-10T13:02:19Z</time>
      </trkpt>
      <trkpt lat="48.34647" lon="2.77273">
        <ele>74.400001525879</ele>
        <time>2022-02-10T13:02:24Z</time>
      </trkpt>
      <trkpt lat="48.34643" lon="2.77267">
        <ele>74.199996948242</ele>
        <time>2022-02-10T13:02:29Z</time>
      </trkpt>
      <trkpt lat="48.3464" lon="2.77259">
        <ele>74.199996948242</ele>
        <time>2022-02-10T13:02:34Z</time>
      </trkpt>
      <trkpt lat="48.34638" lon="2.77253">
        <ele>74.400001525879</ele>
        <time>2022-02-10T13:02:39Z</time>
      </trkpt>
      <trkpt lat="48.34635" lon="2.77244">
        <ele>74.199996948242</ele>
        <time>2022-02-10T13:02:44Z</time>
      </trkpt>
      <trkpt lat="48.34631" lon="2.77237">
        <ele>74</ele>
        <time>2022-02-10T13:02:49Z</time>
      </trkpt>
      <trkpt lat="48.34627" lon="2.7723">
        <ele>73.599998474121</ele>
        <time>2022-02-10T13:02:54Z</time>
      </trkpt>
      <trkpt lat="48.34623" lon="2.77221">
        <ele>73.400001525879</ele>
        <time>2022-02-10T13:02:59Z</time>
      </trkpt>
      <trkpt lat="48.3462" lon="2.77213">
        <ele>73.199996948242</ele>
        <time>2022-02-10T13:03:04Z</time>
      </trkpt>
      <trkpt lat="48.34616" lon="2.77204">
        <ele>73</ele>
        <time>2022-02-10T13:03:09Z</time>
      </trkpt>
      <trkpt lat="48.34612" lon="2.77196">
        <ele>72.599998474121</ele>
        <time>2022-02-10T13:03:14Z</time>
      </trkpt>
      <trkpt lat="48.34607" lon="2.7719">
        <ele>72.800003051758</ele>
        <time>2022-02-10T13:03:19Z</time>
      </trkpt>
      <trkpt lat="48.34604" lon="2.77182">
        <ele>72.800003051758</ele>
        <time>2022-02-10T13:03:24Z</time>
      </trkpt>
      <trkpt lat="48.34601" lon="2.77175">
        <ele>72.800003051758</ele>
        <time>2022-02-10T13:03:29Z</time>
      </trkpt>
      <trkpt lat="48.34599" lon="2.77166">
        <ele>72.599998474121</ele>
        <time>2022-02-10T13:03:34Z</time>
      </trkpt>
      <trkpt lat="48.34596" lon="2.77159">
        <ele>72.599998474121</ele>
        <time>2022-02-10T13:03:39Z</time>
      </trkpt>
      <trkpt lat="48.34595" lon="2.77154">
        <ele>72.599998474121</ele>
        <time>2022-02-10T13:03:44Z</time>
      </trkpt>
      <trkpt lat="48.34593" lon="2.77147">
        <ele>72.400001525879</ele>
        <time>2022-02-10T13:03:49Z</time>
      </trkpt>
      <trkpt lat="48.34592" lon="2.77143">
        <ele>73</ele>
        <time>2022-02-10T13:03:54Z</time>
      </trkpt>
      <trkpt lat="48.34589" lon="2.77138">
        <ele>72.800003051758</ele>
        <time>2022-02-10T13:03:59Z</time>
      </trkpt>
      <trkpt lat="48.3458" lon="2.77134">
        <ele>72.400001525879</ele>
        <time>2022-02-10T13:04:04Z</time>
      </trkpt>
      <trkpt lat="48.34578" lon="2.77131">
        <ele>72.400001525879</ele>
        <time>2022-02-10T13:04:09Z</time>
      </trkpt>
      <trkpt lat="48.34577" lon="2.77129">
        <ele>72.199996948242</ele>
        <time>2022-02-10T13:04:14Z</time>
      </trkpt>
      <trkpt lat="48.34574" lon="2.77126">
        <ele>72.199996948242</ele>
        <time>2022-02-10T13:04:19Z</time>
      </trkpt>
      <trkpt lat="48.34571" lon="2.77122">
        <ele>71.800003051758</ele>
        <time>2022-02-10T13:04:24Z</time>
      </trkpt>
      <trkpt lat="48.34567" lon="2.77117">
        <ele>71.800003051758</ele>
        <time>2022-02-10T13:04:29Z</time>
      </trkpt>
      <trkpt lat="48.34564" lon="2.7711">
        <ele>71.800003051758</ele>
        <time>2022-02-10T13:04:34Z</time>
      </trkpt>
      <trkpt lat="48.34561" lon="2.77104">
        <ele>72.199996948242</ele>
        <time>2022-02-10T13:04:39Z</time>
      </trkpt>
      <trkpt lat="48.34558" lon="2.77098">
        <ele>72.199996948242</ele>
        <time>2022-02-10T13:04:44Z</time>
      </trkpt>
      <trkpt lat="48.34556" lon="2.77092">
        <ele>72.199996948242</ele>
        <time>2022-02-10T13:04:49Z</time>
      </trkpt>
      <trkpt lat="48.34556" lon="2.77087">
        <ele>72.199996948242</ele>
        <time>2022-02-10T13:04:54Z</time>
      </trkpt>
      <trkpt lat="48.34554" lon="2.77083">
        <ele>72.199996948242</ele>
        <time>2022-02-10T13:04:59Z</time>
      </trkpt>
      <trkpt lat="48.3455" lon="2.77076">
        <ele>72.199996948242</ele>
        <time>2022-02-10T13:05:04Z</time>
      </trkpt>
      <trkpt lat="48.34545" lon="2.77071">
        <ele>72.400001525879</ele>
        <time>2022-02-10T13:05:09Z</time>
      </trkpt>
      <trkpt lat="48.34543" lon="2.77065">
        <ele>72.400001525879</ele>
        <time>2022-02-10T13:05:14Z</time>
      </trkpt>
      <trkpt lat="48.34539" lon="2.77056">
        <ele>72.400001525879</ele>
        <time>2022-02-10T13:05:19Z</time>
      </trkpt>
      <trkpt lat="48.34535" lon="2.77049">
        <ele>72.400001525879</ele>
        <time>2022-02-10T13:05:24Z</time>
      </trkpt>
      <trkpt lat="48.34529" lon="2.77043">
        <ele>72.199996948242</ele>
        <time>2022-02-10T13:05:29Z</time>
      </trkpt>
      <trkpt lat="48.34525" lon="2.77037">
        <ele>72</ele>
        <time>2022-02-10T13:05:34Z</time>
      </trkpt>
      <trkpt lat="48.34525" lon="2.77033">
        <ele>71.800003051758</ele>
        <time>2022-02-10T13:05:39Z</time>
      </trkpt>
      <trkpt lat="48.34525" lon="2.7703">
        <ele>72.199996948242</ele>
        <time>2022-02-10T13:05:44Z</time>
      </trkpt>
      <trkpt lat="48.34525" lon="2.77027">
        <ele>72.199996948242</ele>
        <time>2022-02-10T13:05:49Z</time>
      </trkpt>
      <trkpt lat="48.34523" lon="2.77021">
        <ele>72.199996948242</ele>
        <time>2022-02-10T13:05:54Z</time>
      </trkpt>
      <trkpt lat="48.34521" lon="2.77017">
        <ele>72.400001525879</ele>
        <time>2022-02-10T13:05:59Z</time>
      </trkpt>
      <trkpt lat="48.34519" lon="2.77011">
        <ele>72.400001525879</ele>
        <time>2022-02-10T13:06:04Z</time>
      </trkpt>
      <trkpt lat="48.34517" lon="2.77006">
        <ele>72.400001525879</ele>
        <time>2022-02-10T13:06:09Z</time>
      </trkpt>
      <trkpt lat="48.34516" lon="2.77">
        <ele>72.199996948242</ele>
        <time>2022-02-10T13:06:14Z</time>
      </trkpt>
      <trkpt lat="48.34511" lon="2.76991">
        <ele>72.400001525879</ele>
        <time>2022-02-10T13:06:19Z</time>
      </trkpt>
      <trkpt lat="48.34504" lon="2.76986">
        <ele>72.199996948242</ele>
        <time>2022-02-10T13:06:24Z</time>
      </trkpt>
      <trkpt lat="48.345" lon="2.76977">
        <ele>72.199996948242</ele>
        <time>2022-02-10T13:06:29Z</time>
      </trkpt>
      <trkpt lat="48.34495" lon="2.76969">
        <ele>72.199996948242</ele>
        <time>2022-02-10T13:06:34Z</time>
      </trkpt>
      <trkpt lat="48.3449" lon="2.76964">
        <ele>72.199996948242</ele>
        <time>2022-02-10T13:06:39Z</time>
      </trkpt>
      <trkpt lat="48.34484" lon="2.7696">
        <ele>72.599998474121</ele>
        <time>2022-02-10T13:06:44Z</time>
      </trkpt>
      <trkpt lat="48.34479" lon="2.76956">
        <ele>72.599998474121</ele>
        <time>2022-02-10T13:06:49Z</time>
      </trkpt>
      <trkpt lat="48.34474" lon="2.76952">
        <ele>72.599998474121</ele>
        <time>2022-02-10T13:06:54Z</time>
      </trkpt>
      <trkpt lat="48.3447" lon="2.76946">
        <ele>72.599998474121</ele>
        <time>2022-02-10T13:06:59Z</time>
      </trkpt>
      <trkpt lat="48.34466" lon="2.7694">
        <ele>72.800003051758</ele>
        <time>2022-02-10T13:07:04Z</time>
      </trkpt>
      <trkpt lat="48.34461" lon="2.76933">
        <ele>72.599998474121</ele>
        <time>2022-02-10T13:07:09Z</time>
      </trkpt>
      <trkpt lat="48.34457" lon="2.76924">
        <ele>72.800003051758</ele>
        <time>2022-02-10T13:07:14Z</time>
      </trkpt>
      <trkpt lat="48.34454" lon="2.76919">
        <ele>72.599998474121</ele>
        <time>2022-02-10T13:07:19Z</time>
      </trkpt>
      <trkpt lat="48.34451" lon="2.76913">
        <ele>72.599998474121</ele>
        <time>2022-02-10T13:07:24Z</time>
      </trkpt>
      <trkpt lat="48.34447" lon="2.76905">
        <ele>72.599998474121</ele>
        <time>2022-02-10T13:07:29Z</time>
      </trkpt>
      <trkpt lat="48.34444" lon="2.76899">
        <ele>72.800003051758</ele>
        <time>2022-02-10T13:07:34Z</time>
      </trkpt>
      <trkpt lat="48.34441" lon="2.76894">
        <ele>72.800003051758</ele>
        <time>2022-02-10T13:07:39Z</time>
      </trkpt>
      <trkpt lat="48.34436" lon="2.76887">
        <ele>72.800003051758</ele>
        <time>2022-02-10T13:07:44Z</time>
      </trkpt>
      <trkpt lat="48.3443" lon="2.76881">
        <ele>73</ele>
        <time>2022-02-10T13:07:49Z</time>
      </trkpt>
      <trkpt lat="48.34427" lon="2.76876">
        <ele>73</ele>
        <time>2022-02-10T13:07:54Z</time>
      </trkpt>
      <trkpt lat="48.34423" lon="2.76871">
        <ele>72.800003051758</ele>
        <time>2022-02-10T13:07:59Z</time>
      </trkpt>
      <trkpt lat="48.34419" lon="2.76864">
        <ele>72.599998474121</ele>
        <time>2022-02-10T13:08:04Z</time>
      </trkpt>
      <trkpt lat="48.34414" lon="2.76857">
        <ele>72.800003051758</ele>
        <time>2022-02-10T13:08:09Z</time>
      </trkpt>
      <trkpt lat="48.3441" lon="2.76852">
        <ele>72.599998474121</ele>
        <time>2022-02-10T13:08:14Z</time>
      </trkpt>
      <trkpt lat="48.34406" lon="2.76846">
        <ele>72.800003051758</ele>
        <time>2022-02-10T13:08:19Z</time>
      </trkpt>
      <trkpt lat="48.34402" lon="2.76839">
        <ele>72.800003051758</ele>
        <time>2022-02-10T13:08:24Z</time>
      </trkpt>
      <trkpt lat="48.34398" lon="2.76832">
        <ele>72.599998474121</ele>
        <time>2022-02-10T13:08:29Z</time>
      </trkpt>
      <trkpt lat="48.34394" lon="2.76826">
        <ele>72.800003051758</ele>
        <time>2022-02-10T13:08:34Z</time>
      </trkpt>
      <trkpt lat="48.3439" lon="2.7682">
        <ele>72.800003051758</ele>
        <time>2022-02-10T13:08:39Z</time>
      </trkpt>
      <trkpt lat="48.34386" lon="2.76815">
        <ele>72.800003051758</ele>
        <time>2022-02-10T13:08:44Z</time>
      </trkpt>
      <trkpt lat="48.34383" lon="2.76808">
        <ele>72.800003051758</ele>
        <time>2022-02-10T13:08:49Z</time>
      </trkpt>
      <trkpt lat="48.34379" lon="2.76803">
        <ele>73</ele>
        <time>2022-02-10T13:08:54Z</time>
      </trkpt>
      <trkpt lat="48.34375" lon="2.76798">
        <ele>73</ele>
        <time>2022-02-10T13:08:59Z</time>
      </trkpt>
      <trkpt lat="48.34369" lon="2.76793">
        <ele>73</ele>
        <time>2022-02-10T13:09:04Z</time>
      </trkpt>
      <trkpt lat="48.34363" lon="2.76787">
        <ele>73</ele>
        <time>2022-02-10T13:09:09Z</time>
      </trkpt>
      <trkpt lat="48.34357" lon="2.76781">
        <ele>73.199996948242</ele>
        <time>2022-02-10T13:09:14Z</time>
      </trkpt>
      <trkpt lat="48.34351" lon="2.76774">
        <ele>73.199996948242</ele>
        <time>2022-02-10T13:09:19Z</time>
      </trkpt>
      <trkpt lat="48.34346" lon="2.76769">
        <ele>73.400001525879</ele>
        <time>2022-02-10T13:09:24Z</time>
      </trkpt>
      <trkpt lat="48.34341" lon="2.76762">
        <ele>73.599998474121</ele>
        <time>2022-02-10T13:09:29Z</time>
      </trkpt>
      <trkpt lat="48.34338" lon="2.76756">
        <ele>73.800003051758</ele>
        <time>2022-02-10T13:09:34Z</time>
      </trkpt>
      <trkpt lat="48.34334" lon="2.7675">
        <ele>74</ele>
        <time>2022-02-10T13:09:39Z</time>
      </trkpt>
      <trkpt lat="48.34329" lon="2.76745">
        <ele>74.400001525879</ele>
        <time>2022-02-10T13:09:44Z</time>
      </trkpt>
      <trkpt lat="48.34324" lon="2.76741">
        <ele>74.400001525879</ele>
        <time>2022-02-10T13:09:49Z</time>
      </trkpt>
      <trkpt lat="48.34319" lon="2.76736">
        <ele>74.400001525879</ele>
        <time>2022-02-10T13:09:54Z</time>
      </trkpt>
      <trkpt lat="48.34316" lon="2.7673">
        <ele>74.599998474121</ele>
        <time>2022-02-10T13:09:59Z</time>
      </trkpt>
      <trkpt lat="48.34311" lon="2.76724">
        <ele>74.599998474121</ele>
        <time>2022-02-10T13:10:04Z</time>
      </trkpt>
      <trkpt lat="48.34308" lon="2.76719">
        <ele>74.599998474121</ele>
        <time>2022-02-10T13:10:09Z</time>
      </trkpt>
      <trkpt lat="48.34304" lon="2.76713">
        <ele>74.800003051758</ele>
        <time>2022-02-10T13:10:14Z</time>
      </trkpt>
      <trkpt lat="48.34302" lon="2.76708">
        <ele>75.199996948242</ele>
        <time>2022-02-10T13:10:19Z</time>
      </trkpt>
      <trkpt lat="48.34299" lon="2.76704">
        <ele>75.400001525879</ele>
        <time>2022-02-10T13:10:24Z</time>
      </trkpt>
      <trkpt lat="48.34293" lon="2.76698">
        <ele>75.199996948242</ele>
        <time>2022-02-10T13:10:29Z</time>
      </trkpt>
      <trkpt lat="48.34288" lon="2.76694">
        <ele>75.400001525879</ele>
        <time>2022-02-10T13:10:34Z</time>
      </trkpt>
      <trkpt lat="48.34284" lon="2.76689">
        <ele>75.400001525879</ele>
        <time>2022-02-10T13:10:39Z</time>
      </trkpt>
      <trkpt lat="48.34279" lon="2.76685">
        <ele>75.199996948242</ele>
        <time>2022-02-10T13:10:44Z</time>
      </trkpt>
      <trkpt lat="48.34275" lon="2.76679">
        <ele>75.400001525879</ele>
        <time>2022-02-10T13:10:49Z</time>
      </trkpt>
      <trkpt lat="48.3427" lon="2.76674">
        <ele>75.599998474121</ele>
        <time>2022-02-10T13:10:54Z</time>
      </trkpt>
      <trkpt lat="48.34267" lon="2.76669">
        <ele>75.599998474121</ele>
        <time>2022-02-10T13:10:59Z</time>
      </trkpt>
      <trkpt lat="48.34264" lon="2.76661">
        <ele>75.400001525879</ele>
        <time>2022-02-10T13:11:04Z</time>
      </trkpt>
      <trkpt lat="48.3426" lon="2.76654">
        <ele>75.400001525879</ele>
        <time>2022-02-10T13:11:09Z</time>
      </trkpt>
      <trkpt lat="48.34257" lon="2.76649">
        <ele>75.400001525879</ele>
        <time>2022-02-10T13:11:14Z</time>
      </trkpt>
      <trkpt lat="48.34253" lon="2.76643">
        <ele>75.199996948242</ele>
        <time>2022-02-10T13:11:19Z</time>
      </trkpt>
      <trkpt lat="48.34249" lon="2.76638">
        <ele>75.400001525879</ele>
        <time>2022-02-10T13:11:24Z</time>
      </trkpt>
      <trkpt lat="48.34246" lon="2.76632">
        <ele>75.400001525879</ele>
        <time>2022-02-10T13:11:29Z</time>
      </trkpt>
      <trkpt lat="48.34241" lon="2.76626">
        <ele>75.599998474121</ele>
        <time>2022-02-10T13:11:34Z</time>
      </trkpt>
      <trkpt lat="48.34238" lon="2.76621">
        <ele>75.599998474121</ele>
        <time>2022-02-10T13:11:39Z</time>
      </trkpt>
      <trkpt lat="48.34233" lon="2.76616">
        <ele>75.599998474121</ele>
        <time>2022-02-10T13:11:44Z</time>
      </trkpt>
      <trkpt lat="48.34227" lon="2.76609">
        <ele>75.400001525879</ele>
        <time>2022-02-10T13:11:49Z</time>
      </trkpt>
      <trkpt lat="48.34222" lon="2.76603">
        <ele>75.400001525879</ele>
        <time>2022-02-10T13:11:54Z</time>
      </trkpt>
      <trkpt lat="48.34216" lon="2.76597">
        <ele>75.400001525879</ele>
        <time>2022-02-10T13:11:59Z</time>
      </trkpt>
      <trkpt lat="48.34211" lon="2.76592">
        <ele>75.599998474121</ele>
        <time>2022-02-10T13:12:04Z</time>
      </trkpt>
      <trkpt lat="48.34205" lon="2.76585">
        <ele>75.400001525879</ele>
        <time>2022-02-10T13:12:09Z</time>
      </trkpt>
      <trkpt lat="48.342" lon="2.76581">
        <ele>75.400001525879</ele>
        <time>2022-02-10T13:12:14Z</time>
      </trkpt>
      <trkpt lat="48.34194" lon="2.76575">
        <ele>75</ele>
        <time>2022-02-10T13:12:19Z</time>
      </trkpt>
      <trkpt lat="48.34189" lon="2.76568">
        <ele>75.199996948242</ele>
        <time>2022-02-10T13:12:24Z</time>
      </trkpt>
      <trkpt lat="48.34184" lon="2.76563">
        <ele>74.800003051758</ele>
        <time>2022-02-10T13:12:29Z</time>
      </trkpt>
      <trkpt lat="48.3418" lon="2.76558">
        <ele>75</ele>
        <time>2022-02-10T13:12:34Z</time>
      </trkpt>
      <trkpt lat="48.34176" lon="2.76551">
        <ele>74.599998474121</ele>
        <time>2022-02-10T13:12:39Z</time>
      </trkpt>
      <trkpt lat="48.34171" lon="2.76545">
        <ele>74.400001525879</ele>
        <time>2022-02-10T13:12:44Z</time>
      </trkpt>
      <trkpt lat="48.34167" lon="2.76539">
        <ele>74.199996948242</ele>
        <time>2022-02-10T13:12:49Z</time>
      </trkpt>
      <trkpt lat="48.34163" lon="2.76534">
        <ele>74</ele>
        <time>2022-02-10T13:12:54Z</time>
      </trkpt>
      <trkpt lat="48.34158" lon="2.76529">
        <ele>73.800003051758</ele>
        <time>2022-02-10T13:12:59Z</time>
      </trkpt>
      <trkpt lat="48.34153" lon="2.76524">
        <ele>73.599998474121</ele>
        <time>2022-02-10T13:13:04Z</time>
      </trkpt>
      <trkpt lat="48.3415" lon="2.76519">
        <ele>73.599998474121</ele>
        <time>2022-02-10T13:13:09Z</time>
      </trkpt>
      <trkpt lat="48.34145" lon="2.76515">
        <ele>73.599998474121</ele>
        <time>2022-02-10T13:13:14Z</time>
      </trkpt>
      <trkpt lat="48.3414" lon="2.76511">
        <ele>73.599998474121</ele>
        <time>2022-02-10T13:13:19Z</time>
      </trkpt>
      <trkpt lat="48.34137" lon="2.76507">
        <ele>73.400001525879</ele>
        <time>2022-02-10T13:13:24Z</time>
      </trkpt>
      <trkpt lat="48.34132" lon="2.76502">
        <ele>73.199996948242</ele>
        <time>2022-02-10T13:13:29Z</time>
      </trkpt>
      <trkpt lat="48.34128" lon="2.76496">
        <ele>73</ele>
        <time>2022-02-10T13:13:34Z</time>
      </trkpt>
      <trkpt lat="48.34124" lon="2.76491">
        <ele>72.800003051758</ele>
        <time>2022-02-10T13:13:39Z</time>
      </trkpt>
      <trkpt lat="48.3412" lon="2.76485">
        <ele>72.599998474121</ele>
        <time>2022-02-10T13:13:44Z</time>
      </trkpt>
      <trkpt lat="48.34116" lon="2.7648">
        <ele>72</ele>
        <time>2022-02-10T13:13:49Z</time>
      </trkpt>
      <trkpt lat="48.34113" lon="2.76473">
        <ele>71.199996948242</ele>
        <time>2022-02-10T13:13:54Z</time>
      </trkpt>
      <trkpt lat="48.34109" lon="2.76468">
        <ele>70.800003051758</ele>
        <time>2022-02-10T13:13:59Z</time>
      </trkpt>
      <trkpt lat="48.34106" lon="2.76461">
        <ele>70.400001525879</ele>
        <time>2022-02-10T13:14:04Z</time>
      </trkpt>
      <trkpt lat="48.34104" lon="2.76456">
        <ele>70</ele>
        <time>2022-02-10T13:14:09Z</time>
      </trkpt>
      <trkpt lat="48.34105" lon="2.76453">
        <ele>70</ele>
        <time>2022-02-10T13:14:14Z</time>
      </trkpt>
      <trkpt lat="48.34108" lon="2.76449">
        <ele>70.599998474121</ele>
        <time>2022-02-10T13:14:19Z</time>
      </trkpt>
      <trkpt lat="48.34112" lon="2.76443">
        <ele>71</ele>
        <time>2022-02-10T13:14:24Z</time>
      </trkpt>
      <trkpt lat="48.34117" lon="2.76435">
        <ele>71.400001525879</ele>
        <time>2022-02-10T13:14:29Z</time>
      </trkpt>
      <trkpt lat="48.3412" lon="2.7643">
        <ele>71.800003051758</ele>
        <time>2022-02-10T13:14:34Z</time>
      </trkpt>
      <trkpt lat="48.34125" lon="2.76426">
        <ele>72.599998474121</ele>
        <time>2022-02-10T13:14:39Z</time>
      </trkpt>
      <trkpt lat="48.34128" lon="2.76418">
        <ele>73</ele>
        <time>2022-02-10T13:14:44Z</time>
      </trkpt>
      <trkpt lat="48.3413" lon="2.76412">
        <ele>73.400001525879</ele>
        <time>2022-02-10T13:14:49Z</time>
      </trkpt>
      <trkpt lat="48.34132" lon="2.76406">
        <ele>73.800003051758</ele>
        <time>2022-02-10T13:14:54Z</time>
      </trkpt>
      <trkpt lat="48.34136" lon="2.764">
        <ele>74.400001525879</ele>
        <time>2022-02-10T13:14:59Z</time>
      </trkpt>
      <trkpt lat="48.34139" lon="2.76394">
        <ele>75.400001525879</ele>
        <time>2022-02-10T13:15:04Z</time>
      </trkpt>
      <trkpt lat="48.34143" lon="2.76388">
        <ele>76</ele>
        <time>2022-02-10T13:15:09Z</time>
      </trkpt>
      <trkpt lat="48.34147" lon="2.76385">
        <ele>76.599998474121</ele>
        <time>2022-02-10T13:15:14Z</time>
      </trkpt>
      <trkpt lat="48.34153" lon="2.76381">
        <ele>77.199996948242</ele>
        <time>2022-02-10T13:15:19Z</time>
      </trkpt>
      <trkpt lat="48.3416" lon="2.76375">
        <ele>77.599998474121</ele>
        <time>2022-02-10T13:15:24Z</time>
      </trkpt>
      <trkpt lat="48.34164" lon="2.76369">
        <ele>78</ele>
        <time>2022-02-10T13:15:29Z</time>
      </trkpt>
      <trkpt lat="48.34167" lon="2.76364">
        <ele>78.599998474121</ele>
        <time>2022-02-10T13:15:34Z</time>
      </trkpt>
      <trkpt lat="48.34172" lon="2.7636">
        <ele>79</ele>
        <time>2022-02-10T13:15:39Z</time>
      </trkpt>
      <trkpt lat="48.34176" lon="2.76355">
        <ele>79.400001525879</ele>
        <time>2022-02-10T13:15:44Z</time>
      </trkpt>
      <trkpt lat="48.3418" lon="2.7635">
        <ele>80</ele>
        <time>2022-02-10T13:15:49Z</time>
      </trkpt>
      <trkpt lat="48.34184" lon="2.76346">
        <ele>80.599998474121</ele>
        <time>2022-02-10T13:15:54Z</time>
      </trkpt>
      <trkpt lat="48.34187" lon="2.76341">
        <ele>81</ele>
        <time>2022-02-10T13:15:59Z</time>
      </trkpt>
      <trkpt lat="48.3419" lon="2.76337">
        <ele>81.400001525879</ele>
        <time>2022-02-10T13:16:04Z</time>
      </trkpt>
      <trkpt lat="48.34195" lon="2.76332">
        <ele>81.800003051758</ele>
        <time>2022-02-10T13:16:09Z</time>
      </trkpt>
      <trkpt lat="48.34199" lon="2.76326">
        <ele>82.400001525879</ele>
        <time>2022-02-10T13:16:14Z</time>
      </trkpt>
      <trkpt lat="48.34204" lon="2.7632">
        <ele>82.800003051758</ele>
        <time>2022-02-10T13:16:19Z</time>
      </trkpt>
      <trkpt lat="48.34208" lon="2.76316">
        <ele>83.400001525879</ele>
        <time>2022-02-10T13:16:24Z</time>
      </trkpt>
      <trkpt lat="48.34212" lon="2.76312">
        <ele>83.599998474121</ele>
        <time>2022-02-10T13:16:29Z</time>
      </trkpt>
      <trkpt lat="48.34216" lon="2.7631">
        <ele>84</ele>
        <time>2022-02-10T13:16:34Z</time>
      </trkpt>
      <trkpt lat="48.34219" lon="2.76306">
        <ele>84.800003051758</ele>
        <time>2022-02-10T13:16:39Z</time>
      </trkpt>
      <trkpt lat="48.34223" lon="2.763">
        <ele>85.400001525879</ele>
        <time>2022-02-10T13:16:44Z</time>
      </trkpt>
      <trkpt lat="48.34226" lon="2.76294">
        <ele>85.599998474121</ele>
        <time>2022-02-10T13:16:49Z</time>
      </trkpt>
      <trkpt lat="48.34229" lon="2.76289">
        <ele>86</ele>
        <time>2022-02-10T13:16:54Z</time>
      </trkpt>
      <trkpt lat="48.34232" lon="2.76284">
        <ele>86.800003051758</ele>
        <time>2022-02-10T13:16:59Z</time>
      </trkpt>
      <trkpt lat="48.34235" lon="2.7628">
        <ele>87.400001525879</ele>
        <time>2022-02-10T13:17:04Z</time>
      </trkpt>
      <trkpt lat="48.34238" lon="2.76276">
        <ele>87.800003051758</ele>
        <time>2022-02-10T13:17:09Z</time>
      </trkpt>
      <trkpt lat="48.3424" lon="2.76272">
        <ele>88</ele>
        <time>2022-02-10T13:17:14Z</time>
      </trkpt>
      <trkpt lat="48.34244" lon="2.76267">
        <ele>88.400001525879</ele>
        <time>2022-02-10T13:17:19Z</time>
      </trkpt>
      <trkpt lat="48.34249" lon="2.76263">
        <ele>88.599998474121</ele>
        <time>2022-02-10T13:17:24Z</time>
      </trkpt>
      <trkpt lat="48.34252" lon="2.7626">
        <ele>89.400001525879</ele>
        <time>2022-02-10T13:17:29Z</time>
      </trkpt>
      <trkpt lat="48.34254" lon="2.76255">
        <ele>89.599998474121</ele>
        <time>2022-02-10T13:17:34Z</time>
      </trkpt>
      <trkpt lat="48.34259" lon="2.76249">
        <ele>90</ele>
        <time>2022-02-10T13:17:39Z</time>
      </trkpt>
      <trkpt lat="48.34264" lon="2.76242">
        <ele>90.400001525879</ele>
        <time>2022-02-10T13:17:44Z</time>
      </trkpt>
      <trkpt lat="48.34269" lon="2.76237">
        <ele>90.599998474121</ele>
        <time>2022-02-10T13:17:49Z</time>
      </trkpt>
      <trkpt lat="48.34272" lon="2.7623">
        <ele>91</ele>
        <time>2022-02-10T13:17:54Z</time>
      </trkpt>
      <trkpt lat="48.34275" lon="2.76224">
        <ele>91.199996948242</ele>
        <time>2022-02-10T13:17:59Z</time>
      </trkpt>
      <trkpt lat="48.34278" lon="2.76219">
        <ele>91.400001525879</ele>
        <time>2022-02-10T13:18:04Z</time>
      </trkpt>
      <trkpt lat="48.34282" lon="2.76214">
        <ele>91.800003051758</ele>
        <time>2022-02-10T13:18:09Z</time>
      </trkpt>
      <trkpt lat="48.34288" lon="2.76208">
        <ele>92.199996948242</ele>
        <time>2022-02-10T13:18:14Z</time>
      </trkpt>
      <trkpt lat="48.34295" lon="2.76205">
        <ele>92.400001525879</ele>
        <time>2022-02-10T13:18:19Z</time>
      </trkpt>
      <trkpt lat="48.34299" lon="2.762">
        <ele>92.599998474121</ele>
        <time>2022-02-10T13:18:24Z</time>
      </trkpt>
      <trkpt lat="48.34305" lon="2.76196">
        <ele>92.800003051758</ele>
        <time>2022-02-10T13:18:29Z</time>
      </trkpt>
      <trkpt lat="48.34308" lon="2.76193">
        <ele>93.199996948242</ele>
        <time>2022-02-10T13:18:34Z</time>
      </trkpt>
      <trkpt lat="48.34311" lon="2.76187">
        <ele>93.400001525879</ele>
        <time>2022-02-10T13:18:39Z</time>
      </trkpt>
      <trkpt lat="48.34314" lon="2.76179">
        <ele>93.800003051758</ele>
        <time>2022-02-10T13:18:44Z</time>
      </trkpt>
      <trkpt lat="48.34317" lon="2.76172">
        <ele>94.199996948242</ele>
        <time>2022-02-10T13:18:49Z</time>
      </trkpt>
      <trkpt lat="48.3432" lon="2.76166">
        <ele>94.400001525879</ele>
        <time>2022-02-10T13:18:54Z</time>
      </trkpt>
      <trkpt lat="48.34324" lon="2.76159">
        <ele>94.800003051758</ele>
        <time>2022-02-10T13:18:59Z</time>
      </trkpt>
      <trkpt lat="48.34329" lon="2.76151">
        <ele>94.800003051758</ele>
        <time>2022-02-10T13:19:04Z</time>
      </trkpt>
      <trkpt lat="48.34333" lon="2.76144">
        <ele>95</ele>
        <time>2022-02-10T13:19:09Z</time>
      </trkpt>
      <trkpt lat="48.34336" lon="2.76139">
        <ele>95</ele>
        <time>2022-02-10T13:19:14Z</time>
      </trkpt>
      <trkpt lat="48.3434" lon="2.76132">
        <ele>95.199996948242</ele>
        <time>2022-02-10T13:19:19Z</time>
      </trkpt>
      <trkpt lat="48.34343" lon="2.76124">
        <ele>95.400001525879</ele>
        <time>2022-02-10T13:19:24Z</time>
      </trkpt>
      <trkpt lat="48.34348" lon="2.76117">
        <ele>95.800003051758</ele>
        <time>2022-02-10T13:19:29Z</time>
      </trkpt>
      <trkpt lat="48.34351" lon="2.76113">
        <ele>96</ele>
        <time>2022-02-10T13:19:34Z</time>
      </trkpt>
      <trkpt lat="48.34355" lon="2.7611">
        <ele>96</ele>
        <time>2022-02-10T13:19:39Z</time>
      </trkpt>
      <trkpt lat="48.3436" lon="2.76105">
        <ele>96.199996948242</ele>
        <time>2022-02-10T13:19:44Z</time>
      </trkpt>
      <trkpt lat="48.34363" lon="2.761">
        <ele>96.199996948242</ele>
        <time>2022-02-10T13:19:49Z</time>
      </trkpt>
      <trkpt lat="48.34366" lon="2.76094">
        <ele>96.599998474121</ele>
        <time>2022-02-10T13:19:54Z</time>
      </trkpt>
      <trkpt lat="48.34366" lon="2.7609">
        <ele>96.599998474121</ele>
        <time>2022-02-10T13:19:59Z</time>
      </trkpt>
      <trkpt lat="48.34365" lon="2.76088">
        <ele>96.599998474121</ele>
        <time>2022-02-10T13:20:04Z</time>
      </trkpt>
      <trkpt lat="48.34362" lon="2.76086">
        <ele>96.599998474121</ele>
        <time>2022-02-10T13:20:09Z</time>
      </trkpt>
      <trkpt lat="48.34363" lon="2.76087">
        <ele>96.599998474121</ele>
        <time>2022-02-10T13:20:14Z</time>
      </trkpt>
      <trkpt lat="48.34365" lon="2.76091">
        <ele>96.599998474121</ele>
        <time>2022-02-10T13:20:19Z</time>
      </trkpt>
      <trkpt lat="48.34366" lon="2.76094">
        <ele>96.599998474121</ele>
        <time>2022-02-10T13:20:24Z</time>
      </trkpt>
      <trkpt lat="48.34369" lon="2.76096">
        <ele>96.599998474121</ele>
        <time>2022-02-10T13:20:29Z</time>
      </trkpt>
      <trkpt lat="48.34369" lon="2.76094">
        <ele>96.599998474121</ele>
        <time>2022-02-10T13:20:34Z</time>
      </trkpt>
      <trkpt lat="48.34373" lon="2.7609">
        <ele>97</ele>
        <time>2022-02-10T13:20:39Z</time>
      </trkpt>
      <trkpt lat="48.34377" lon="2.76081">
        <ele>97.400001525879</ele>
        <time>2022-02-10T13:20:44Z</time>
      </trkpt>
      <trkpt lat="48.34379" lon="2.76074">
        <ele>97.400001525879</ele>
        <time>2022-02-10T13:20:49Z</time>
      </trkpt>
      <trkpt lat="48.34382" lon="2.76067">
        <ele>97.599998474121</ele>
        <time>2022-02-10T13:20:54Z</time>
      </trkpt>
      <trkpt lat="48.34385" lon="2.7606">
        <ele>98</ele>
        <time>2022-02-10T13:20:59Z</time>
      </trkpt>
      <trkpt lat="48.34389" lon="2.76056">
        <ele>98.199996948242</ele>
        <time>2022-02-10T13:21:04Z</time>
      </trkpt>
      <trkpt lat="48.34393" lon="2.76052">
        <ele>98.199996948242</ele>
        <time>2022-02-10T13:21:09Z</time>
      </trkpt>
      <trkpt lat="48.34397" lon="2.76047">
        <ele>98.599998474121</ele>
        <time>2022-02-10T13:21:14Z</time>
      </trkpt>
      <trkpt lat="48.34401" lon="2.76043">
        <ele>98.800003051758</ele>
        <time>2022-02-10T13:21:19Z</time>
      </trkpt>
      <trkpt lat="48.34404" lon="2.7604">
        <ele>99</ele>
        <time>2022-02-10T13:21:24Z</time>
      </trkpt>
      <trkpt lat="48.34408" lon="2.76037">
        <ele>99</ele>
        <time>2022-02-10T13:21:29Z</time>
      </trkpt>
      <trkpt lat="48.34412" lon="2.76032">
        <ele>99.400001525879</ele>
        <time>2022-02-10T13:21:34Z</time>
      </trkpt>
      <trkpt lat="48.34416" lon="2.76027">
        <ele>99.599998474121</ele>
        <time>2022-02-10T13:21:39Z</time>
      </trkpt>
      <trkpt lat="48.34419" lon="2.76019">
        <ele>99.599998474121</ele>
        <time>2022-02-10T13:21:44Z</time>
      </trkpt>
      <trkpt lat="48.34421" lon="2.76012">
        <ele>100</ele>
        <time>2022-02-10T13:21:49Z</time>
      </trkpt>
      <trkpt lat="48.34424" lon="2.76006">
        <ele>100.19999694824</ele>
        <time>2022-02-10T13:21:54Z</time>
      </trkpt>
      <trkpt lat="48.34427" lon="2.75998">
        <ele>100.19999694824</ele>
        <time>2022-02-10T13:21:59Z</time>
      </trkpt>
      <trkpt lat="48.3443" lon="2.75995">
        <ele>100.19999694824</ele>
        <time>2022-02-10T13:22:04Z</time>
      </trkpt>
      <trkpt lat="48.34433" lon="2.75989">
        <ele>100.59999847412</ele>
        <time>2022-02-10T13:22:09Z</time>
      </trkpt>
      <trkpt lat="48.34436" lon="2.75983">
        <ele>100.80000305176</ele>
        <time>2022-02-10T13:22:14Z</time>
      </trkpt>
      <trkpt lat="48.34439" lon="2.75977">
        <ele>101.40000152588</ele>
        <time>2022-02-10T13:22:19Z</time>
      </trkpt>
      <trkpt lat="48.34443" lon="2.75973">
        <ele>101.40000152588</ele>
        <time>2022-02-10T13:22:24Z</time>
      </trkpt>
      <trkpt lat="48.34445" lon="2.7597">
        <ele>101.59999847412</ele>
        <time>2022-02-10T13:22:29Z</time>
      </trkpt>
      <trkpt lat="48.34447" lon="2.75965">
        <ele>102.19999694824</ele>
        <time>2022-02-10T13:22:34Z</time>
      </trkpt>
      <trkpt lat="48.34451" lon="2.75961">
        <ele>102.40000152588</ele>
        <time>2022-02-10T13:22:39Z</time>
      </trkpt>
      <trkpt lat="48.34454" lon="2.75957">
        <ele>102.40000152588</ele>
        <time>2022-02-10T13:22:44Z</time>
      </trkpt>
      <trkpt lat="48.34458" lon="2.75952">
        <ele>102.80000305176</ele>
        <time>2022-02-10T13:22:49Z</time>
      </trkpt>
      <trkpt lat="48.34462" lon="2.75947">
        <ele>103.19999694824</ele>
        <time>2022-02-10T13:22:54Z</time>
      </trkpt>
      <trkpt lat="48.34467" lon="2.75942">
        <ele>103.40000152588</ele>
        <time>2022-02-10T13:22:59Z</time>
      </trkpt>
      <trkpt lat="48.3447" lon="2.75937">
        <ele>103.40000152588</ele>
        <time>2022-02-10T13:23:04Z</time>
      </trkpt>
      <trkpt lat="48.34474" lon="2.75933">
        <ele>104</ele>
        <time>2022-02-10T13:23:09Z</time>
      </trkpt>
      <trkpt lat="48.34478" lon="2.75927">
        <ele>104.19999694824</ele>
        <time>2022-02-10T13:23:14Z</time>
      </trkpt>
      <trkpt lat="48.3448" lon="2.75922">
        <ele>104.40000152588</ele>
        <time>2022-02-10T13:23:19Z</time>
      </trkpt>
      <trkpt lat="48.34484" lon="2.75915">
        <ele>104.59999847412</ele>
        <time>2022-02-10T13:23:24Z</time>
      </trkpt>
      <trkpt lat="48.34488" lon="2.7591">
        <ele>104.80000305176</ele>
        <time>2022-02-10T13:23:29Z</time>
      </trkpt>
      <trkpt lat="48.34492" lon="2.75905">
        <ele>105.40000152588</ele>
        <time>2022-02-10T13:23:34Z</time>
      </trkpt>
      <trkpt lat="48.34495" lon="2.75899">
        <ele>105.40000152588</ele>
        <time>2022-02-10T13:23:39Z</time>
      </trkpt>
      <trkpt lat="48.34498" lon="2.75894">
        <ele>105.59999847412</ele>
        <time>2022-02-10T13:23:44Z</time>
      </trkpt>
      <trkpt lat="48.345" lon="2.75888">
        <ele>105.59999847412</ele>
        <time>2022-02-10T13:23:49Z</time>
      </trkpt>
      <trkpt lat="48.34503" lon="2.75882">
        <ele>106.19999694824</ele>
        <time>2022-02-10T13:23:54Z</time>
      </trkpt>
      <trkpt lat="48.34508" lon="2.75876">
        <ele>106.59999847412</ele>
        <time>2022-02-10T13:23:59Z</time>
      </trkpt>
      <trkpt lat="48.34511" lon="2.75872">
        <ele>107</ele>
        <time>2022-02-10T13:24:04Z</time>
      </trkpt>
      <trkpt lat="48.34513" lon="2.75867">
        <ele>107.40000152588</ele>
        <time>2022-02-10T13:24:09Z</time>
      </trkpt>
      <trkpt lat="48.34517" lon="2.75863">
        <ele>107.80000305176</ele>
        <time>2022-02-10T13:24:14Z</time>
      </trkpt>
      <trkpt lat="48.34521" lon="2.75859">
        <ele>108</ele>
        <time>2022-02-10T13:24:19Z</time>
      </trkpt>
      <trkpt lat="48.34526" lon="2.75856">
        <ele>108.19999694824</ele>
        <time>2022-02-10T13:24:24Z</time>
      </trkpt>
      <trkpt lat="48.34529" lon="2.75851">
        <ele>108.59999847412</ele>
        <time>2022-02-10T13:24:29Z</time>
      </trkpt>
      <trkpt lat="48.34532" lon="2.75846">
        <ele>109.19999694824</ele>
        <time>2022-02-10T13:24:34Z</time>
      </trkpt>
      <trkpt lat="48.34535" lon="2.75839">
        <ele>109.19999694824</ele>
        <time>2022-02-10T13:24:39Z</time>
      </trkpt>
      <trkpt lat="48.3454" lon="2.75834">
        <ele>109.59999847412</ele>
        <time>2022-02-10T13:24:44Z</time>
      </trkpt>
      <trkpt lat="48.34542" lon="2.75828">
        <ele>110.19999694824</ele>
        <time>2022-02-10T13:24:49Z</time>
      </trkpt>
      <trkpt lat="48.34547" lon="2.75823">
        <ele>110.40000152588</ele>
        <time>2022-02-10T13:24:54Z</time>
      </trkpt>
      <trkpt lat="48.34552" lon="2.75818">
        <ele>110.80000305176</ele>
        <time>2022-02-10T13:24:59Z</time>
      </trkpt>
      <trkpt lat="48.34555" lon="2.75814">
        <ele>111</ele>
        <time>2022-02-10T13:25:04Z</time>
      </trkpt>
      <trkpt lat="48.34561" lon="2.75812">
        <ele>111.59999847412</ele>
        <time>2022-02-10T13:25:09Z</time>
      </trkpt>
      <trkpt lat="48.34566" lon="2.75809">
        <ele>112.19999694824</ele>
        <time>2022-02-10T13:25:14Z</time>
      </trkpt>
      <trkpt lat="48.3457" lon="2.75805">
        <ele>112.80000305176</ele>
        <time>2022-02-10T13:25:19Z</time>
      </trkpt>
      <trkpt lat="48.34571" lon="2.75799">
        <ele>113</ele>
        <time>2022-02-10T13:25:24Z</time>
      </trkpt>
      <trkpt lat="48.34572" lon="2.7579">
        <ele>113.40000152588</ele>
        <time>2022-02-10T13:25:29Z</time>
      </trkpt>
      <trkpt lat="48.34574" lon="2.75785">
        <ele>114</ele>
        <time>2022-02-10T13:25:34Z</time>
      </trkpt>
      <trkpt lat="48.34579" lon="2.75781">
        <ele>114.80000305176</ele>
        <time>2022-02-10T13:25:39Z</time>
      </trkpt>
      <trkpt lat="48.34582" lon="2.75775">
        <ele>115.19999694824</ele>
        <time>2022-02-10T13:25:44Z</time>
      </trkpt>
      <trkpt lat="48.34583" lon="2.75768">
        <ele>115.40000152588</ele>
        <time>2022-02-10T13:25:49Z</time>
      </trkpt>
      <trkpt lat="48.34584" lon="2.75761">
        <ele>116.40000152588</ele>
        <time>2022-02-10T13:25:54Z</time>
      </trkpt>
      <trkpt lat="48.34585" lon="2.75756">
        <ele>117</ele>
        <time>2022-02-10T13:25:59Z</time>
      </trkpt>
      <trkpt lat="48.34585" lon="2.75751">
        <ele>117.59999847412</ele>
        <time>2022-02-10T13:26:04Z</time>
      </trkpt>
      <trkpt lat="48.34589" lon="2.75748">
        <ele>118</ele>
        <time>2022-02-10T13:26:09Z</time>
      </trkpt>
      <trkpt lat="48.34592" lon="2.75746">
        <ele>118.80000305176</ele>
        <time>2022-02-10T13:26:14Z</time>
      </trkpt>
      <trkpt lat="48.34597" lon="2.75742">
        <ele>119.19999694824</ele>
        <time>2022-02-10T13:26:19Z</time>
      </trkpt>
      <trkpt lat="48.34599" lon="2.75737">
        <ele>120.19999694824</ele>
        <time>2022-02-10T13:26:24Z</time>
      </trkpt>
      <trkpt lat="48.34601" lon="2.75734">
        <ele>120.59999847412</ele>
        <time>2022-02-10T13:26:29Z</time>
      </trkpt>
      <trkpt lat="48.34604" lon="2.75731">
        <ele>121.19999694824</ele>
        <time>2022-02-10T13:26:34Z</time>
      </trkpt>
      <trkpt lat="48.34608" lon="2.75727">
        <ele>122</ele>
        <time>2022-02-10T13:26:39Z</time>
      </trkpt>
      <trkpt lat="48.34612" lon="2.75724">
        <ele>122.59999847412</ele>
        <time>2022-02-10T13:26:44Z</time>
      </trkpt>
      <trkpt lat="48.34617" lon="2.75724">
        <ele>123.40000152588</ele>
        <time>2022-02-10T13:26:49Z</time>
      </trkpt>
      <trkpt lat="48.34619" lon="2.75721">
        <ele>124.19999694824</ele>
        <time>2022-02-10T13:26:54Z</time>
      </trkpt>
      <trkpt lat="48.34619" lon="2.75717">
        <ele>124.80000305176</ele>
        <time>2022-02-10T13:26:59Z</time>
      </trkpt>
      <trkpt lat="48.3462" lon="2.75713">
        <ele>125.59999847412</ele>
        <time>2022-02-10T13:27:04Z</time>
      </trkpt>
      <trkpt lat="48.34623" lon="2.7571">
        <ele>126</ele>
        <time>2022-02-10T13:27:09Z</time>
      </trkpt>
      <trkpt lat="48.34624" lon="2.75706">
        <ele>126.80000305176</ele>
        <time>2022-02-10T13:27:14Z</time>
      </trkpt>
      <trkpt lat="48.34626" lon="2.75701">
        <ele>127.19999694824</ele>
        <time>2022-02-10T13:27:19Z</time>
      </trkpt>
      <trkpt lat="48.34628" lon="2.75696">
        <ele>127.80000305176</ele>
        <time>2022-02-10T13:27:24Z</time>
      </trkpt>
      <trkpt lat="48.34629" lon="2.75695">
        <ele>128.60000610352</ele>
        <time>2022-02-10T13:27:29Z</time>
      </trkpt>
      <trkpt lat="48.34632" lon="2.75692">
        <ele>129.39999389648</ele>
        <time>2022-02-10T13:27:34Z</time>
      </trkpt>
      <trkpt lat="48.34636" lon="2.75693">
        <ele>129.80000305176</ele>
        <time>2022-02-10T13:27:39Z</time>
      </trkpt>
      <trkpt lat="48.3464" lon="2.75691">
        <ele>130.80000305176</ele>
        <time>2022-02-10T13:27:44Z</time>
      </trkpt>
      <trkpt lat="48.34643" lon="2.75687">
        <ele>131.60000610352</ele>
        <time>2022-02-10T13:27:49Z</time>
      </trkpt>
      <trkpt lat="48.34647" lon="2.75681">
        <ele>132</ele>
        <time>2022-02-10T13:27:54Z</time>
      </trkpt>
      <trkpt lat="48.3465" lon="2.75675">
        <ele>132.19999694824</ele>
        <time>2022-02-10T13:27:59Z</time>
      </trkpt>
      <trkpt lat="48.34652" lon="2.75672">
        <ele>132.80000305176</ele>
        <time>2022-02-10T13:28:04Z</time>
      </trkpt>
      <trkpt lat="48.34653" lon="2.75665">
        <ele>133</ele>
        <time>2022-02-10T13:28:09Z</time>
      </trkpt>
      <trkpt lat="48.34654" lon="2.75663">
        <ele>132.80000305176</ele>
        <time>2022-02-10T13:28:14Z</time>
      </trkpt>
      <trkpt lat="48.34654" lon="2.75661">
        <ele>132.80000305176</ele>
        <time>2022-02-10T13:28:19Z</time>
      </trkpt>
      <trkpt lat="48.34654" lon="2.75659">
        <ele>132.80000305176</ele>
        <time>2022-02-10T13:28:24Z</time>
      </trkpt>
      <trkpt lat="48.34655" lon="2.75658">
        <ele>132.80000305176</ele>
        <time>2022-02-10T13:28:29Z</time>
      </trkpt>
      <trkpt lat="48.34655" lon="2.75657">
        <ele>132.80000305176</ele>
        <time>2022-02-10T13:28:34Z</time>
      </trkpt>
      <trkpt lat="48.34655" lon="2.75656">
        <ele>132.80000305176</ele>
        <time>2022-02-10T13:28:39Z</time>
      </trkpt>
      <trkpt lat="48.34654" lon="2.75655">
        <ele>132.80000305176</ele>
        <time>2022-02-10T13:28:44Z</time>
      </trkpt>
      <trkpt lat="48.34652" lon="2.75652">
        <ele>132.80000305176</ele>
        <time>2022-02-10T13:28:49Z</time>
      </trkpt>
      <trkpt lat="48.34652" lon="2.75651">
        <ele>132.80000305176</ele>
        <time>2022-02-10T13:28:54Z</time>
      </trkpt>
      <trkpt lat="48.34653" lon="2.75652">
        <ele>132.80000305176</ele>
        <time>2022-02-10T13:28:59Z</time>
      </trkpt>
      <trkpt lat="48.34654" lon="2.75653">
        <ele>132.80000305176</ele>
        <time>2022-02-10T13:29:04Z</time>
      </trkpt>
      <trkpt lat="48.34654" lon="2.75653">
        <ele>132.80000305176</ele>
        <time>2022-02-10T13:29:09Z</time>
      </trkpt>
      <trkpt lat="48.34654" lon="2.75653">
        <ele>133</ele>
        <time>2022-02-10T13:29:14Z</time>
      </trkpt>
      <trkpt lat="48.34654" lon="2.75653">
        <ele>133</ele>
        <time>2022-02-10T13:29:19Z</time>
      </trkpt>
      <trkpt lat="48.34654" lon="2.75654">
        <ele>133</ele>
        <time>2022-02-10T13:29:24Z</time>
      </trkpt>
      <trkpt lat="48.34653" lon="2.75655">
        <ele>133</ele>
        <time>2022-02-10T13:29:29Z</time>
      </trkpt>
      <trkpt lat="48.34653" lon="2.75655">
        <ele>133</ele>
        <time>2022-02-10T13:29:34Z</time>
      </trkpt>
      <trkpt lat="48.34651" lon="2.75654">
        <ele>133</ele>
        <time>2022-02-10T13:29:39Z</time>
      </trkpt>
      <trkpt lat="48.3465" lon="2.75654">
        <ele>133</ele>
        <time>2022-02-10T13:29:44Z</time>
      </trkpt>
      <trkpt lat="48.3465" lon="2.75654">
        <ele>133</ele>
        <time>2022-02-10T13:29:49Z</time>
      </trkpt>
      <trkpt lat="48.34648" lon="2.75653">
        <ele>133</ele>
        <time>2022-02-10T13:29:54Z</time>
      </trkpt>
      <trkpt lat="48.34646" lon="2.75652">
        <ele>133</ele>
        <time>2022-02-10T13:29:59Z</time>
      </trkpt>
      <trkpt lat="48.34647" lon="2.75651">
        <ele>133</ele>
        <time>2022-02-10T13:30:04Z</time>
      </trkpt>
      <trkpt lat="48.34647" lon="2.75651">
        <ele>133</ele>
        <time>2022-02-10T13:30:09Z</time>
      </trkpt>
      <trkpt lat="48.34645" lon="2.75651">
        <ele>133</ele>
        <time>2022-02-10T13:30:14Z</time>
      </trkpt>
      <trkpt lat="48.34644" lon="2.7565">
        <ele>133</ele>
        <time>2022-02-10T13:30:19Z</time>
      </trkpt>
      <trkpt lat="48.34644" lon="2.7565">
        <ele>133</ele>
        <time>2022-02-10T13:30:24Z</time>
      </trkpt>
      <trkpt lat="48.34645" lon="2.75651">
        <ele>133</ele>
        <time>2022-02-10T13:30:29Z</time>
      </trkpt>
      <trkpt lat="48.34646" lon="2.75658">
        <ele>133</ele>
        <time>2022-02-10T13:30:34Z</time>
      </trkpt>
      <trkpt lat="48.34647" lon="2.75659">
        <ele>133</ele>
        <time>2022-02-10T13:30:39Z</time>
      </trkpt>
      <trkpt lat="48.34648" lon="2.7566">
        <ele>133</ele>
        <time>2022-02-10T13:30:44Z</time>
      </trkpt>
      <trkpt lat="48.34648" lon="2.7566">
        <ele>133</ele>
        <time>2022-02-10T13:30:49Z</time>
      </trkpt>
      <trkpt lat="48.34648" lon="2.75659">
        <ele>133</ele>
        <time>2022-02-10T13:30:54Z</time>
      </trkpt>
      <trkpt lat="48.34648" lon="2.75658">
        <ele>133</ele>
        <time>2022-02-10T13:30:59Z</time>
      </trkpt>
      <trkpt lat="48.34648" lon="2.75656">
        <ele>133</ele>
        <time>2022-02-10T13:31:04Z</time>
      </trkpt>
      <trkpt lat="48.34647" lon="2.75656">
        <ele>133</ele>
        <time>2022-02-10T13:31:09Z</time>
      </trkpt>
      <trkpt lat="48.34649" lon="2.75656">
        <ele>133</ele>
        <time>2022-02-10T13:31:14Z</time>
      </trkpt>
      <trkpt lat="48.34649" lon="2.75656">
        <ele>133</ele>
        <time>2022-02-10T13:31:19Z</time>
      </trkpt>
      <trkpt lat="48.3465" lon="2.75656">
        <ele>133</ele>
        <time>2022-02-10T13:31:24Z</time>
      </trkpt>
      <trkpt lat="48.3465" lon="2.75657">
        <ele>133</ele>
        <time>2022-02-10T13:31:29Z</time>
      </trkpt>
      <trkpt lat="48.34651" lon="2.75657">
        <ele>133</ele>
        <time>2022-02-10T13:31:34Z</time>
      </trkpt>
      <trkpt lat="48.34651" lon="2.75657">
        <ele>133</ele>
        <time>2022-02-10T13:31:39Z</time>
      </trkpt>
      <trkpt lat="48.34652" lon="2.75657">
        <ele>133</ele>
        <time>2022-02-10T13:31:44Z</time>
      </trkpt>
      <trkpt lat="48.34654" lon="2.75659">
        <ele>133</ele>
        <time>2022-02-10T13:31:49Z</time>
      </trkpt>
      <trkpt lat="48.34655" lon="2.75658">
        <ele>133</ele>
        <time>2022-02-10T13:31:54Z</time>
      </trkpt>
      <trkpt lat="48.34655" lon="2.75652">
        <ele>133</ele>
        <time>2022-02-10T13:31:59Z</time>
      </trkpt>
      <trkpt lat="48.34656" lon="2.75648">
        <ele>133</ele>
        <time>2022-02-10T13:32:04Z</time>
      </trkpt>
      <trkpt lat="48.34658" lon="2.75643">
        <ele>133</ele>
        <time>2022-02-10T13:32:09Z</time>
      </trkpt>
      <trkpt lat="48.3466" lon="2.7564">
        <ele>133</ele>
        <time>2022-02-10T13:32:14Z</time>
      </trkpt>
      <trkpt lat="48.34663" lon="2.75637">
        <ele>133</ele>
        <time>2022-02-10T13:32:19Z</time>
      </trkpt>
      <trkpt lat="48.34666" lon="2.75633">
        <ele>132.80000305176</ele>
        <time>2022-02-10T13:32:24Z</time>
      </trkpt>
      <trkpt lat="48.3467" lon="2.75629">
        <ele>132.80000305176</ele>
        <time>2022-02-10T13:32:29Z</time>
      </trkpt>
      <trkpt lat="48.34673" lon="2.75625">
        <ele>133.19999694824</ele>
        <time>2022-02-10T13:32:34Z</time>
      </trkpt>
      <trkpt lat="48.34676" lon="2.7562">
        <ele>133.19999694824</ele>
        <time>2022-02-10T13:32:39Z</time>
      </trkpt>
      <trkpt lat="48.3468" lon="2.75616">
        <ele>133.60000610352</ele>
        <time>2022-02-10T13:32:44Z</time>
      </trkpt>
      <trkpt lat="48.34685" lon="2.75611">
        <ele>133.60000610352</ele>
        <time>2022-02-10T13:32:49Z</time>
      </trkpt>
      <trkpt lat="48.3469" lon="2.75607">
        <ele>133.80000305176</ele>
        <time>2022-02-10T13:32:54Z</time>
      </trkpt>
      <trkpt lat="48.34693" lon="2.75601">
        <ele>133.80000305176</ele>
        <time>2022-02-10T13:32:59Z</time>
      </trkpt>
      <trkpt lat="48.34695" lon="2.75597">
        <ele>134</ele>
        <time>2022-02-10T13:33:04Z</time>
      </trkpt>
      <trkpt lat="48.34701" lon="2.75594">
        <ele>134.19999694824</ele>
        <time>2022-02-10T13:33:09Z</time>
      </trkpt>
      <trkpt lat="48.34705" lon="2.75589">
        <ele>134.80000305176</ele>
        <time>2022-02-10T13:33:14Z</time>
      </trkpt>
      <trkpt lat="48.34709" lon="2.75584">
        <ele>134.80000305176</ele>
        <time>2022-02-10T13:33:19Z</time>
      </trkpt>
      <trkpt lat="48.34714" lon="2.7558">
        <ele>134.80000305176</ele>
        <time>2022-02-10T13:33:24Z</time>
      </trkpt>
      <trkpt lat="48.34718" lon="2.75573">
        <ele>135</ele>
        <time>2022-02-10T13:33:29Z</time>
      </trkpt>
      <trkpt lat="48.34721" lon="2.75568">
        <ele>135</ele>
        <time>2022-02-10T13:33:34Z</time>
      </trkpt>
      <trkpt lat="48.34724" lon="2.75561">
        <ele>135</ele>
        <time>2022-02-10T13:33:39Z</time>
      </trkpt>
      <trkpt lat="48.34727" lon="2.75555">
        <ele>135.19999694824</ele>
        <time>2022-02-10T13:33:44Z</time>
      </trkpt>
      <trkpt lat="48.34729" lon="2.75548">
        <ele>135.19999694824</ele>
        <time>2022-02-10T13:33:49Z</time>
      </trkpt>
      <trkpt lat="48.34731" lon="2.75543">
        <ele>135.39999389648</ele>
        <time>2022-02-10T13:33:54Z</time>
      </trkpt>
      <trkpt lat="48.34735" lon="2.75539">
        <ele>135.39999389648</ele>
        <time>2022-02-10T13:33:59Z</time>
      </trkpt>
      <trkpt lat="48.34738" lon="2.75533">
        <ele>135.39999389648</ele>
        <time>2022-02-10T13:34:04Z</time>
      </trkpt>
      <trkpt lat="48.34739" lon="2.75527">
        <ele>135.39999389648</ele>
        <time>2022-02-10T13:34:09Z</time>
      </trkpt>
      <trkpt lat="48.34741" lon="2.75518">
        <ele>135.39999389648</ele>
        <time>2022-02-10T13:34:14Z</time>
      </trkpt>
      <trkpt lat="48.34744" lon="2.75511">
        <ele>135.19999694824</ele>
        <time>2022-02-10T13:34:19Z</time>
      </trkpt>
      <trkpt lat="48.34748" lon="2.75507">
        <ele>135.19999694824</ele>
        <time>2022-02-10T13:34:24Z</time>
      </trkpt>
      <trkpt lat="48.34749" lon="2.75502">
        <ele>135.19999694824</ele>
        <time>2022-02-10T13:34:29Z</time>
      </trkpt>
      <trkpt lat="48.34752" lon="2.75498">
        <ele>135.19999694824</ele>
        <time>2022-02-10T13:34:34Z</time>
      </trkpt>
      <trkpt lat="48.34756" lon="2.75492">
        <ele>135</ele>
        <time>2022-02-10T13:34:39Z</time>
      </trkpt>
      <trkpt lat="48.34762" lon="2.75487">
        <ele>135</ele>
        <time>2022-02-10T13:34:44Z</time>
      </trkpt>
      <trkpt lat="48.34766" lon="2.75483">
        <ele>135</ele>
        <time>2022-02-10T13:34:49Z</time>
      </trkpt>
      <trkpt lat="48.34771" lon="2.75479">
        <ele>134.80000305176</ele>
        <time>2022-02-10T13:34:54Z</time>
      </trkpt>
      <trkpt lat="48.34777" lon="2.75474">
        <ele>134.60000610352</ele>
        <time>2022-02-10T13:34:59Z</time>
      </trkpt>
      <trkpt lat="48.34779" lon="2.75467">
        <ele>134.19999694824</ele>
        <time>2022-02-10T13:35:04Z</time>
      </trkpt>
      <trkpt lat="48.3478" lon="2.7546">
        <ele>134.19999694824</ele>
        <time>2022-02-10T13:35:09Z</time>
      </trkpt>
      <trkpt lat="48.34783" lon="2.75455">
        <ele>133.80000305176</ele>
        <time>2022-02-10T13:35:14Z</time>
      </trkpt>
      <trkpt lat="48.34786" lon="2.75448">
        <ele>133.60000610352</ele>
        <time>2022-02-10T13:35:19Z</time>
      </trkpt>
      <trkpt lat="48.34788" lon="2.75442">
        <ele>133.60000610352</ele>
        <time>2022-02-10T13:35:24Z</time>
      </trkpt>
      <trkpt lat="48.34788" lon="2.75437">
        <ele>133.19999694824</ele>
        <time>2022-02-10T13:35:29Z</time>
      </trkpt>
      <trkpt lat="48.34792" lon="2.75433">
        <ele>132.80000305176</ele>
        <time>2022-02-10T13:35:34Z</time>
      </trkpt>
      <trkpt lat="48.34796" lon="2.75428">
        <ele>132.39999389648</ele>
        <time>2022-02-10T13:35:39Z</time>
      </trkpt>
      <trkpt lat="48.34798" lon="2.75424">
        <ele>132</ele>
        <time>2022-02-10T13:35:44Z</time>
      </trkpt>
      <trkpt lat="48.34801" lon="2.75418">
        <ele>132</ele>
        <time>2022-02-10T13:35:49Z</time>
      </trkpt>
      <trkpt lat="48.34803" lon="2.75411">
        <ele>131.60000610352</ele>
        <time>2022-02-10T13:35:54Z</time>
      </trkpt>
      <trkpt lat="48.34804" lon="2.75404">
        <ele>131.19999694824</ele>
        <time>2022-02-10T13:35:59Z</time>
      </trkpt>
      <trkpt lat="48.34807" lon="2.754">
        <ele>130.60000610352</ele>
        <time>2022-02-10T13:36:04Z</time>
      </trkpt>
      <trkpt lat="48.34811" lon="2.75394">
        <ele>130</ele>
        <time>2022-02-10T13:36:09Z</time>
      </trkpt>
      <trkpt lat="48.34813" lon="2.75389">
        <ele>129.80000305176</ele>
        <time>2022-02-10T13:36:14Z</time>
      </trkpt>
      <trkpt lat="48.34815" lon="2.75385">
        <ele>129.60000610352</ele>
        <time>2022-02-10T13:36:19Z</time>
      </trkpt>
      <trkpt lat="48.34816" lon="2.75382">
        <ele>129</ele>
        <time>2022-02-10T13:36:24Z</time>
      </trkpt>
      <trkpt lat="48.3482" lon="2.75376">
        <ele>128</ele>
        <time>2022-02-10T13:36:29Z</time>
      </trkpt>
      <trkpt lat="48.34822" lon="2.75374">
        <ele>127.40000152588</ele>
        <time>2022-02-10T13:36:34Z</time>
      </trkpt>
      <trkpt lat="48.34822" lon="2.75371">
        <ele>126.80000305176</ele>
        <time>2022-02-10T13:36:39Z</time>
      </trkpt>
      <trkpt lat="48.34825" lon="2.75367">
        <ele>126</ele>
        <time>2022-02-10T13:36:44Z</time>
      </trkpt>
      <trkpt lat="48.34829" lon="2.75362">
        <ele>125.59999847412</ele>
        <time>2022-02-10T13:36:49Z</time>
      </trkpt>
      <trkpt lat="48.34829" lon="2.75355">
        <ele>125</ele>
        <time>2022-02-10T13:36:54Z</time>
      </trkpt>
      <trkpt lat="48.34832" lon="2.7535">
        <ele>124.40000152588</ele>
        <time>2022-02-10T13:36:59Z</time>
      </trkpt>
      <trkpt lat="48.34835" lon="2.75348">
        <ele>123.80000305176</ele>
        <time>2022-02-10T13:37:04Z</time>
      </trkpt>
      <trkpt lat="48.34837" lon="2.75347">
        <ele>123.19999694824</ele>
        <time>2022-02-10T13:37:09Z</time>
      </trkpt>
      <trkpt lat="48.34839" lon="2.75344">
        <ele>122.59999847412</ele>
        <time>2022-02-10T13:37:14Z</time>
      </trkpt>
      <trkpt lat="48.34839" lon="2.75341">
        <ele>122</ele>
        <time>2022-02-10T13:37:19Z</time>
      </trkpt>
      <trkpt lat="48.34838" lon="2.75338">
        <ele>121.59999847412</ele>
        <time>2022-02-10T13:37:24Z</time>
      </trkpt>
      <trkpt lat="48.34839" lon="2.75335">
        <ele>121</ele>
        <time>2022-02-10T13:37:29Z</time>
      </trkpt>
      <trkpt lat="48.34841" lon="2.75334">
        <ele>120.40000152588</ele>
        <time>2022-02-10T13:37:34Z</time>
      </trkpt>
      <trkpt lat="48.34843" lon="2.75325">
        <ele>119.80000305176</ele>
        <time>2022-02-10T13:37:39Z</time>
      </trkpt>
      <trkpt lat="48.34845" lon="2.75317">
        <ele>119.40000152588</ele>
        <time>2022-02-10T13:37:44Z</time>
      </trkpt>
      <trkpt lat="48.34847" lon="2.7531">
        <ele>119</ele>
        <time>2022-02-10T13:37:49Z</time>
      </trkpt>
      <trkpt lat="48.34848" lon="2.75303">
        <ele>118.40000152588</ele>
        <time>2022-02-10T13:37:54Z</time>
      </trkpt>
      <trkpt lat="48.34851" lon="2.75296">
        <ele>118</ele>
        <time>2022-02-10T13:37:59Z</time>
      </trkpt>
      <trkpt lat="48.34852" lon="2.75293">
        <ele>117.59999847412</ele>
        <time>2022-02-10T13:38:04Z</time>
      </trkpt>
      <trkpt lat="48.34853" lon="2.7529">
        <ele>117.19999694824</ele>
        <time>2022-02-10T13:38:09Z</time>
      </trkpt>
      <trkpt lat="48.34856" lon="2.75282">
        <ele>117</ele>
        <time>2022-02-10T13:38:14Z</time>
      </trkpt>
      <trkpt lat="48.34859" lon="2.75276">
        <ele>116.80000305176</ele>
        <time>2022-02-10T13:38:19Z</time>
      </trkpt>
      <trkpt lat="48.34861" lon="2.7527">
        <ele>116.40000152588</ele>
        <time>2022-02-10T13:38:24Z</time>
      </trkpt>
      <trkpt lat="48.34864" lon="2.75263">
        <ele>116</ele>
        <time>2022-02-10T13:38:29Z</time>
      </trkpt>
      <trkpt lat="48.34867" lon="2.75257">
        <ele>115.59999847412</ele>
        <time>2022-02-10T13:38:34Z</time>
      </trkpt>
      <trkpt lat="48.34871" lon="2.75252">
        <ele>115.19999694824</ele>
        <time>2022-02-10T13:38:39Z</time>
      </trkpt>
      <trkpt lat="48.34877" lon="2.75246">
        <ele>115</ele>
        <time>2022-02-10T13:38:44Z</time>
      </trkpt>
      <trkpt lat="48.34879" lon="2.75239">
        <ele>115</ele>
        <time>2022-02-10T13:38:49Z</time>
      </trkpt>
      <trkpt lat="48.34881" lon="2.75232">
        <ele>114.59999847412</ele>
        <time>2022-02-10T13:38:54Z</time>
      </trkpt>
      <trkpt lat="48.34883" lon="2.75223">
        <ele>114.19999694824</ele>
        <time>2022-02-10T13:38:59Z</time>
      </trkpt>
      <trkpt lat="48.34885" lon="2.75218">
        <ele>113.80000305176</ele>
        <time>2022-02-10T13:39:04Z</time>
      </trkpt>
      <trkpt lat="48.34889" lon="2.75213">
        <ele>114</ele>
        <time>2022-02-10T13:39:09Z</time>
      </trkpt>
      <trkpt lat="48.34889" lon="2.75206">
        <ele>114</ele>
        <time>2022-02-10T13:39:14Z</time>
      </trkpt>
      <trkpt lat="48.3489" lon="2.75199">
        <ele>113.59999847412</ele>
        <time>2022-02-10T13:39:19Z</time>
      </trkpt>
      <trkpt lat="48.34892" lon="2.75191">
        <ele>113.59999847412</ele>
        <time>2022-02-10T13:39:24Z</time>
      </trkpt>
      <trkpt lat="48.34895" lon="2.75183">
        <ele>113.40000152588</ele>
        <time>2022-02-10T13:39:29Z</time>
      </trkpt>
      <trkpt lat="48.34898" lon="2.75178">
        <ele>113.19999694824</ele>
        <time>2022-02-10T13:39:34Z</time>
      </trkpt>
      <trkpt lat="48.349" lon="2.75173">
        <ele>113</ele>
        <time>2022-02-10T13:39:39Z</time>
      </trkpt>
      <trkpt lat="48.34902" lon="2.75166">
        <ele>112.59999847412</ele>
        <time>2022-02-10T13:39:44Z</time>
      </trkpt>
      <trkpt lat="48.34904" lon="2.75159">
        <ele>112.19999694824</ele>
        <time>2022-02-10T13:39:49Z</time>
      </trkpt>
      <trkpt lat="48.34904" lon="2.7515">
        <ele>112</ele>
        <time>2022-02-10T13:39:54Z</time>
      </trkpt>
      <trkpt lat="48.34906" lon="2.75141">
        <ele>111.80000305176</ele>
        <time>2022-02-10T13:39:59Z</time>
      </trkpt>
      <trkpt lat="48.34909" lon="2.75134">
        <ele>111.59999847412</ele>
        <time>2022-02-10T13:40:04Z</time>
      </trkpt>
      <trkpt lat="48.34912" lon="2.75131">
        <ele>111.40000152588</ele>
        <time>2022-02-10T13:40:09Z</time>
      </trkpt>
      <trkpt lat="48.34914" lon="2.75129">
        <ele>111.59999847412</ele>
        <time>2022-02-10T13:40:14Z</time>
      </trkpt>
      <trkpt lat="48.34917" lon="2.75126">
        <ele>111.59999847412</ele>
        <time>2022-02-10T13:40:19Z</time>
      </trkpt>
      <trkpt lat="48.34918" lon="2.75123">
        <ele>111.40000152588</ele>
        <time>2022-02-10T13:40:24Z</time>
      </trkpt>
      <trkpt lat="48.3492" lon="2.75119">
        <ele>111.19999694824</ele>
        <time>2022-02-10T13:40:29Z</time>
      </trkpt>
      <trkpt lat="48.34922" lon="2.75112">
        <ele>111</ele>
        <time>2022-02-10T13:40:34Z</time>
      </trkpt>
      <trkpt lat="48.34924" lon="2.751">
        <ele>111</ele>
        <time>2022-02-10T13:40:39Z</time>
      </trkpt>
      <trkpt lat="48.34926" lon="2.75092">
        <ele>110.80000305176</ele>
        <time>2022-02-10T13:40:44Z</time>
      </trkpt>
      <trkpt lat="48.34929" lon="2.75086">
        <ele>110.80000305176</ele>
        <time>2022-02-10T13:40:49Z</time>
      </trkpt>
      <trkpt lat="48.34932" lon="2.7508">
        <ele>110.40000152588</ele>
        <time>2022-02-10T13:40:54Z</time>
      </trkpt>
      <trkpt lat="48.34935" lon="2.75072">
        <ele>110.19999694824</ele>
        <time>2022-02-10T13:40:59Z</time>
      </trkpt>
      <trkpt lat="48.34937" lon="2.75064">
        <ele>110.19999694824</ele>
        <time>2022-02-10T13:41:04Z</time>
      </trkpt>
      <trkpt lat="48.34941" lon="2.75058">
        <ele>110.19999694824</ele>
        <time>2022-02-10T13:41:09Z</time>
      </trkpt>
      <trkpt lat="48.34943" lon="2.75052">
        <ele>110.40000152588</ele>
        <time>2022-02-10T13:41:14Z</time>
      </trkpt>
      <trkpt lat="48.34945" lon="2.75044">
        <ele>110.19999694824</ele>
        <time>2022-02-10T13:41:19Z</time>
      </trkpt>
      <trkpt lat="48.34947" lon="2.75037">
        <ele>110.40000152588</ele>
        <time>2022-02-10T13:41:24Z</time>
      </trkpt>
      <trkpt lat="48.34949" lon="2.75032">
        <ele>110.40000152588</ele>
        <time>2022-02-10T13:41:29Z</time>
      </trkpt>
      <trkpt lat="48.3495" lon="2.7503">
        <ele>110.40000152588</ele>
        <time>2022-02-10T13:41:34Z</time>
      </trkpt>
      <trkpt lat="48.34951" lon="2.75022">
        <ele>110.59999847412</ele>
        <time>2022-02-10T13:41:39Z</time>
      </trkpt>
      <trkpt lat="48.34952" lon="2.75014">
        <ele>110.59999847412</ele>
        <time>2022-02-10T13:41:44Z</time>
      </trkpt>
      <trkpt lat="48.34954" lon="2.75007">
        <ele>110.80000305176</ele>
        <time>2022-02-10T13:41:49Z</time>
      </trkpt>
      <trkpt lat="48.34957" lon="2.75">
        <ele>111.19999694824</ele>
        <time>2022-02-10T13:41:54Z</time>
      </trkpt>
      <trkpt lat="48.34962" lon="2.74994">
        <ele>111.59999847412</ele>
        <time>2022-02-10T13:41:59Z</time>
      </trkpt>
      <trkpt lat="48.34965" lon="2.74988">
        <ele>111.80000305176</ele>
        <time>2022-02-10T13:42:04Z</time>
      </trkpt>
      <trkpt lat="48.34969" lon="2.74981">
        <ele>112</ele>
        <time>2022-02-10T13:42:09Z</time>
      </trkpt>
      <trkpt lat="48.34972" lon="2.74974">
        <ele>112.19999694824</ele>
        <time>2022-02-10T13:42:14Z</time>
      </trkpt>
      <trkpt lat="48.34975" lon="2.74968">
        <ele>112.40000152588</ele>
        <time>2022-02-10T13:42:19Z</time>
      </trkpt>
      <trkpt lat="48.34979" lon="2.74961">
        <ele>112.40000152588</ele>
        <time>2022-02-10T13:42:24Z</time>
      </trkpt>
      <trkpt lat="48.34984" lon="2.74952">
        <ele>112.59999847412</ele>
        <time>2022-02-10T13:42:29Z</time>
      </trkpt>
      <trkpt lat="48.34985" lon="2.74946">
        <ele>112.59999847412</ele>
        <time>2022-02-10T13:42:34Z</time>
      </trkpt>
      <trkpt lat="48.34986" lon="2.7494">
        <ele>112.40000152588</ele>
        <time>2022-02-10T13:42:39Z</time>
      </trkpt>
      <trkpt lat="48.34988" lon="2.74932">
        <ele>112.59999847412</ele>
        <time>2022-02-10T13:42:44Z</time>
      </trkpt>
      <trkpt lat="48.34991" lon="2.74926">
        <ele>112.19999694824</ele>
        <time>2022-02-10T13:42:49Z</time>
      </trkpt>
      <trkpt lat="48.34994" lon="2.74921">
        <ele>112.19999694824</ele>
        <time>2022-02-10T13:42:54Z</time>
      </trkpt>
      <trkpt lat="48.34996" lon="2.74915">
        <ele>112.19999694824</ele>
        <time>2022-02-10T13:42:59Z</time>
      </trkpt>
      <trkpt lat="48.34998" lon="2.74909">
        <ele>112.19999694824</ele>
        <time>2022-02-10T13:43:04Z</time>
      </trkpt>
      <trkpt lat="48.35001" lon="2.74901">
        <ele>112.40000152588</ele>
        <time>2022-02-10T13:43:09Z</time>
      </trkpt>
      <trkpt lat="48.35005" lon="2.74895">
        <ele>112.40000152588</ele>
        <time>2022-02-10T13:43:14Z</time>
      </trkpt>
      <trkpt lat="48.35006" lon="2.74889">
        <ele>112.59999847412</ele>
        <time>2022-02-10T13:43:19Z</time>
      </trkpt>
      <trkpt lat="48.35008" lon="2.74887">
        <ele>112.59999847412</ele>
        <time>2022-02-10T13:43:24Z</time>
      </trkpt>
      <trkpt lat="48.35009" lon="2.74883">
        <ele>112.40000152588</ele>
        <time>2022-02-10T13:43:29Z</time>
      </trkpt>
      <trkpt lat="48.35012" lon="2.74875">
        <ele>112.40000152588</ele>
        <time>2022-02-10T13:43:34Z</time>
      </trkpt>
      <trkpt lat="48.35015" lon="2.74868">
        <ele>112.59999847412</ele>
        <time>2022-02-10T13:43:39Z</time>
      </trkpt>
      <trkpt lat="48.35016" lon="2.74861">
        <ele>112.59999847412</ele>
        <time>2022-02-10T13:43:44Z</time>
      </trkpt>
      <trkpt lat="48.35015" lon="2.74853">
        <ele>112.59999847412</ele>
        <time>2022-02-10T13:43:49Z</time>
      </trkpt>
      <trkpt lat="48.35016" lon="2.74843">
        <ele>112.80000305176</ele>
        <time>2022-02-10T13:43:54Z</time>
      </trkpt>
      <trkpt lat="48.35018" lon="2.74834">
        <ele>113.19999694824</ele>
        <time>2022-02-10T13:43:59Z</time>
      </trkpt>
      <trkpt lat="48.35019" lon="2.74827">
        <ele>113.40000152588</ele>
        <time>2022-02-10T13:44:04Z</time>
      </trkpt>
      <trkpt lat="48.3502" lon="2.74821">
        <ele>113.40000152588</ele>
        <time>2022-02-10T13:44:09Z</time>
      </trkpt>
      <trkpt lat="48.35025" lon="2.74818">
        <ele>113.59999847412</ele>
        <time>2022-02-10T13:44:14Z</time>
      </trkpt>
      <trkpt lat="48.35031" lon="2.74814">
        <ele>113.40000152588</ele>
        <time>2022-02-10T13:44:19Z</time>
      </trkpt>
      <trkpt lat="48.35036" lon="2.74811">
        <ele>113.59999847412</ele>
        <time>2022-02-10T13:44:24Z</time>
      </trkpt>
      <trkpt lat="48.3504" lon="2.74808">
        <ele>113.80000305176</ele>
        <time>2022-02-10T13:44:29Z</time>
      </trkpt>
      <trkpt lat="48.35043" lon="2.74806">
        <ele>113.80000305176</ele>
        <time>2022-02-10T13:44:34Z</time>
      </trkpt>
      <trkpt lat="48.35044" lon="2.74801">
        <ele>114</ele>
        <time>2022-02-10T13:44:39Z</time>
      </trkpt>
      <trkpt lat="48.35048" lon="2.74798">
        <ele>114</ele>
        <time>2022-02-10T13:44:44Z</time>
      </trkpt>
      <trkpt lat="48.35053" lon="2.74796">
        <ele>114</ele>
        <time>2022-02-10T13:44:49Z</time>
      </trkpt>
      <trkpt lat="48.35058" lon="2.74793">
        <ele>113.80000305176</ele>
        <time>2022-02-10T13:44:54Z</time>
      </trkpt>
      <trkpt lat="48.35063" lon="2.74791">
        <ele>114</ele>
        <time>2022-02-10T13:44:59Z</time>
      </trkpt>
      <trkpt lat="48.35067" lon="2.74789">
        <ele>113.80000305176</ele>
        <time>2022-02-10T13:45:04Z</time>
      </trkpt>
      <trkpt lat="48.35073" lon="2.74787">
        <ele>113.80000305176</ele>
        <time>2022-02-10T13:45:09Z</time>
      </trkpt>
      <trkpt lat="48.35079" lon="2.74786">
        <ele>114</ele>
        <time>2022-02-10T13:45:14Z</time>
      </trkpt>
      <trkpt lat="48.35084" lon="2.74785">
        <ele>114</ele>
        <time>2022-02-10T13:45:19Z</time>
      </trkpt>
      <trkpt lat="48.35087" lon="2.74783">
        <ele>114.19999694824</ele>
        <time>2022-02-10T13:45:24Z</time>
      </trkpt>
      <trkpt lat="48.35091" lon="2.74781">
        <ele>114</ele>
        <time>2022-02-10T13:45:29Z</time>
      </trkpt>
      <trkpt lat="48.35095" lon="2.7478">
        <ele>114.19999694824</ele>
        <time>2022-02-10T13:45:34Z</time>
      </trkpt>
      <trkpt lat="48.35101" lon="2.7478">
        <ele>114.19999694824</ele>
        <time>2022-02-10T13:45:39Z</time>
      </trkpt>
      <trkpt lat="48.35107" lon="2.74778">
        <ele>114.40000152588</ele>
        <time>2022-02-10T13:45:44Z</time>
      </trkpt>
      <trkpt lat="48.35113" lon="2.74775">
        <ele>114.40000152588</ele>
        <time>2022-02-10T13:45:49Z</time>
      </trkpt>
      <trkpt lat="48.35118" lon="2.74772">
        <ele>114.59999847412</ele>
        <time>2022-02-10T13:45:54Z</time>
      </trkpt>
      <trkpt lat="48.35121" lon="2.74767">
        <ele>114.59999847412</ele>
        <time>2022-02-10T13:45:59Z</time>
      </trkpt>
      <trkpt lat="48.35128" lon="2.74764">
        <ele>114.59999847412</ele>
        <time>2022-02-10T13:46:04Z</time>
      </trkpt>
      <trkpt lat="48.35133" lon="2.74762">
        <ele>114.80000305176</ele>
        <time>2022-02-10T13:46:09Z</time>
      </trkpt>
      <trkpt lat="48.35135" lon="2.74757">
        <ele>114.80000305176</ele>
        <time>2022-02-10T13:46:14Z</time>
      </trkpt>
      <trkpt lat="48.35139" lon="2.74755">
        <ele>114.80000305176</ele>
        <time>2022-02-10T13:46:19Z</time>
      </trkpt>
      <trkpt lat="48.35142" lon="2.74753">
        <ele>114.80000305176</ele>
        <time>2022-02-10T13:46:24Z</time>
      </trkpt>
      <trkpt lat="48.35147" lon="2.7475">
        <ele>114.80000305176</ele>
        <time>2022-02-10T13:46:29Z</time>
      </trkpt>
      <trkpt lat="48.35151" lon="2.74749">
        <ele>115</ele>
        <time>2022-02-10T13:46:34Z</time>
      </trkpt>
      <trkpt lat="48.35155" lon="2.74747">
        <ele>115</ele>
        <time>2022-02-10T13:46:39Z</time>
      </trkpt>
      <trkpt lat="48.3516" lon="2.74745">
        <ele>115.19999694824</ele>
        <time>2022-02-10T13:46:44Z</time>
      </trkpt>
      <trkpt lat="48.35164" lon="2.74745">
        <ele>115.40000152588</ele>
        <time>2022-02-10T13:46:49Z</time>
      </trkpt>
      <trkpt lat="48.35169" lon="2.74742">
        <ele>115.40000152588</ele>
        <time>2022-02-10T13:46:54Z</time>
      </trkpt>
      <trkpt lat="48.35176" lon="2.7474">
        <ele>115.59999847412</ele>
        <time>2022-02-10T13:46:59Z</time>
      </trkpt>
      <trkpt lat="48.35179" lon="2.74738">
        <ele>115.59999847412</ele>
        <time>2022-02-10T13:47:04Z</time>
      </trkpt>
      <trkpt lat="48.3518" lon="2.74734">
        <ele>115.59999847412</ele>
        <time>2022-02-10T13:47:09Z</time>
      </trkpt>
      <trkpt lat="48.35183" lon="2.74728">
        <ele>115.80000305176</ele>
        <time>2022-02-10T13:47:14Z</time>
      </trkpt>
      <trkpt lat="48.35186" lon="2.74724">
        <ele>115.80000305176</ele>
        <time>2022-02-10T13:47:19Z</time>
      </trkpt>
      <trkpt lat="48.35191" lon="2.74721">
        <ele>116</ele>
        <time>2022-02-10T13:47:24Z</time>
      </trkpt>
      <trkpt lat="48.35196" lon="2.74715">
        <ele>116</ele>
        <time>2022-02-10T13:47:29Z</time>
      </trkpt>
      <trkpt lat="48.35203" lon="2.74712">
        <ele>116.19999694824</ele>
        <time>2022-02-10T13:47:34Z</time>
      </trkpt>
      <trkpt lat="48.35207" lon="2.74708">
        <ele>116.40000152588</ele>
        <time>2022-02-10T13:47:39Z</time>
      </trkpt>
      <trkpt lat="48.35211" lon="2.74705">
        <ele>116.59999847412</ele>
        <time>2022-02-10T13:47:44Z</time>
      </trkpt>
      <trkpt lat="48.35218" lon="2.74702">
        <ele>116.59999847412</ele>
        <time>2022-02-10T13:47:49Z</time>
      </trkpt>
      <trkpt lat="48.35225" lon="2.74697">
        <ele>116.80000305176</ele>
        <time>2022-02-10T13:47:54Z</time>
      </trkpt>
      <trkpt lat="48.35231" lon="2.74692">
        <ele>117.19999694824</ele>
        <time>2022-02-10T13:47:59Z</time>
      </trkpt>
      <trkpt lat="48.35235" lon="2.74688">
        <ele>117.40000152588</ele>
        <time>2022-02-10T13:48:04Z</time>
      </trkpt>
      <trkpt lat="48.3524" lon="2.74686">
        <ele>117.59999847412</ele>
        <time>2022-02-10T13:48:09Z</time>
      </trkpt>
      <trkpt lat="48.35245" lon="2.74682">
        <ele>117.80000305176</ele>
        <time>2022-02-10T13:48:14Z</time>
      </trkpt>
      <trkpt lat="48.35249" lon="2.74678">
        <ele>117.80000305176</ele>
        <time>2022-02-10T13:48:19Z</time>
      </trkpt>
      <trkpt lat="48.35256" lon="2.74676">
        <ele>118</ele>
        <time>2022-02-10T13:48:24Z</time>
      </trkpt>
      <trkpt lat="48.3526" lon="2.74672">
        <ele>118.19999694824</ele>
        <time>2022-02-10T13:48:29Z</time>
      </trkpt>
      <trkpt lat="48.35264" lon="2.74668">
        <ele>118.40000152588</ele>
        <time>2022-02-10T13:48:34Z</time>
      </trkpt>
      <trkpt lat="48.35268" lon="2.74664">
        <ele>118.59999847412</ele>
        <time>2022-02-10T13:48:39Z</time>
      </trkpt>
      <trkpt lat="48.35272" lon="2.74659">
        <ele>118.80000305176</ele>
        <time>2022-02-10T13:48:44Z</time>
      </trkpt>
      <trkpt lat="48.35273" lon="2.74654">
        <ele>119</ele>
        <time>2022-02-10T13:48:49Z</time>
      </trkpt>
      <trkpt lat="48.35276" lon="2.7465">
        <ele>119.40000152588</ele>
        <time>2022-02-10T13:48:54Z</time>
      </trkpt>
      <trkpt lat="48.35282" lon="2.74645">
        <ele>119.59999847412</ele>
        <time>2022-02-10T13:48:59Z</time>
      </trkpt>
      <trkpt lat="48.35286" lon="2.7464">
        <ele>119.80000305176</ele>
        <time>2022-02-10T13:49:04Z</time>
      </trkpt>
      <trkpt lat="48.3529" lon="2.74635">
        <ele>120</ele>
        <time>2022-02-10T13:49:09Z</time>
      </trkpt>
      <trkpt lat="48.35295" lon="2.74629">
        <ele>120.19999694824</ele>
        <time>2022-02-10T13:49:14Z</time>
      </trkpt>
      <trkpt lat="48.35298" lon="2.74623">
        <ele>120.59999847412</ele>
        <time>2022-02-10T13:49:19Z</time>
      </trkpt>
      <trkpt lat="48.35301" lon="2.74616">
        <ele>120.80000305176</ele>
        <time>2022-02-10T13:49:24Z</time>
      </trkpt>
      <trkpt lat="48.35305" lon="2.74612">
        <ele>121</ele>
        <time>2022-02-10T13:49:29Z</time>
      </trkpt>
      <trkpt lat="48.35308" lon="2.74608">
        <ele>121.40000152588</ele>
        <time>2022-02-10T13:49:34Z</time>
      </trkpt>
      <trkpt lat="48.3531" lon="2.74605">
        <ele>121.80000305176</ele>
        <time>2022-02-10T13:49:39Z</time>
      </trkpt>
      <trkpt lat="48.35312" lon="2.74597">
        <ele>122</ele>
        <time>2022-02-10T13:49:44Z</time>
      </trkpt>
      <trkpt lat="48.35314" lon="2.7459">
        <ele>122.19999694824</ele>
        <time>2022-02-10T13:49:49Z</time>
      </trkpt>
      <trkpt lat="48.35316" lon="2.74583">
        <ele>122.19999694824</ele>
        <time>2022-02-10T13:49:54Z</time>
      </trkpt>
      <trkpt lat="48.35317" lon="2.74574">
        <ele>122.40000152588</ele>
        <time>2022-02-10T13:49:59Z</time>
      </trkpt>
      <trkpt lat="48.3532" lon="2.74568">
        <ele>122.80000305176</ele>
        <time>2022-02-10T13:50:04Z</time>
      </trkpt>
      <trkpt lat="48.35323" lon="2.74562">
        <ele>122.80000305176</ele>
        <time>2022-02-10T13:50:09Z</time>
      </trkpt>
      <trkpt lat="48.35325" lon="2.74555">
        <ele>123</ele>
        <time>2022-02-10T13:50:14Z</time>
      </trkpt>
      <trkpt lat="48.35326" lon="2.74547">
        <ele>123.19999694824</ele>
        <time>2022-02-10T13:50:19Z</time>
      </trkpt>
      <trkpt lat="48.35324" lon="2.74538">
        <ele>123.80000305176</ele>
        <time>2022-02-10T13:50:24Z</time>
      </trkpt>
      <trkpt lat="48.35323" lon="2.74531">
        <ele>124</ele>
        <time>2022-02-10T13:50:29Z</time>
      </trkpt>
      <trkpt lat="48.35324" lon="2.74525">
        <ele>123.80000305176</ele>
        <time>2022-02-10T13:50:34Z</time>
      </trkpt>
      <trkpt lat="48.35327" lon="2.74519">
        <ele>124.40000152588</ele>
        <time>2022-02-10T13:50:39Z</time>
      </trkpt>
      <trkpt lat="48.3533" lon="2.74513">
        <ele>124.59999847412</ele>
        <time>2022-02-10T13:50:44Z</time>
      </trkpt>
      <trkpt lat="48.35333" lon="2.74508">
        <ele>124.80000305176</ele>
        <time>2022-02-10T13:50:49Z</time>
      </trkpt>
      <trkpt lat="48.35337" lon="2.745">
        <ele>124.80000305176</ele>
        <time>2022-02-10T13:50:54Z</time>
      </trkpt>
      <trkpt lat="48.35341" lon="2.7449">
        <ele>125</ele>
        <time>2022-02-10T13:50:59Z</time>
      </trkpt>
      <trkpt lat="48.35342" lon="2.74483">
        <ele>125.19999694824</ele>
        <time>2022-02-10T13:51:04Z</time>
      </trkpt>
      <trkpt lat="48.35342" lon="2.74476">
        <ele>125.40000152588</ele>
        <time>2022-02-10T13:51:09Z</time>
      </trkpt>
      <trkpt lat="48.35341" lon="2.74469">
        <ele>125.59999847412</ele>
        <time>2022-02-10T13:51:14Z</time>
      </trkpt>
      <trkpt lat="48.35343" lon="2.74462">
        <ele>125.59999847412</ele>
        <time>2022-02-10T13:51:19Z</time>
      </trkpt>
      <trkpt lat="48.35345" lon="2.74455">
        <ele>125.80000305176</ele>
        <time>2022-02-10T13:51:24Z</time>
      </trkpt>
      <trkpt lat="48.35347" lon="2.74448">
        <ele>126</ele>
        <time>2022-02-10T13:51:29Z</time>
      </trkpt>
      <trkpt lat="48.3535" lon="2.74441">
        <ele>126.19999694824</ele>
        <time>2022-02-10T13:51:34Z</time>
      </trkpt>
      <trkpt lat="48.35352" lon="2.74435">
        <ele>126.19999694824</ele>
        <time>2022-02-10T13:51:39Z</time>
      </trkpt>
      <trkpt lat="48.35355" lon="2.74431">
        <ele>126.19999694824</ele>
        <time>2022-02-10T13:51:44Z</time>
      </trkpt>
      <trkpt lat="48.35357" lon="2.74425">
        <ele>126.19999694824</ele>
        <time>2022-02-10T13:51:49Z</time>
      </trkpt>
      <trkpt lat="48.35359" lon="2.74417">
        <ele>126.40000152588</ele>
        <time>2022-02-10T13:51:54Z</time>
      </trkpt>
      <trkpt lat="48.35362" lon="2.74409">
        <ele>126.59999847412</ele>
        <time>2022-02-10T13:51:59Z</time>
      </trkpt>
      <trkpt lat="48.35363" lon="2.74402">
        <ele>126.80000305176</ele>
        <time>2022-02-10T13:52:04Z</time>
      </trkpt>
      <trkpt lat="48.35365" lon="2.74395">
        <ele>127</ele>
        <time>2022-02-10T13:52:09Z</time>
      </trkpt>
      <trkpt lat="48.35367" lon="2.74389">
        <ele>127.19999694824</ele>
        <time>2022-02-10T13:52:14Z</time>
      </trkpt>
      <trkpt lat="48.35366" lon="2.74384">
        <ele>127.40000152588</ele>
        <time>2022-02-10T13:52:19Z</time>
      </trkpt>
      <trkpt lat="48.35367" lon="2.74385">
        <ele>127.19999694824</ele>
        <time>2022-02-10T13:52:24Z</time>
      </trkpt>
      <trkpt lat="48.35367" lon="2.74385">
        <ele>127.19999694824</ele>
        <time>2022-02-10T13:52:29Z</time>
      </trkpt>
      <trkpt lat="48.35369" lon="2.74384">
        <ele>127.19999694824</ele>
        <time>2022-02-10T13:52:34Z</time>
      </trkpt>
      <trkpt lat="48.35369" lon="2.74383">
        <ele>127.19999694824</ele>
        <time>2022-02-10T13:52:39Z</time>
      </trkpt>
      <trkpt lat="48.35369" lon="2.74383">
        <ele>127.19999694824</ele>
        <time>2022-02-10T13:52:44Z</time>
      </trkpt>
      <trkpt lat="48.3537" lon="2.74383">
        <ele>127.40000152588</ele>
        <time>2022-02-10T13:52:49Z</time>
      </trkpt>
      <trkpt lat="48.3537" lon="2.74384">
        <ele>127.19999694824</ele>
        <time>2022-02-10T13:52:54Z</time>
      </trkpt>
      <trkpt lat="48.35369" lon="2.74384">
        <ele>127.19999694824</ele>
        <time>2022-02-10T13:52:59Z</time>
      </trkpt>
      <trkpt lat="48.35369" lon="2.74383">
        <ele>127.19999694824</ele>
        <time>2022-02-10T13:53:04Z</time>
      </trkpt>
      <trkpt lat="48.35368" lon="2.74384">
        <ele>127.40000152588</ele>
        <time>2022-02-10T13:53:09Z</time>
      </trkpt>
      <trkpt lat="48.35367" lon="2.74384">
        <ele>127.40000152588</ele>
        <time>2022-02-10T13:53:14Z</time>
      </trkpt>
      <trkpt lat="48.35366" lon="2.74383">
        <ele>127.40000152588</ele>
        <time>2022-02-10T13:53:19Z</time>
      </trkpt>
      <trkpt lat="48.35366" lon="2.74384">
        <ele>127.19999694824</ele>
        <time>2022-02-10T13:53:24Z</time>
      </trkpt>
      <trkpt lat="48.35366" lon="2.74383">
        <ele>127.19999694824</ele>
        <time>2022-02-10T13:53:29Z</time>
      </trkpt>
      <trkpt lat="48.35368" lon="2.74381">
        <ele>127.19999694824</ele>
        <time>2022-02-10T13:53:34Z</time>
      </trkpt>
      <trkpt lat="48.35369" lon="2.7438">
        <ele>127.19999694824</ele>
        <time>2022-02-10T13:53:39Z</time>
      </trkpt>
      <trkpt lat="48.3537" lon="2.7438">
        <ele>127.19999694824</ele>
        <time>2022-02-10T13:53:44Z</time>
      </trkpt>
      <trkpt lat="48.3537" lon="2.74379">
        <ele>127.19999694824</ele>
        <time>2022-02-10T13:53:49Z</time>
      </trkpt>
      <trkpt lat="48.35366" lon="2.74377">
        <ele>127.19999694824</ele>
        <time>2022-02-10T13:53:54Z</time>
      </trkpt>
      <trkpt lat="48.35364" lon="2.74374">
        <ele>127.19999694824</ele>
        <time>2022-02-10T13:53:59Z</time>
      </trkpt>
      <trkpt lat="48.35363" lon="2.74375">
        <ele>127.19999694824</ele>
        <time>2022-02-10T13:54:04Z</time>
      </trkpt>
      <trkpt lat="48.35365" lon="2.74377">
        <ele>127.40000152588</ele>
        <time>2022-02-10T13:54:09Z</time>
      </trkpt>
      <trkpt lat="48.35365" lon="2.74376">
        <ele>127.40000152588</ele>
        <time>2022-02-10T13:54:14Z</time>
      </trkpt>
      <trkpt lat="48.35367" lon="2.74374">
        <ele>127.40000152588</ele>
        <time>2022-02-10T13:54:19Z</time>
      </trkpt>
      <trkpt lat="48.35371" lon="2.74371">
        <ele>127.40000152588</ele>
        <time>2022-02-10T13:54:24Z</time>
      </trkpt>
      <trkpt lat="48.35373" lon="2.7437">
        <ele>127.40000152588</ele>
        <time>2022-02-10T13:54:29Z</time>
      </trkpt>
      <trkpt lat="48.35375" lon="2.74368">
        <ele>127.40000152588</ele>
        <time>2022-02-10T13:54:34Z</time>
      </trkpt>
      <trkpt lat="48.35377" lon="2.74369">
        <ele>127.40000152588</ele>
        <time>2022-02-10T13:54:39Z</time>
      </trkpt>
      <trkpt lat="48.35378" lon="2.74374">
        <ele>127.59999847412</ele>
        <time>2022-02-10T13:54:44Z</time>
      </trkpt>
      <trkpt lat="48.35376" lon="2.74378">
        <ele>127.59999847412</ele>
        <time>2022-02-10T13:54:49Z</time>
      </trkpt>
      <trkpt lat="48.35374" lon="2.74379">
        <ele>127.59999847412</ele>
        <time>2022-02-10T13:54:54Z</time>
      </trkpt>
      <trkpt lat="48.35374" lon="2.74379">
        <ele>127.59999847412</ele>
        <time>2022-02-10T13:54:59Z</time>
      </trkpt>
      <trkpt lat="48.35377" lon="2.7438">
        <ele>127.40000152588</ele>
        <time>2022-02-10T13:55:04Z</time>
      </trkpt>
      <trkpt lat="48.35376" lon="2.74381">
        <ele>127.40000152588</ele>
        <time>2022-02-10T13:55:09Z</time>
      </trkpt>
      <trkpt lat="48.35376" lon="2.74383">
        <ele>127.40000152588</ele>
        <time>2022-02-10T13:55:14Z</time>
      </trkpt>
      <trkpt lat="48.35375" lon="2.74384">
        <ele>127.40000152588</ele>
        <time>2022-02-10T13:55:19Z</time>
      </trkpt>
      <trkpt lat="48.35373" lon="2.74384">
        <ele>127.59999847412</ele>
        <time>2022-02-10T13:55:24Z</time>
      </trkpt>
      <trkpt lat="48.35372" lon="2.74384">
        <ele>127.59999847412</ele>
        <time>2022-02-10T13:55:29Z</time>
      </trkpt>
      <trkpt lat="48.35371" lon="2.74386">
        <ele>127.80000305176</ele>
        <time>2022-02-10T13:55:34Z</time>
      </trkpt>
      <trkpt lat="48.35369" lon="2.74386">
        <ele>127.80000305176</ele>
        <time>2022-02-10T13:55:39Z</time>
      </trkpt>
      <trkpt lat="48.35368" lon="2.74386">
        <ele>127.80000305176</ele>
        <time>2022-02-10T13:55:44Z</time>
      </trkpt>
      <trkpt lat="48.35366" lon="2.74386">
        <ele>127.80000305176</ele>
        <time>2022-02-10T13:55:49Z</time>
      </trkpt>
      <trkpt lat="48.35366" lon="2.74385">
        <ele>127.80000305176</ele>
        <time>2022-02-10T13:55:54Z</time>
      </trkpt>
      <trkpt lat="48.35367" lon="2.74383">
        <ele>128</ele>
        <time>2022-02-10T13:55:59Z</time>
      </trkpt>
      <trkpt lat="48.35367" lon="2.74383">
        <ele>127.80000305176</ele>
        <time>2022-02-10T13:56:04Z</time>
      </trkpt>
      <trkpt lat="48.35369" lon="2.74383">
        <ele>127.80000305176</ele>
        <time>2022-02-10T13:56:09Z</time>
      </trkpt>
      <trkpt lat="48.35368" lon="2.74383">
        <ele>127.80000305176</ele>
        <time>2022-02-10T13:56:14Z</time>
      </trkpt>
      <trkpt lat="48.35369" lon="2.74382">
        <ele>127.80000305176</ele>
        <time>2022-02-10T13:56:19Z</time>
      </trkpt>
      <trkpt lat="48.35369" lon="2.74382">
        <ele>127.80000305176</ele>
        <time>2022-02-10T13:56:24Z</time>
      </trkpt>
      <trkpt lat="48.35369" lon="2.7438">
        <ele>127.80000305176</ele>
        <time>2022-02-10T13:56:29Z</time>
      </trkpt>
      <trkpt lat="48.35368" lon="2.74379">
        <ele>127.80000305176</ele>
        <time>2022-02-10T13:56:34Z</time>
      </trkpt>
      <trkpt lat="48.35367" lon="2.74378">
        <ele>127.80000305176</ele>
        <time>2022-02-10T13:56:39Z</time>
      </trkpt>
      <trkpt lat="48.35366" lon="2.74377">
        <ele>127.80000305176</ele>
        <time>2022-02-10T13:56:44Z</time>
      </trkpt>
      <trkpt lat="48.35366" lon="2.74377">
        <ele>127.80000305176</ele>
        <time>2022-02-10T13:56:49Z</time>
      </trkpt>
      <trkpt lat="48.35369" lon="2.7438">
        <ele>127.80000305176</ele>
        <time>2022-02-10T13:56:54Z</time>
      </trkpt>
      <trkpt lat="48.35372" lon="2.74381">
        <ele>127.80000305176</ele>
        <time>2022-02-10T13:56:59Z</time>
      </trkpt>
      <trkpt lat="48.35376" lon="2.7438">
        <ele>127.80000305176</ele>
        <time>2022-02-10T13:57:04Z</time>
      </trkpt>
      <trkpt lat="48.35376" lon="2.74378">
        <ele>127.80000305176</ele>
        <time>2022-02-10T13:57:09Z</time>
      </trkpt>
      <trkpt lat="48.35374" lon="2.74377">
        <ele>127.80000305176</ele>
        <time>2022-02-10T13:57:14Z</time>
      </trkpt>
      <trkpt lat="48.35373" lon="2.74377">
        <ele>127.80000305176</ele>
        <time>2022-02-10T13:57:19Z</time>
      </trkpt>
      <trkpt lat="48.35371" lon="2.74377">
        <ele>127.80000305176</ele>
        <time>2022-02-10T13:57:24Z</time>
      </trkpt>
      <trkpt lat="48.3537" lon="2.74377">
        <ele>127.80000305176</ele>
        <time>2022-02-10T13:57:29Z</time>
      </trkpt>
      <trkpt lat="48.35369" lon="2.74378">
        <ele>127.80000305176</ele>
        <time>2022-02-10T13:57:34Z</time>
      </trkpt>
      <trkpt lat="48.35371" lon="2.74378">
        <ele>127.80000305176</ele>
        <time>2022-02-10T13:57:39Z</time>
      </trkpt>
      <trkpt lat="48.35372" lon="2.74377">
        <ele>127.80000305176</ele>
        <time>2022-02-10T13:57:44Z</time>
      </trkpt>
      <trkpt lat="48.35373" lon="2.74377">
        <ele>127.80000305176</ele>
        <time>2022-02-10T13:57:49Z</time>
      </trkpt>
      <trkpt lat="48.35373" lon="2.74378">
        <ele>127.80000305176</ele>
        <time>2022-02-10T13:57:54Z</time>
      </trkpt>
      <trkpt lat="48.35373" lon="2.74378">
        <ele>127.80000305176</ele>
        <time>2022-02-10T13:57:59Z</time>
      </trkpt>
      <trkpt lat="48.35372" lon="2.74379">
        <ele>127.80000305176</ele>
        <time>2022-02-10T13:58:04Z</time>
      </trkpt>
      <trkpt lat="48.35371" lon="2.74376">
        <ele>127.80000305176</ele>
        <time>2022-02-10T13:58:09Z</time>
      </trkpt>
      <trkpt lat="48.3537" lon="2.74371">
        <ele>127.80000305176</ele>
        <time>2022-02-10T13:58:14Z</time>
      </trkpt>
      <trkpt lat="48.35372" lon="2.74365">
        <ele>127.80000305176</ele>
        <time>2022-02-10T13:58:19Z</time>
      </trkpt>
      <trkpt lat="48.35374" lon="2.74359">
        <ele>127.80000305176</ele>
        <time>2022-02-10T13:58:24Z</time>
      </trkpt>
      <trkpt lat="48.35378" lon="2.74354">
        <ele>128.39999389648</ele>
        <time>2022-02-10T13:58:29Z</time>
      </trkpt>
      <trkpt lat="48.35382" lon="2.7435">
        <ele>128.80000305176</ele>
        <time>2022-02-10T13:58:34Z</time>
      </trkpt>
      <trkpt lat="48.35384" lon="2.74344">
        <ele>129</ele>
        <time>2022-02-10T13:58:39Z</time>
      </trkpt>
      <trkpt lat="48.35385" lon="2.74335">
        <ele>129</ele>
        <time>2022-02-10T13:58:44Z</time>
      </trkpt>
      <trkpt lat="48.35388" lon="2.74328">
        <ele>129.39999389648</ele>
        <time>2022-02-10T13:58:49Z</time>
      </trkpt>
      <trkpt lat="48.35389" lon="2.74321">
        <ele>129.80000305176</ele>
        <time>2022-02-10T13:58:54Z</time>
      </trkpt>
      <trkpt lat="48.35391" lon="2.74315">
        <ele>129.60000610352</ele>
        <time>2022-02-10T13:58:59Z</time>
      </trkpt>
      <trkpt lat="48.35393" lon="2.74309">
        <ele>129.60000610352</ele>
        <time>2022-02-10T13:59:04Z</time>
      </trkpt>
      <trkpt lat="48.35394" lon="2.74301">
        <ele>129.60000610352</ele>
        <time>2022-02-10T13:59:09Z</time>
      </trkpt>
      <trkpt lat="48.35396" lon="2.74295">
        <ele>129.80000305176</ele>
        <time>2022-02-10T13:59:14Z</time>
      </trkpt>
      <trkpt lat="48.35397" lon="2.74287">
        <ele>129.80000305176</ele>
        <time>2022-02-10T13:59:19Z</time>
      </trkpt>
      <trkpt lat="48.35397" lon="2.74279">
        <ele>129.60000610352</ele>
        <time>2022-02-10T13:59:24Z</time>
      </trkpt>
      <trkpt lat="48.35398" lon="2.7427">
        <ele>129.60000610352</ele>
        <time>2022-02-10T13:59:29Z</time>
      </trkpt>
      <trkpt lat="48.35399" lon="2.74264">
        <ele>129.80000305176</ele>
        <time>2022-02-10T13:59:34Z</time>
      </trkpt>
      <trkpt lat="48.35399" lon="2.74257">
        <ele>130.19999694824</ele>
        <time>2022-02-10T13:59:39Z</time>
      </trkpt>
      <trkpt lat="48.35399" lon="2.74248">
        <ele>130.39999389648</ele>
        <time>2022-02-10T13:59:44Z</time>
      </trkpt>
      <trkpt lat="48.35399" lon="2.7424">
        <ele>130.60000610352</ele>
        <time>2022-02-10T13:59:49Z</time>
      </trkpt>
      <trkpt lat="48.35399" lon="2.74231">
        <ele>130.60000610352</ele>
        <time>2022-02-10T13:59:54Z</time>
      </trkpt>
      <trkpt lat="48.354" lon="2.74225">
        <ele>130.80000305176</ele>
        <time>2022-02-10T13:59:59Z</time>
      </trkpt>
      <trkpt lat="48.35402" lon="2.7422">
        <ele>131</ele>
        <time>2022-02-10T14:00:04Z</time>
      </trkpt>
      <trkpt lat="48.35407" lon="2.74216">
        <ele>131.19999694824</ele>
        <time>2022-02-10T14:00:09Z</time>
      </trkpt>
      <trkpt lat="48.35411" lon="2.74212">
        <ele>131.60000610352</ele>
        <time>2022-02-10T14:00:14Z</time>
      </trkpt>
      <trkpt lat="48.35416" lon="2.74209">
        <ele>132.19999694824</ele>
        <time>2022-02-10T14:00:19Z</time>
      </trkpt>
      <trkpt lat="48.3542" lon="2.74205">
        <ele>133</ele>
        <time>2022-02-10T14:00:24Z</time>
      </trkpt>
      <trkpt lat="48.35424" lon="2.74199">
        <ele>133.39999389648</ele>
        <time>2022-02-10T14:00:29Z</time>
      </trkpt>
      <trkpt lat="48.35428" lon="2.74197">
        <ele>134</ele>
        <time>2022-02-10T14:00:34Z</time>
      </trkpt>
      <trkpt lat="48.35432" lon="2.74196">
        <ele>134.39999389648</ele>
        <time>2022-02-10T14:00:39Z</time>
      </trkpt>
      <trkpt lat="48.35438" lon="2.74195">
        <ele>134.80000305176</ele>
        <time>2022-02-10T14:00:44Z</time>
      </trkpt>
      <trkpt lat="48.35441" lon="2.74193">
        <ele>135.19999694824</ele>
        <time>2022-02-10T14:00:49Z</time>
      </trkpt>
      <trkpt lat="48.35445" lon="2.74192">
        <ele>135.60000610352</ele>
        <time>2022-02-10T14:00:54Z</time>
      </trkpt>
      <trkpt lat="48.3545" lon="2.74192">
        <ele>136.19999694824</ele>
        <time>2022-02-10T14:00:59Z</time>
      </trkpt>
      <trkpt lat="48.35452" lon="2.74192">
        <ele>136.39999389648</ele>
        <time>2022-02-10T14:01:04Z</time>
      </trkpt>
      <trkpt lat="48.35454" lon="2.7419">
        <ele>137.19999694824</ele>
        <time>2022-02-10T14:01:09Z</time>
      </trkpt>
      <trkpt lat="48.35458" lon="2.74191">
        <ele>137.39999389648</ele>
        <time>2022-02-10T14:01:14Z</time>
      </trkpt>
      <trkpt lat="48.35463" lon="2.74194">
        <ele>137.60000610352</ele>
        <time>2022-02-10T14:01:19Z</time>
      </trkpt>
      <trkpt lat="48.35468" lon="2.74196">
        <ele>138.39999389648</ele>
        <time>2022-02-10T14:01:24Z</time>
      </trkpt>
      <trkpt lat="48.35473" lon="2.74198">
        <ele>138.60000610352</ele>
        <time>2022-02-10T14:01:29Z</time>
      </trkpt>
      <trkpt lat="48.35477" lon="2.74199">
        <ele>139.19999694824</ele>
        <time>2022-02-10T14:01:34Z</time>
      </trkpt>
      <trkpt lat="48.3548" lon="2.74199">
        <ele>139.39999389648</ele>
        <time>2022-02-10T14:01:39Z</time>
      </trkpt>
      <trkpt lat="48.35483" lon="2.74196">
        <ele>139.39999389648</ele>
        <time>2022-02-10T14:01:44Z</time>
      </trkpt>
      <trkpt lat="48.35488" lon="2.74194">
        <ele>139.39999389648</ele>
        <time>2022-02-10T14:01:49Z</time>
      </trkpt>
      <trkpt lat="48.35493" lon="2.74191">
        <ele>139.60000610352</ele>
        <time>2022-02-10T14:01:54Z</time>
      </trkpt>
      <trkpt lat="48.35497" lon="2.74186">
        <ele>139.80000305176</ele>
        <time>2022-02-10T14:01:59Z</time>
      </trkpt>
      <trkpt lat="48.35501" lon="2.74182">
        <ele>139.80000305176</ele>
        <time>2022-02-10T14:02:04Z</time>
      </trkpt>
      <trkpt lat="48.35506" lon="2.74177">
        <ele>139.80000305176</ele>
        <time>2022-02-10T14:02:09Z</time>
      </trkpt>
      <trkpt lat="48.3551" lon="2.74171">
        <ele>140.19999694824</ele>
        <time>2022-02-10T14:02:14Z</time>
      </trkpt>
      <trkpt lat="48.35513" lon="2.74165">
        <ele>140.19999694824</ele>
        <time>2022-02-10T14:02:19Z</time>
      </trkpt>
      <trkpt lat="48.35519" lon="2.74162">
        <ele>140.19999694824</ele>
        <time>2022-02-10T14:02:24Z</time>
      </trkpt>
      <trkpt lat="48.35523" lon="2.74158">
        <ele>140.19999694824</ele>
        <time>2022-02-10T14:02:29Z</time>
      </trkpt>
      <trkpt lat="48.35526" lon="2.74154">
        <ele>140.19999694824</ele>
        <time>2022-02-10T14:02:34Z</time>
      </trkpt>
      <trkpt lat="48.35531" lon="2.7415">
        <ele>140.19999694824</ele>
        <time>2022-02-10T14:02:39Z</time>
      </trkpt>
      <trkpt lat="48.35535" lon="2.74144">
        <ele>140.39999389648</ele>
        <time>2022-02-10T14:02:44Z</time>
      </trkpt>
      <trkpt lat="48.3554" lon="2.74136">
        <ele>140.39999389648</ele>
        <time>2022-02-10T14:02:49Z</time>
      </trkpt>
      <trkpt lat="48.35544" lon="2.74129">
        <ele>140.60000610352</ele>
        <time>2022-02-10T14:02:54Z</time>
      </trkpt>
      <trkpt lat="48.35546" lon="2.74122">
        <ele>140.39999389648</ele>
        <time>2022-02-10T14:02:59Z</time>
      </trkpt>
      <trkpt lat="48.3555" lon="2.74114">
        <ele>140.39999389648</ele>
        <time>2022-02-10T14:03:04Z</time>
      </trkpt>
      <trkpt lat="48.35554" lon="2.74106">
        <ele>140.39999389648</ele>
        <time>2022-02-10T14:03:09Z</time>
      </trkpt>
      <trkpt lat="48.35555" lon="2.74099">
        <ele>140.60000610352</ele>
        <time>2022-02-10T14:03:14Z</time>
      </trkpt>
      <trkpt lat="48.35557" lon="2.74092">
        <ele>140.19999694824</ele>
        <time>2022-02-10T14:03:19Z</time>
      </trkpt>
      <trkpt lat="48.35561" lon="2.74086">
        <ele>140.39999389648</ele>
        <time>2022-02-10T14:03:24Z</time>
      </trkpt>
      <trkpt lat="48.35566" lon="2.74079">
        <ele>140.19999694824</ele>
        <time>2022-02-10T14:03:29Z</time>
      </trkpt>
      <trkpt lat="48.35569" lon="2.74074">
        <ele>140.39999389648</ele>
        <time>2022-02-10T14:03:34Z</time>
      </trkpt>
      <trkpt lat="48.35573" lon="2.74066">
        <ele>140.39999389648</ele>
        <time>2022-02-10T14:03:39Z</time>
      </trkpt>
      <trkpt lat="48.35576" lon="2.74061">
        <ele>140.39999389648</ele>
        <time>2022-02-10T14:03:44Z</time>
      </trkpt>
      <trkpt lat="48.35578" lon="2.74056">
        <ele>140.39999389648</ele>
        <time>2022-02-10T14:03:49Z</time>
      </trkpt>
      <trkpt lat="48.3558" lon="2.74049">
        <ele>140.60000610352</ele>
        <time>2022-02-10T14:03:54Z</time>
      </trkpt>
      <trkpt lat="48.35583" lon="2.74041">
        <ele>140.60000610352</ele>
        <time>2022-02-10T14:03:59Z</time>
      </trkpt>
      <trkpt lat="48.35587" lon="2.74035">
        <ele>140.80000305176</ele>
        <time>2022-02-10T14:04:04Z</time>
      </trkpt>
      <trkpt lat="48.35589" lon="2.74027">
        <ele>140.80000305176</ele>
        <time>2022-02-10T14:04:09Z</time>
      </trkpt>
      <trkpt lat="48.35591" lon="2.74018">
        <ele>140.80000305176</ele>
        <time>2022-02-10T14:04:14Z</time>
      </trkpt>
      <trkpt lat="48.35589" lon="2.74006">
        <ele>140.60000610352</ele>
        <time>2022-02-10T14:04:19Z</time>
      </trkpt>
      <trkpt lat="48.35587" lon="2.73997">
        <ele>140.80000305176</ele>
        <time>2022-02-10T14:04:24Z</time>
      </trkpt>
      <trkpt lat="48.35587" lon="2.7399">
        <ele>140.60000610352</ele>
        <time>2022-02-10T14:04:29Z</time>
      </trkpt>
      <trkpt lat="48.35587" lon="2.73984">
        <ele>140.60000610352</ele>
        <time>2022-02-10T14:04:34Z</time>
      </trkpt>
      <trkpt lat="48.35586" lon="2.73977">
        <ele>140.60000610352</ele>
        <time>2022-02-10T14:04:39Z</time>
      </trkpt>
      <trkpt lat="48.35587" lon="2.73969">
        <ele>140.80000305176</ele>
        <time>2022-02-10T14:04:44Z</time>
      </trkpt>
      <trkpt lat="48.35588" lon="2.73963">
        <ele>140.80000305176</ele>
        <time>2022-02-10T14:04:49Z</time>
      </trkpt>
      <trkpt lat="48.35589" lon="2.73955">
        <ele>140.60000610352</ele>
        <time>2022-02-10T14:04:54Z</time>
      </trkpt>
      <trkpt lat="48.35591" lon="2.73947">
        <ele>140.60000610352</ele>
        <time>2022-02-10T14:04:59Z</time>
      </trkpt>
      <trkpt lat="48.35592" lon="2.7394">
        <ele>140.60000610352</ele>
        <time>2022-02-10T14:05:04Z</time>
      </trkpt>
      <trkpt lat="48.35594" lon="2.73932">
        <ele>140.60000610352</ele>
        <time>2022-02-10T14:05:09Z</time>
      </trkpt>
      <trkpt lat="48.35596" lon="2.73926">
        <ele>140.60000610352</ele>
        <time>2022-02-10T14:05:14Z</time>
      </trkpt>
      <trkpt lat="48.35601" lon="2.73919">
        <ele>140.39999389648</ele>
        <time>2022-02-10T14:05:19Z</time>
      </trkpt>
      <trkpt lat="48.35603" lon="2.73912">
        <ele>140.19999694824</ele>
        <time>2022-02-10T14:05:24Z</time>
      </trkpt>
      <trkpt lat="48.35603" lon="2.73903">
        <ele>140.19999694824</ele>
        <time>2022-02-10T14:05:29Z</time>
      </trkpt>
      <trkpt lat="48.35602" lon="2.73895">
        <ele>140.19999694824</ele>
        <time>2022-02-10T14:05:34Z</time>
      </trkpt>
      <trkpt lat="48.35603" lon="2.7389">
        <ele>140</ele>
        <time>2022-02-10T14:05:39Z</time>
      </trkpt>
      <trkpt lat="48.35604" lon="2.73885">
        <ele>140</ele>
        <time>2022-02-10T14:05:44Z</time>
      </trkpt>
      <trkpt lat="48.35606" lon="2.73882">
        <ele>140.39999389648</ele>
        <time>2022-02-10T14:05:49Z</time>
      </trkpt>
      <trkpt lat="48.35609" lon="2.73878">
        <ele>140.39999389648</ele>
        <time>2022-02-10T14:05:54Z</time>
      </trkpt>
      <trkpt lat="48.35614" lon="2.73872">
        <ele>140.19999694824</ele>
        <time>2022-02-10T14:05:59Z</time>
      </trkpt>
      <trkpt lat="48.35618" lon="2.7387">
        <ele>139.80000305176</ele>
        <time>2022-02-10T14:06:04Z</time>
      </trkpt>
      <trkpt lat="48.35622" lon="2.73864">
        <ele>140</ele>
        <time>2022-02-10T14:06:09Z</time>
      </trkpt>
      <trkpt lat="48.35626" lon="2.7386">
        <ele>140.39999389648</ele>
        <time>2022-02-10T14:06:14Z</time>
      </trkpt>
      <trkpt lat="48.35633" lon="2.73857">
        <ele>140.60000610352</ele>
        <time>2022-02-10T14:06:19Z</time>
      </trkpt>
      <trkpt lat="48.35636" lon="2.73854">
        <ele>140.60000610352</ele>
        <time>2022-02-10T14:06:24Z</time>
      </trkpt>
      <trkpt lat="48.35639" lon="2.73853">
        <ele>140.60000610352</ele>
        <time>2022-02-10T14:06:29Z</time>
      </trkpt>
      <trkpt lat="48.35642" lon="2.73855">
        <ele>140.39999389648</ele>
        <time>2022-02-10T14:06:34Z</time>
      </trkpt>
      <trkpt lat="48.35644" lon="2.73856">
        <ele>140.60000610352</ele>
        <time>2022-02-10T14:06:39Z</time>
      </trkpt>
      <trkpt lat="48.35645" lon="2.73856">
        <ele>140.39999389648</ele>
        <time>2022-02-10T14:06:44Z</time>
      </trkpt>
      <trkpt lat="48.35646" lon="2.73857">
        <ele>140.19999694824</ele>
        <time>2022-02-10T14:06:49Z</time>
      </trkpt>
      <trkpt lat="48.35648" lon="2.73858">
        <ele>139.80000305176</ele>
        <time>2022-02-10T14:06:54Z</time>
      </trkpt>
      <trkpt lat="48.3565" lon="2.73857">
        <ele>139.39999389648</ele>
        <time>2022-02-10T14:06:59Z</time>
      </trkpt>
      <trkpt lat="48.35651" lon="2.73857">
        <ele>139.19999694824</ele>
        <time>2022-02-10T14:07:04Z</time>
      </trkpt>
      <trkpt lat="48.35651" lon="2.73858">
        <ele>138.60000610352</ele>
        <time>2022-02-10T14:07:09Z</time>
      </trkpt>
      <trkpt lat="48.35655" lon="2.73857">
        <ele>138</ele>
        <time>2022-02-10T14:07:14Z</time>
      </trkpt>
      <trkpt lat="48.35658" lon="2.7386">
        <ele>137.60000610352</ele>
        <time>2022-02-10T14:07:19Z</time>
      </trkpt>
      <trkpt lat="48.35657" lon="2.73866">
        <ele>137.19999694824</ele>
        <time>2022-02-10T14:07:24Z</time>
      </trkpt>
      <trkpt lat="48.35658" lon="2.73872">
        <ele>136.80000305176</ele>
        <time>2022-02-10T14:07:29Z</time>
      </trkpt>
      <trkpt lat="48.35658" lon="2.73876">
        <ele>136.39999389648</ele>
        <time>2022-02-10T14:07:34Z</time>
      </trkpt>
      <trkpt lat="48.35658" lon="2.73876">
        <ele>136.19999694824</ele>
        <time>2022-02-10T14:07:39Z</time>
      </trkpt>
      <trkpt lat="48.35658" lon="2.73877">
        <ele>136.19999694824</ele>
        <time>2022-02-10T14:07:44Z</time>
      </trkpt>
      <trkpt lat="48.35658" lon="2.73883">
        <ele>136.39999389648</ele>
        <time>2022-02-10T14:07:49Z</time>
      </trkpt>
      <trkpt lat="48.35659" lon="2.73886">
        <ele>136</ele>
        <time>2022-02-10T14:07:54Z</time>
      </trkpt>
      <trkpt lat="48.35659" lon="2.73887">
        <ele>136</ele>
        <time>2022-02-10T14:07:59Z</time>
      </trkpt>
      <trkpt lat="48.35659" lon="2.73888">
        <ele>135.80000305176</ele>
        <time>2022-02-10T14:08:04Z</time>
      </trkpt>
      <trkpt lat="48.35659" lon="2.73889">
        <ele>135.60000610352</ele>
        <time>2022-02-10T14:08:09Z</time>
      </trkpt>
      <trkpt lat="48.35661" lon="2.73889">
        <ele>135.19999694824</ele>
        <time>2022-02-10T14:08:14Z</time>
      </trkpt>
      <trkpt lat="48.3566" lon="2.7389">
        <ele>135</ele>
        <time>2022-02-10T14:08:19Z</time>
      </trkpt>
      <trkpt lat="48.35661" lon="2.73891">
        <ele>134.80000305176</ele>
        <time>2022-02-10T14:08:24Z</time>
      </trkpt>
      <trkpt lat="48.35661" lon="2.73892">
        <ele>134.39999389648</ele>
        <time>2022-02-10T14:08:29Z</time>
      </trkpt>
      <trkpt lat="48.35662" lon="2.73893">
        <ele>134</ele>
        <time>2022-02-10T14:08:34Z</time>
      </trkpt>
      <trkpt lat="48.35663" lon="2.73894">
        <ele>133.60000610352</ele>
        <time>2022-02-10T14:08:39Z</time>
      </trkpt>
      <trkpt lat="48.35664" lon="2.73894">
        <ele>133.39999389648</ele>
        <time>2022-02-10T14:08:44Z</time>
      </trkpt>
      <trkpt lat="48.35664" lon="2.73893">
        <ele>132.60000610352</ele>
        <time>2022-02-10T14:08:49Z</time>
      </trkpt>
      <trkpt lat="48.35664" lon="2.73892">
        <ele>132.19999694824</ele>
        <time>2022-02-10T14:08:54Z</time>
      </trkpt>
      <trkpt lat="48.35665" lon="2.73892">
        <ele>131.80000305176</ele>
        <time>2022-02-10T14:08:59Z</time>
      </trkpt>
      <trkpt lat="48.35665" lon="2.73895">
        <ele>131</ele>
        <time>2022-02-10T14:09:04Z</time>
      </trkpt>
      <trkpt lat="48.35663" lon="2.73896">
        <ele>130.39999389648</ele>
        <time>2022-02-10T14:09:09Z</time>
      </trkpt>
      <trkpt lat="48.35663" lon="2.73897">
        <ele>130</ele>
        <time>2022-02-10T14:09:14Z</time>
      </trkpt>
      <trkpt lat="48.35664" lon="2.73901">
        <ele>129.60000610352</ele>
        <time>2022-02-10T14:09:19Z</time>
      </trkpt>
      <trkpt lat="48.35666" lon="2.73902">
        <ele>129.19999694824</ele>
        <time>2022-02-10T14:09:24Z</time>
      </trkpt>
      <trkpt lat="48.35667" lon="2.73902">
        <ele>129</ele>
        <time>2022-02-10T14:09:29Z</time>
      </trkpt>
      <trkpt lat="48.35668" lon="2.73903">
        <ele>128.60000610352</ele>
        <time>2022-02-10T14:09:34Z</time>
      </trkpt>
      <trkpt lat="48.35668" lon="2.73904">
        <ele>128.19999694824</ele>
        <time>2022-02-10T14:09:39Z</time>
      </trkpt>
      <trkpt lat="48.35668" lon="2.73905">
        <ele>127.80000305176</ele>
        <time>2022-02-10T14:09:44Z</time>
      </trkpt>
      <trkpt lat="48.35668" lon="2.73906">
        <ele>127.40000152588</ele>
        <time>2022-02-10T14:09:49Z</time>
      </trkpt>
      <trkpt lat="48.35668" lon="2.73908">
        <ele>127.19999694824</ele>
        <time>2022-02-10T14:09:54Z</time>
      </trkpt>
      <trkpt lat="48.35667" lon="2.73909">
        <ele>127</ele>
        <time>2022-02-10T14:09:59Z</time>
      </trkpt>
      <trkpt lat="48.35667" lon="2.73911">
        <ele>126.40000152588</ele>
        <time>2022-02-10T14:10:04Z</time>
      </trkpt>
      <trkpt lat="48.35667" lon="2.73914">
        <ele>126.19999694824</ele>
        <time>2022-02-10T14:10:09Z</time>
      </trkpt>
      <trkpt lat="48.35669" lon="2.73916">
        <ele>125.80000305176</ele>
        <time>2022-02-10T14:10:14Z</time>
      </trkpt>
      <trkpt lat="48.35671" lon="2.73917">
        <ele>125.40000152588</ele>
        <time>2022-02-10T14:10:19Z</time>
      </trkpt>
      <trkpt lat="48.35673" lon="2.73918">
        <ele>124.80000305176</ele>
        <time>2022-02-10T14:10:24Z</time>
      </trkpt>
      <trkpt lat="48.35676" lon="2.73919">
        <ele>124.19999694824</ele>
        <time>2022-02-10T14:10:29Z</time>
      </trkpt>
      <trkpt lat="48.35678" lon="2.73922">
        <ele>123.80000305176</ele>
        <time>2022-02-10T14:10:34Z</time>
      </trkpt>
      <trkpt lat="48.35678" lon="2.7392">
        <ele>123.80000305176</ele>
        <time>2022-02-10T14:10:39Z</time>
      </trkpt>
      <trkpt lat="48.35678" lon="2.73918">
        <ele>123.59999847412</ele>
        <time>2022-02-10T14:10:44Z</time>
      </trkpt>
      <trkpt lat="48.35678" lon="2.73917">
        <ele>123</ele>
        <time>2022-02-10T14:10:49Z</time>
      </trkpt>
      <trkpt lat="48.35678" lon="2.73918">
        <ele>122.59999847412</ele>
        <time>2022-02-10T14:10:54Z</time>
      </trkpt>
      <trkpt lat="48.3568" lon="2.73917">
        <ele>122.40000152588</ele>
        <time>2022-02-10T14:10:59Z</time>
      </trkpt>
      <trkpt lat="48.35679" lon="2.73916">
        <ele>122.40000152588</ele>
        <time>2022-02-10T14:11:04Z</time>
      </trkpt>
      <trkpt lat="48.35681" lon="2.73916">
        <ele>122.19999694824</ele>
        <time>2022-02-10T14:11:09Z</time>
      </trkpt>
      <trkpt lat="48.35681" lon="2.73916">
        <ele>122</ele>
        <time>2022-02-10T14:11:14Z</time>
      </trkpt>
      <trkpt lat="48.35682" lon="2.73915">
        <ele>121.40000152588</ele>
        <time>2022-02-10T14:11:19Z</time>
      </trkpt>
      <trkpt lat="48.35683" lon="2.73915">
        <ele>121.19999694824</ele>
        <time>2022-02-10T14:11:24Z</time>
      </trkpt>
      <trkpt lat="48.35684" lon="2.73913">
        <ele>120.59999847412</ele>
        <time>2022-02-10T14:11:29Z</time>
      </trkpt>
      <trkpt lat="48.35684" lon="2.73913">
        <ele>120.40000152588</ele>
        <time>2022-02-10T14:11:34Z</time>
      </trkpt>
      <trkpt lat="48.35685" lon="2.73913">
        <ele>120</ele>
        <time>2022-02-10T14:11:39Z</time>
      </trkpt>
      <trkpt lat="48.35685" lon="2.73913">
        <ele>119.40000152588</ele>
        <time>2022-02-10T14:11:44Z</time>
      </trkpt>
      <trkpt lat="48.35685" lon="2.73913">
        <ele>119</ele>
        <time>2022-02-10T14:11:49Z</time>
      </trkpt>
      <trkpt lat="48.35685" lon="2.73913">
        <ele>118.80000305176</ele>
        <time>2022-02-10T14:11:54Z</time>
      </trkpt>
      <trkpt lat="48.35686" lon="2.73912">
        <ele>118.80000305176</ele>
        <time>2022-02-10T14:11:59Z</time>
      </trkpt>
      <trkpt lat="48.35686" lon="2.73914">
        <ele>118.40000152588</ele>
        <time>2022-02-10T14:12:04Z</time>
      </trkpt>
      <trkpt lat="48.35686" lon="2.73913">
        <ele>118</ele>
        <time>2022-02-10T14:12:09Z</time>
      </trkpt>
      <trkpt lat="48.35687" lon="2.73912">
        <ele>117.40000152588</ele>
        <time>2022-02-10T14:12:14Z</time>
      </trkpt>
      <trkpt lat="48.35688" lon="2.73912">
        <ele>116.80000305176</ele>
        <time>2022-02-10T14:12:19Z</time>
      </trkpt>
      <trkpt lat="48.35685" lon="2.73912">
        <ele>116</ele>
        <time>2022-02-10T14:12:24Z</time>
      </trkpt>
      <trkpt lat="48.35683" lon="2.73913">
        <ele>115</ele>
        <time>2022-02-10T14:12:29Z</time>
      </trkpt>
      <trkpt lat="48.35685" lon="2.73913">
        <ele>114.19999694824</ele>
        <time>2022-02-10T14:12:34Z</time>
      </trkpt>
      <trkpt lat="48.35685" lon="2.7391">
        <ele>113.40000152588</ele>
        <time>2022-02-10T14:12:39Z</time>
      </trkpt>
      <trkpt lat="48.35683" lon="2.73911">
        <ele>112.80000305176</ele>
        <time>2022-02-10T14:12:44Z</time>
      </trkpt>
      <trkpt lat="48.35682" lon="2.73913">
        <ele>112.40000152588</ele>
        <time>2022-02-10T14:12:49Z</time>
      </trkpt>
      <trkpt lat="48.35682" lon="2.73914">
        <ele>111.59999847412</ele>
        <time>2022-02-10T14:12:54Z</time>
      </trkpt>
      <trkpt lat="48.3568" lon="2.73916">
        <ele>110.59999847412</ele>
        <time>2022-02-10T14:12:59Z</time>
      </trkpt>
      <trkpt lat="48.3568" lon="2.73917">
        <ele>110.19999694824</ele>
        <time>2022-02-10T14:13:04Z</time>
      </trkpt>
      <trkpt lat="48.35682" lon="2.73916">
        <ele>109.80000305176</ele>
        <time>2022-02-10T14:13:09Z</time>
      </trkpt>
      <trkpt lat="48.35685" lon="2.73918">
        <ele>109</ele>
        <time>2022-02-10T14:13:14Z</time>
      </trkpt>
      <trkpt lat="48.35686" lon="2.73915">
        <ele>108.59999847412</ele>
        <time>2022-02-10T14:13:19Z</time>
      </trkpt>
      <trkpt lat="48.35689" lon="2.73915">
        <ele>108</ele>
        <time>2022-02-10T14:13:24Z</time>
      </trkpt>
      <trkpt lat="48.35692" lon="2.73914">
        <ele>107.59999847412</ele>
        <time>2022-02-10T14:13:29Z</time>
      </trkpt>
      <trkpt lat="48.35695" lon="2.73915">
        <ele>107.19999694824</ele>
        <time>2022-02-10T14:13:34Z</time>
      </trkpt>
      <trkpt lat="48.357" lon="2.73914">
        <ele>106.80000305176</ele>
        <time>2022-02-10T14:13:39Z</time>
      </trkpt>
      <trkpt lat="48.35703" lon="2.73913">
        <ele>106</ele>
        <time>2022-02-10T14:13:44Z</time>
      </trkpt>
      <trkpt lat="48.35707" lon="2.73912">
        <ele>105</ele>
        <time>2022-02-10T14:13:49Z</time>
      </trkpt>
      <trkpt lat="48.35712" lon="2.73912">
        <ele>104.40000152588</ele>
        <time>2022-02-10T14:13:54Z</time>
      </trkpt>
      <trkpt lat="48.35724" lon="2.73909">
        <ele>104</ele>
        <time>2022-02-10T14:13:59Z</time>
      </trkpt>
      <trkpt lat="48.35729" lon="2.7391">
        <ele>103.40000152588</ele>
        <time>2022-02-10T14:14:04Z</time>
      </trkpt>
      <trkpt lat="48.35733" lon="2.73909">
        <ele>102.59999847412</ele>
        <time>2022-02-10T14:14:09Z</time>
      </trkpt>
      <trkpt lat="48.35734" lon="2.73909">
        <ele>102.40000152588</ele>
        <time>2022-02-10T14:14:14Z</time>
      </trkpt>
      <trkpt lat="48.35735" lon="2.73909">
        <ele>102.40000152588</ele>
        <time>2022-02-10T14:14:19Z</time>
      </trkpt>
      <trkpt lat="48.35733" lon="2.73911">
        <ele>102.40000152588</ele>
        <time>2022-02-10T14:14:24Z</time>
      </trkpt>
      <trkpt lat="48.35731" lon="2.73912">
        <ele>102.40000152588</ele>
        <time>2022-02-10T14:14:29Z</time>
      </trkpt>
      <trkpt lat="48.35732" lon="2.73913">
        <ele>102.19999694824</ele>
        <time>2022-02-10T14:14:34Z</time>
      </trkpt>
      <trkpt lat="48.35732" lon="2.73915">
        <ele>102.19999694824</ele>
        <time>2022-02-10T14:14:39Z</time>
      </trkpt>
      <trkpt lat="48.35733" lon="2.73914">
        <ele>102</ele>
        <time>2022-02-10T14:14:44Z</time>
      </trkpt>
      <trkpt lat="48.35735" lon="2.73914">
        <ele>101.80000305176</ele>
        <time>2022-02-10T14:14:49Z</time>
      </trkpt>
      <trkpt lat="48.35738" lon="2.73914">
        <ele>101.80000305176</ele>
        <time>2022-02-10T14:14:54Z</time>
      </trkpt>
      <trkpt lat="48.35742" lon="2.73912">
        <ele>101.19999694824</ele>
        <time>2022-02-10T14:14:59Z</time>
      </trkpt>
      <trkpt lat="48.35744" lon="2.73911">
        <ele>100.80000305176</ele>
        <time>2022-02-10T14:15:04Z</time>
      </trkpt>
      <trkpt lat="48.35747" lon="2.73912">
        <ele>100.40000152588</ele>
        <time>2022-02-10T14:15:09Z</time>
      </trkpt>
      <trkpt lat="48.35748" lon="2.73913">
        <ele>99.800003051758</ele>
        <time>2022-02-10T14:15:14Z</time>
      </trkpt>
      <trkpt lat="48.35751" lon="2.73915">
        <ele>99.400001525879</ele>
        <time>2022-02-10T14:15:19Z</time>
      </trkpt>
      <trkpt lat="48.35758" lon="2.73918">
        <ele>99</ele>
        <time>2022-02-10T14:15:24Z</time>
      </trkpt>
      <trkpt lat="48.35763" lon="2.73918">
        <ele>98.599998474121</ele>
        <time>2022-02-10T14:15:29Z</time>
      </trkpt>
      <trkpt lat="48.35767" lon="2.73921">
        <ele>98.400001525879</ele>
        <time>2022-02-10T14:15:34Z</time>
      </trkpt>
      <trkpt lat="48.3577" lon="2.73922">
        <ele>98.400001525879</ele>
        <time>2022-02-10T14:15:39Z</time>
      </trkpt>
      <trkpt lat="48.35774" lon="2.73924">
        <ele>97.800003051758</ele>
        <time>2022-02-10T14:15:44Z</time>
      </trkpt>
      <trkpt lat="48.35779" lon="2.73926">
        <ele>97.599998474121</ele>
        <time>2022-02-10T14:15:49Z</time>
      </trkpt>
      <trkpt lat="48.35783" lon="2.73928">
        <ele>97.199996948242</ele>
        <time>2022-02-10T14:15:54Z</time>
      </trkpt>
      <trkpt lat="48.35788" lon="2.7393">
        <ele>97</ele>
        <time>2022-02-10T14:15:59Z</time>
      </trkpt>
      <trkpt lat="48.35792" lon="2.73931">
        <ele>97</ele>
        <time>2022-02-10T14:16:04Z</time>
      </trkpt>
      <trkpt lat="48.35796" lon="2.73931">
        <ele>96.400001525879</ele>
        <time>2022-02-10T14:16:09Z</time>
      </trkpt>
      <trkpt lat="48.358" lon="2.73932">
        <ele>96.400001525879</ele>
        <time>2022-02-10T14:16:14Z</time>
      </trkpt>
      <trkpt lat="48.35805" lon="2.73934">
        <ele>96.199996948242</ele>
        <time>2022-02-10T14:16:19Z</time>
      </trkpt>
      <trkpt lat="48.35809" lon="2.73934">
        <ele>95.800003051758</ele>
        <time>2022-02-10T14:16:24Z</time>
      </trkpt>
      <trkpt lat="48.35813" lon="2.73935">
        <ele>95.800003051758</ele>
        <time>2022-02-10T14:16:29Z</time>
      </trkpt>
      <trkpt lat="48.35816" lon="2.73936">
        <ele>95.599998474121</ele>
        <time>2022-02-10T14:16:34Z</time>
      </trkpt>
      <trkpt lat="48.35821" lon="2.73937">
        <ele>95.599998474121</ele>
        <time>2022-02-10T14:16:39Z</time>
      </trkpt>
      <trkpt lat="48.35826" lon="2.73936">
        <ele>95.400001525879</ele>
        <time>2022-02-10T14:16:44Z</time>
      </trkpt>
      <trkpt lat="48.35833" lon="2.73937">
        <ele>95.400001525879</ele>
        <time>2022-02-10T14:16:49Z</time>
      </trkpt>
      <trkpt lat="48.35836" lon="2.73938">
        <ele>95.400001525879</ele>
        <time>2022-02-10T14:16:54Z</time>
      </trkpt>
      <trkpt lat="48.35841" lon="2.7394">
        <ele>95.400001525879</ele>
        <time>2022-02-10T14:16:59Z</time>
      </trkpt>
      <trkpt lat="48.35848" lon="2.73941">
        <ele>95.400001525879</ele>
        <time>2022-02-10T14:17:04Z</time>
      </trkpt>
      <trkpt lat="48.35853" lon="2.73941">
        <ele>95.400001525879</ele>
        <time>2022-02-10T14:17:09Z</time>
      </trkpt>
      <trkpt lat="48.35858" lon="2.73942">
        <ele>95.800003051758</ele>
        <time>2022-02-10T14:17:14Z</time>
      </trkpt>
      <trkpt lat="48.35864" lon="2.73945">
        <ele>96</ele>
        <time>2022-02-10T14:17:19Z</time>
      </trkpt>
      <trkpt lat="48.35869" lon="2.73947">
        <ele>96.199996948242</ele>
        <time>2022-02-10T14:17:24Z</time>
      </trkpt>
      <trkpt lat="48.35872" lon="2.73945">
        <ele>96.599998474121</ele>
        <time>2022-02-10T14:17:29Z</time>
      </trkpt>
      <trkpt lat="48.35874" lon="2.73946">
        <ele>96.599998474121</ele>
        <time>2022-02-10T14:17:34Z</time>
      </trkpt>
      <trkpt lat="48.35879" lon="2.73948">
        <ele>97</ele>
        <time>2022-02-10T14:17:39Z</time>
      </trkpt>
      <trkpt lat="48.35883" lon="2.73951">
        <ele>97.400001525879</ele>
        <time>2022-02-10T14:17:44Z</time>
      </trkpt>
      <trkpt lat="48.35889" lon="2.73953">
        <ele>97.800003051758</ele>
        <time>2022-02-10T14:17:49Z</time>
      </trkpt>
      <trkpt lat="48.35895" lon="2.73955">
        <ele>98.199996948242</ele>
        <time>2022-02-10T14:17:54Z</time>
      </trkpt>
      <trkpt lat="48.35899" lon="2.73956">
        <ele>98.599998474121</ele>
        <time>2022-02-10T14:17:59Z</time>
      </trkpt>
      <trkpt lat="48.35904" lon="2.73959">
        <ele>98.800003051758</ele>
        <time>2022-02-10T14:18:04Z</time>
      </trkpt>
      <trkpt lat="48.3591" lon="2.73962">
        <ele>99.199996948242</ele>
        <time>2022-02-10T14:18:09Z</time>
      </trkpt>
      <trkpt lat="48.35914" lon="2.73964">
        <ele>99.599998474121</ele>
        <time>2022-02-10T14:18:14Z</time>
      </trkpt>
      <trkpt lat="48.35918" lon="2.73965">
        <ele>99.800003051758</ele>
        <time>2022-02-10T14:18:19Z</time>
      </trkpt>
      <trkpt lat="48.35922" lon="2.73968">
        <ele>100</ele>
        <time>2022-02-10T14:18:24Z</time>
      </trkpt>
      <trkpt lat="48.35926" lon="2.73969">
        <ele>100.40000152588</ele>
        <time>2022-02-10T14:18:29Z</time>
      </trkpt>
      <trkpt lat="48.3593" lon="2.73971">
        <ele>100.59999847412</ele>
        <time>2022-02-10T14:18:34Z</time>
      </trkpt>
      <trkpt lat="48.35933" lon="2.73972">
        <ele>100.80000305176</ele>
        <time>2022-02-10T14:18:39Z</time>
      </trkpt>
      <trkpt lat="48.35936" lon="2.73973">
        <ele>101</ele>
        <time>2022-02-10T14:18:44Z</time>
      </trkpt>
      <trkpt lat="48.3594" lon="2.73976">
        <ele>101.19999694824</ele>
        <time>2022-02-10T14:18:49Z</time>
      </trkpt>
      <trkpt lat="48.35945" lon="2.73978">
        <ele>101.59999847412</ele>
        <time>2022-02-10T14:18:54Z</time>
      </trkpt>
      <trkpt lat="48.3595" lon="2.73981">
        <ele>101.80000305176</ele>
        <time>2022-02-10T14:18:59Z</time>
      </trkpt>
      <trkpt lat="48.35955" lon="2.73983">
        <ele>102.40000152588</ele>
        <time>2022-02-10T14:19:04Z</time>
      </trkpt>
      <trkpt lat="48.35961" lon="2.73984">
        <ele>102.80000305176</ele>
        <time>2022-02-10T14:19:09Z</time>
      </trkpt>
      <trkpt lat="48.35965" lon="2.73982">
        <ele>103</ele>
        <time>2022-02-10T14:19:14Z</time>
      </trkpt>
      <trkpt lat="48.35971" lon="2.73984">
        <ele>103</ele>
        <time>2022-02-10T14:19:19Z</time>
      </trkpt>
      <trkpt lat="48.35975" lon="2.73989">
        <ele>103.59999847412</ele>
        <time>2022-02-10T14:19:24Z</time>
      </trkpt>
      <trkpt lat="48.35981" lon="2.73994">
        <ele>103.80000305176</ele>
        <time>2022-02-10T14:19:29Z</time>
      </trkpt>
      <trkpt lat="48.35985" lon="2.73997">
        <ele>104.19999694824</ele>
        <time>2022-02-10T14:19:34Z</time>
      </trkpt>
      <trkpt lat="48.3599" lon="2.73999">
        <ele>104.80000305176</ele>
        <time>2022-02-10T14:19:39Z</time>
      </trkpt>
      <trkpt lat="48.35995" lon="2.74001">
        <ele>105.19999694824</ele>
        <time>2022-02-10T14:19:44Z</time>
      </trkpt>
      <trkpt lat="48.36001" lon="2.74006">
        <ele>105.80000305176</ele>
        <time>2022-02-10T14:19:49Z</time>
      </trkpt>
      <trkpt lat="48.36003" lon="2.74007">
        <ele>106</ele>
        <time>2022-02-10T14:19:54Z</time>
      </trkpt>
      <trkpt lat="48.36006" lon="2.7401">
        <ele>106.59999847412</ele>
        <time>2022-02-10T14:19:59Z</time>
      </trkpt>
      <trkpt lat="48.3601" lon="2.74014">
        <ele>107</ele>
        <time>2022-02-10T14:20:04Z</time>
      </trkpt>
      <trkpt lat="48.36013" lon="2.74015">
        <ele>107.59999847412</ele>
        <time>2022-02-10T14:20:09Z</time>
      </trkpt>
      <trkpt lat="48.36015" lon="2.74017">
        <ele>107.80000305176</ele>
        <time>2022-02-10T14:20:14Z</time>
      </trkpt>
      <trkpt lat="48.36019" lon="2.74019">
        <ele>108</ele>
        <time>2022-02-10T14:20:19Z</time>
      </trkpt>
      <trkpt lat="48.36022" lon="2.74022">
        <ele>108.59999847412</ele>
        <time>2022-02-10T14:20:24Z</time>
      </trkpt>
      <trkpt lat="48.36024" lon="2.74024">
        <ele>108.80000305176</ele>
        <time>2022-02-10T14:20:29Z</time>
      </trkpt>
      <trkpt lat="48.36027" lon="2.74029">
        <ele>109.40000152588</ele>
        <time>2022-02-10T14:20:34Z</time>
      </trkpt>
      <trkpt lat="48.3603" lon="2.74033">
        <ele>110</ele>
        <time>2022-02-10T14:20:39Z</time>
      </trkpt>
      <trkpt lat="48.36033" lon="2.74038">
        <ele>110.40000152588</ele>
        <time>2022-02-10T14:20:44Z</time>
      </trkpt>
      <trkpt lat="48.36035" lon="2.74041">
        <ele>110.80000305176</ele>
        <time>2022-02-10T14:20:49Z</time>
      </trkpt>
      <trkpt lat="48.36037" lon="2.74044">
        <ele>111.40000152588</ele>
        <time>2022-02-10T14:20:54Z</time>
      </trkpt>
      <trkpt lat="48.3604" lon="2.74047">
        <ele>111.59999847412</ele>
        <time>2022-02-10T14:20:59Z</time>
      </trkpt>
      <trkpt lat="48.36043" lon="2.74051">
        <ele>112.19999694824</ele>
        <time>2022-02-10T14:21:04Z</time>
      </trkpt>
      <trkpt lat="48.36045" lon="2.74057">
        <ele>112.80000305176</ele>
        <time>2022-02-10T14:21:09Z</time>
      </trkpt>
      <trkpt lat="48.36048" lon="2.74063">
        <ele>113.19999694824</ele>
        <time>2022-02-10T14:21:14Z</time>
      </trkpt>
      <trkpt lat="48.36052" lon="2.74066">
        <ele>113.40000152588</ele>
        <time>2022-02-10T14:21:19Z</time>
      </trkpt>
      <trkpt lat="48.36056" lon="2.74071">
        <ele>114.40000152588</ele>
        <time>2022-02-10T14:21:24Z</time>
      </trkpt>
      <trkpt lat="48.36059" lon="2.74077">
        <ele>115</ele>
        <time>2022-02-10T14:21:29Z</time>
      </trkpt>
      <trkpt lat="48.36059" lon="2.74082">
        <ele>115.40000152588</ele>
        <time>2022-02-10T14:21:34Z</time>
      </trkpt>
      <trkpt lat="48.36061" lon="2.74087">
        <ele>115.80000305176</ele>
        <time>2022-02-10T14:21:39Z</time>
      </trkpt>
      <trkpt lat="48.36062" lon="2.74093">
        <ele>116</ele>
        <time>2022-02-10T14:21:44Z</time>
      </trkpt>
      <trkpt lat="48.36065" lon="2.74098">
        <ele>116.40000152588</ele>
        <time>2022-02-10T14:21:49Z</time>
      </trkpt>
      <trkpt lat="48.36067" lon="2.74104">
        <ele>116.59999847412</ele>
        <time>2022-02-10T14:21:54Z</time>
      </trkpt>
      <trkpt lat="48.36071" lon="2.74112">
        <ele>117.40000152588</ele>
        <time>2022-02-10T14:21:59Z</time>
      </trkpt>
      <trkpt lat="48.36074" lon="2.74118">
        <ele>117.40000152588</ele>
        <time>2022-02-10T14:22:04Z</time>
      </trkpt>
      <trkpt lat="48.36076" lon="2.74122">
        <ele>117.80000305176</ele>
        <time>2022-02-10T14:22:09Z</time>
      </trkpt>
      <trkpt lat="48.36075" lon="2.74127">
        <ele>118.19999694824</ele>
        <time>2022-02-10T14:22:14Z</time>
      </trkpt>
      <trkpt lat="48.36075" lon="2.74132">
        <ele>119</ele>
        <time>2022-02-10T14:22:19Z</time>
      </trkpt>
      <trkpt lat="48.36073" lon="2.74138">
        <ele>119.59999847412</ele>
        <time>2022-02-10T14:22:24Z</time>
      </trkpt>
      <trkpt lat="48.36072" lon="2.74142">
        <ele>120</ele>
        <time>2022-02-10T14:22:29Z</time>
      </trkpt>
      <trkpt lat="48.36073" lon="2.74146">
        <ele>120.80000305176</ele>
        <time>2022-02-10T14:22:34Z</time>
      </trkpt>
      <trkpt lat="48.36074" lon="2.74151">
        <ele>121.19999694824</ele>
        <time>2022-02-10T14:22:39Z</time>
      </trkpt>
      <trkpt lat="48.36074" lon="2.74155">
        <ele>121.59999847412</ele>
        <time>2022-02-10T14:22:44Z</time>
      </trkpt>
      <trkpt lat="48.36074" lon="2.7416">
        <ele>122</ele>
        <time>2022-02-10T14:22:49Z</time>
      </trkpt>
      <trkpt lat="48.3607" lon="2.7416">
        <ele>122.40000152588</ele>
        <time>2022-02-10T14:22:54Z</time>
      </trkpt>
      <trkpt lat="48.36067" lon="2.7416">
        <ele>122.59999847412</ele>
        <time>2022-02-10T14:22:59Z</time>
      </trkpt>
      <trkpt lat="48.36063" lon="2.74158">
        <ele>123.40000152588</ele>
        <time>2022-02-10T14:23:04Z</time>
      </trkpt>
      <trkpt lat="48.36059" lon="2.74157">
        <ele>123.59999847412</ele>
        <time>2022-02-10T14:23:09Z</time>
      </trkpt>
      <trkpt lat="48.36055" lon="2.74156">
        <ele>123.80000305176</ele>
        <time>2022-02-10T14:23:14Z</time>
      </trkpt>
      <trkpt lat="48.36051" lon="2.74153">
        <ele>124.19999694824</ele>
        <time>2022-02-10T14:23:19Z</time>
      </trkpt>
      <trkpt lat="48.36044" lon="2.7415">
        <ele>124.80000305176</ele>
        <time>2022-02-10T14:23:24Z</time>
      </trkpt>
      <trkpt lat="48.36041" lon="2.74146">
        <ele>125</ele>
        <time>2022-02-10T14:23:29Z</time>
      </trkpt>
      <trkpt lat="48.36038" lon="2.74142">
        <ele>125.59999847412</ele>
        <time>2022-02-10T14:23:34Z</time>
      </trkpt>
      <trkpt lat="48.36034" lon="2.74137">
        <ele>126</ele>
        <time>2022-02-10T14:23:39Z</time>
      </trkpt>
      <trkpt lat="48.36029" lon="2.74134">
        <ele>126.40000152588</ele>
        <time>2022-02-10T14:23:44Z</time>
      </trkpt>
      <trkpt lat="48.36025" lon="2.74133">
        <ele>126.80000305176</ele>
        <time>2022-02-10T14:23:49Z</time>
      </trkpt>
      <trkpt lat="48.36022" lon="2.74132">
        <ele>127</ele>
        <time>2022-02-10T14:23:54Z</time>
      </trkpt>
      <trkpt lat="48.36019" lon="2.74132">
        <ele>127.19999694824</ele>
        <time>2022-02-10T14:23:59Z</time>
      </trkpt>
      <trkpt lat="48.36014" lon="2.74131">
        <ele>127.80000305176</ele>
        <time>2022-02-10T14:24:04Z</time>
      </trkpt>
      <trkpt lat="48.3601" lon="2.74132">
        <ele>128.19999694824</ele>
        <time>2022-02-10T14:24:09Z</time>
      </trkpt>
      <trkpt lat="48.36007" lon="2.74136">
        <ele>128.19999694824</ele>
        <time>2022-02-10T14:24:14Z</time>
      </trkpt>
      <trkpt lat="48.36001" lon="2.74139">
        <ele>128.39999389648</ele>
        <time>2022-02-10T14:24:19Z</time>
      </trkpt>
      <trkpt lat="48.35995" lon="2.74143">
        <ele>128.80000305176</ele>
        <time>2022-02-10T14:24:24Z</time>
      </trkpt>
      <trkpt lat="48.35992" lon="2.74147">
        <ele>129.39999389648</ele>
        <time>2022-02-10T14:24:29Z</time>
      </trkpt>
      <trkpt lat="48.35991" lon="2.74147">
        <ele>129.39999389648</ele>
        <time>2022-02-10T14:24:34Z</time>
      </trkpt>
      <trkpt lat="48.35989" lon="2.74151">
        <ele>130</ele>
        <time>2022-02-10T14:24:39Z</time>
      </trkpt>
      <trkpt lat="48.35986" lon="2.74155">
        <ele>130.19999694824</ele>
        <time>2022-02-10T14:24:44Z</time>
      </trkpt>
      <trkpt lat="48.35981" lon="2.74162">
        <ele>130.60000610352</ele>
        <time>2022-02-10T14:24:49Z</time>
      </trkpt>
      <trkpt lat="48.35976" lon="2.74169">
        <ele>131</ele>
        <time>2022-02-10T14:24:54Z</time>
      </trkpt>
      <trkpt lat="48.35971" lon="2.74175">
        <ele>131.39999389648</ele>
        <time>2022-02-10T14:24:59Z</time>
      </trkpt>
      <trkpt lat="48.35967" lon="2.7418">
        <ele>131.80000305176</ele>
        <time>2022-02-10T14:25:04Z</time>
      </trkpt>
      <trkpt lat="48.35964" lon="2.74186">
        <ele>132</ele>
        <time>2022-02-10T14:25:09Z</time>
      </trkpt>
      <trkpt lat="48.35962" lon="2.74192">
        <ele>132.19999694824</ele>
        <time>2022-02-10T14:25:14Z</time>
      </trkpt>
      <trkpt lat="48.35962" lon="2.742">
        <ele>132.39999389648</ele>
        <time>2022-02-10T14:25:19Z</time>
      </trkpt>
      <trkpt lat="48.3596" lon="2.74207">
        <ele>132.80000305176</ele>
        <time>2022-02-10T14:25:24Z</time>
      </trkpt>
      <trkpt lat="48.35961" lon="2.74214">
        <ele>133</ele>
        <time>2022-02-10T14:25:29Z</time>
      </trkpt>
      <trkpt lat="48.35962" lon="2.7422">
        <ele>133.19999694824</ele>
        <time>2022-02-10T14:25:34Z</time>
      </trkpt>
      <trkpt lat="48.35966" lon="2.74225">
        <ele>133.60000610352</ele>
        <time>2022-02-10T14:25:39Z</time>
      </trkpt>
      <trkpt lat="48.35972" lon="2.74229">
        <ele>134</ele>
        <time>2022-02-10T14:25:44Z</time>
      </trkpt>
      <trkpt lat="48.35976" lon="2.74229">
        <ele>134.80000305176</ele>
        <time>2022-02-10T14:25:49Z</time>
      </trkpt>
      <trkpt lat="48.35978" lon="2.74231">
        <ele>135.60000610352</ele>
        <time>2022-02-10T14:25:54Z</time>
      </trkpt>
      <trkpt lat="48.35982" lon="2.74229">
        <ele>136</ele>
        <time>2022-02-10T14:25:59Z</time>
      </trkpt>
      <trkpt lat="48.35981" lon="2.74226">
        <ele>136.39999389648</ele>
        <time>2022-02-10T14:26:04Z</time>
      </trkpt>
      <trkpt lat="48.35982" lon="2.74221">
        <ele>136.80000305176</ele>
        <time>2022-02-10T14:26:09Z</time>
      </trkpt>
      <trkpt lat="48.35983" lon="2.74216">
        <ele>137.19999694824</ele>
        <time>2022-02-10T14:26:14Z</time>
      </trkpt>
      <trkpt lat="48.35986" lon="2.74211">
        <ele>137.60000610352</ele>
        <time>2022-02-10T14:26:19Z</time>
      </trkpt>
      <trkpt lat="48.35987" lon="2.74206">
        <ele>138</ele>
        <time>2022-02-10T14:26:24Z</time>
      </trkpt>
      <trkpt lat="48.3599" lon="2.74202">
        <ele>138</ele>
        <time>2022-02-10T14:26:29Z</time>
      </trkpt>
      <trkpt lat="48.35993" lon="2.74199">
        <ele>138.19999694824</ele>
        <time>2022-02-10T14:26:34Z</time>
      </trkpt>
      <trkpt lat="48.35995" lon="2.74197">
        <ele>138.19999694824</ele>
        <time>2022-02-10T14:26:39Z</time>
      </trkpt>
      <trkpt lat="48.35999" lon="2.74197">
        <ele>138.39999389648</ele>
        <time>2022-02-10T14:26:44Z</time>
      </trkpt>
      <trkpt lat="48.36001" lon="2.742">
        <ele>138.39999389648</ele>
        <time>2022-02-10T14:26:49Z</time>
      </trkpt>
      <trkpt lat="48.36005" lon="2.74202">
        <ele>138.39999389648</ele>
        <time>2022-02-10T14:26:54Z</time>
      </trkpt>
      <trkpt lat="48.3601" lon="2.74204">
        <ele>138.39999389648</ele>
        <time>2022-02-10T14:26:59Z</time>
      </trkpt>
      <trkpt lat="48.36016" lon="2.74207">
        <ele>139</ele>
        <time>2022-02-10T14:27:04Z</time>
      </trkpt>
      <trkpt lat="48.3602" lon="2.74209">
        <ele>139.39999389648</ele>
        <time>2022-02-10T14:27:09Z</time>
      </trkpt>
      <trkpt lat="48.36022" lon="2.74209">
        <ele>139.80000305176</ele>
        <time>2022-02-10T14:27:14Z</time>
      </trkpt>
      <trkpt lat="48.36024" lon="2.74209">
        <ele>139.80000305176</ele>
        <time>2022-02-10T14:27:19Z</time>
      </trkpt>
      <trkpt lat="48.36025" lon="2.74209">
        <ele>139.80000305176</ele>
        <time>2022-02-10T14:27:24Z</time>
      </trkpt>
      <trkpt lat="48.36025" lon="2.7421">
        <ele>139.60000610352</ele>
        <time>2022-02-10T14:27:29Z</time>
      </trkpt>
      <trkpt lat="48.36026" lon="2.7421">
        <ele>139.60000610352</ele>
        <time>2022-02-10T14:27:34Z</time>
      </trkpt>
      <trkpt lat="48.36025" lon="2.7421">
        <ele>139.60000610352</ele>
        <time>2022-02-10T14:27:39Z</time>
      </trkpt>
      <trkpt lat="48.36025" lon="2.7421">
        <ele>139.39999389648</ele>
        <time>2022-02-10T14:27:44Z</time>
      </trkpt>
      <trkpt lat="48.36025" lon="2.74209">
        <ele>139.39999389648</ele>
        <time>2022-02-10T14:27:49Z</time>
      </trkpt>
      <trkpt lat="48.36026" lon="2.7421">
        <ele>139.39999389648</ele>
        <time>2022-02-10T14:27:54Z</time>
      </trkpt>
      <trkpt lat="48.36025" lon="2.74211">
        <ele>139.39999389648</ele>
        <time>2022-02-10T14:27:59Z</time>
      </trkpt>
      <trkpt lat="48.36025" lon="2.7421">
        <ele>139.19999694824</ele>
        <time>2022-02-10T14:28:04Z</time>
      </trkpt>
      <trkpt lat="48.36024" lon="2.74207">
        <ele>139.19999694824</ele>
        <time>2022-02-10T14:28:09Z</time>
      </trkpt>
      <trkpt lat="48.36024" lon="2.74205">
        <ele>139.19999694824</ele>
        <time>2022-02-10T14:28:14Z</time>
      </trkpt>
      <trkpt lat="48.36023" lon="2.74204">
        <ele>139.19999694824</ele>
        <time>2022-02-10T14:28:19Z</time>
      </trkpt>
      <trkpt lat="48.36023" lon="2.74201">
        <ele>139.19999694824</ele>
        <time>2022-02-10T14:28:24Z</time>
      </trkpt>
      <trkpt lat="48.36026" lon="2.74203">
        <ele>139.19999694824</ele>
        <time>2022-02-10T14:28:29Z</time>
      </trkpt>
      <trkpt lat="48.36027" lon="2.74205">
        <ele>139.19999694824</ele>
        <time>2022-02-10T14:28:34Z</time>
      </trkpt>
      <trkpt lat="48.36028" lon="2.74204">
        <ele>139.19999694824</ele>
        <time>2022-02-10T14:28:39Z</time>
      </trkpt>
      <trkpt lat="48.36029" lon="2.74205">
        <ele>139.19999694824</ele>
        <time>2022-02-10T14:28:44Z</time>
      </trkpt>
      <trkpt lat="48.3603" lon="2.74205">
        <ele>139.19999694824</ele>
        <time>2022-02-10T14:28:49Z</time>
      </trkpt>
      <trkpt lat="48.36029" lon="2.74203">
        <ele>139.19999694824</ele>
        <time>2022-02-10T14:28:54Z</time>
      </trkpt>
      <trkpt lat="48.3603" lon="2.74201">
        <ele>139.19999694824</ele>
        <time>2022-02-10T14:28:59Z</time>
      </trkpt>
      <trkpt lat="48.36029" lon="2.742">
        <ele>139.19999694824</ele>
        <time>2022-02-10T14:29:04Z</time>
      </trkpt>
      <trkpt lat="48.36028" lon="2.74199">
        <ele>139.19999694824</ele>
        <time>2022-02-10T14:29:09Z</time>
      </trkpt>
      <trkpt lat="48.36028" lon="2.74199">
        <ele>139.19999694824</ele>
        <time>2022-02-10T14:29:14Z</time>
      </trkpt>
      <trkpt lat="48.36028" lon="2.74198">
        <ele>139.19999694824</ele>
        <time>2022-02-10T14:29:19Z</time>
      </trkpt>
      <trkpt lat="48.36028" lon="2.74198">
        <ele>139.19999694824</ele>
        <time>2022-02-10T14:29:24Z</time>
      </trkpt>
      <trkpt lat="48.36029" lon="2.74199">
        <ele>139.19999694824</ele>
        <time>2022-02-10T14:29:29Z</time>
      </trkpt>
      <trkpt lat="48.3603" lon="2.74199">
        <ele>139.19999694824</ele>
        <time>2022-02-10T14:29:34Z</time>
      </trkpt>
      <trkpt lat="48.36031" lon="2.74197">
        <ele>139.19999694824</ele>
        <time>2022-02-10T14:29:39Z</time>
      </trkpt>
      <trkpt lat="48.36032" lon="2.74199">
        <ele>139.19999694824</ele>
        <time>2022-02-10T14:29:44Z</time>
      </trkpt>
      <trkpt lat="48.3603" lon="2.74198">
        <ele>139.19999694824</ele>
        <time>2022-02-10T14:29:49Z</time>
      </trkpt>
      <trkpt lat="48.36033" lon="2.74203">
        <ele>139.19999694824</ele>
        <time>2022-02-10T14:29:54Z</time>
      </trkpt>
      <trkpt lat="48.36033" lon="2.74206">
        <ele>139.19999694824</ele>
        <time>2022-02-10T14:29:59Z</time>
      </trkpt>
      <trkpt lat="48.36031" lon="2.74206">
        <ele>139.19999694824</ele>
        <time>2022-02-10T14:30:04Z</time>
      </trkpt>
      <trkpt lat="48.36031" lon="2.74205">
        <ele>139.19999694824</ele>
        <time>2022-02-10T14:30:09Z</time>
      </trkpt>
      <trkpt lat="48.36032" lon="2.74204">
        <ele>139.19999694824</ele>
        <time>2022-02-10T14:30:14Z</time>
      </trkpt>
      <trkpt lat="48.36033" lon="2.74204">
        <ele>139.19999694824</ele>
        <time>2022-02-10T14:30:19Z</time>
      </trkpt>
      <trkpt lat="48.36033" lon="2.74204">
        <ele>139.19999694824</ele>
        <time>2022-02-10T14:30:24Z</time>
      </trkpt>
      <trkpt lat="48.36032" lon="2.74204">
        <ele>139.19999694824</ele>
        <time>2022-02-10T14:30:29Z</time>
      </trkpt>
      <trkpt lat="48.36032" lon="2.74205">
        <ele>139.19999694824</ele>
        <time>2022-02-10T14:30:34Z</time>
      </trkpt>
      <trkpt lat="48.36032" lon="2.74206">
        <ele>139.19999694824</ele>
        <time>2022-02-10T14:30:39Z</time>
      </trkpt>
      <trkpt lat="48.36031" lon="2.74206">
        <ele>139.19999694824</ele>
        <time>2022-02-10T14:30:44Z</time>
      </trkpt>
      <trkpt lat="48.36029" lon="2.74206">
        <ele>139.19999694824</ele>
        <time>2022-02-10T14:30:49Z</time>
      </trkpt>
      <trkpt lat="48.3603" lon="2.74206">
        <ele>139.19999694824</ele>
        <time>2022-02-10T14:30:54Z</time>
      </trkpt>
      <trkpt lat="48.36031" lon="2.74206">
        <ele>139.19999694824</ele>
        <time>2022-02-10T14:30:59Z</time>
      </trkpt>
      <trkpt lat="48.36031" lon="2.74206">
        <ele>139.19999694824</ele>
        <time>2022-02-10T14:31:04Z</time>
      </trkpt>
      <trkpt lat="48.36031" lon="2.74206">
        <ele>139.19999694824</ele>
        <time>2022-02-10T14:31:09Z</time>
      </trkpt>
      <trkpt lat="48.3603" lon="2.74206">
        <ele>139.19999694824</ele>
        <time>2022-02-10T14:31:14Z</time>
      </trkpt>
      <trkpt lat="48.3603" lon="2.74206">
        <ele>139.19999694824</ele>
        <time>2022-02-10T14:31:19Z</time>
      </trkpt>
      <trkpt lat="48.36029" lon="2.74206">
        <ele>139.19999694824</ele>
        <time>2022-02-10T14:31:24Z</time>
      </trkpt>
      <trkpt lat="48.36029" lon="2.74206">
        <ele>139.19999694824</ele>
        <time>2022-02-10T14:31:29Z</time>
      </trkpt>
      <trkpt lat="48.36028" lon="2.74205">
        <ele>139.19999694824</ele>
        <time>2022-02-10T14:31:34Z</time>
      </trkpt>
      <trkpt lat="48.36028" lon="2.74204">
        <ele>139.19999694824</ele>
        <time>2022-02-10T14:31:39Z</time>
      </trkpt>
      <trkpt lat="48.36028" lon="2.74203">
        <ele>139.19999694824</ele>
        <time>2022-02-10T14:31:44Z</time>
      </trkpt>
      <trkpt lat="48.36029" lon="2.74203">
        <ele>139.19999694824</ele>
        <time>2022-02-10T14:31:49Z</time>
      </trkpt>
      <trkpt lat="48.36028" lon="2.74203">
        <ele>139.19999694824</ele>
        <time>2022-02-10T14:31:54Z</time>
      </trkpt>
      <trkpt lat="48.36027" lon="2.74202">
        <ele>139.19999694824</ele>
        <time>2022-02-10T14:31:59Z</time>
      </trkpt>
      <trkpt lat="48.36025" lon="2.74202">
        <ele>139.19999694824</ele>
        <time>2022-02-10T14:32:04Z</time>
      </trkpt>
      <trkpt lat="48.36026" lon="2.74202">
        <ele>139.19999694824</ele>
        <time>2022-02-10T14:32:09Z</time>
      </trkpt>
      <trkpt lat="48.36026" lon="2.74201">
        <ele>139.19999694824</ele>
        <time>2022-02-10T14:32:14Z</time>
      </trkpt>
      <trkpt lat="48.36026" lon="2.74202">
        <ele>139.19999694824</ele>
        <time>2022-02-10T14:32:19Z</time>
      </trkpt>
      <trkpt lat="48.36024" lon="2.74202">
        <ele>139.19999694824</ele>
        <time>2022-02-10T14:32:24Z</time>
      </trkpt>
      <trkpt lat="48.36024" lon="2.74202">
        <ele>139.19999694824</ele>
        <time>2022-02-10T14:32:29Z</time>
      </trkpt>
      <trkpt lat="48.36024" lon="2.74202">
        <ele>139.19999694824</ele>
        <time>2022-02-10T14:32:34Z</time>
      </trkpt>
      <trkpt lat="48.36024" lon="2.74204">
        <ele>139.19999694824</ele>
        <time>2022-02-10T14:32:39Z</time>
      </trkpt>
      <trkpt lat="48.36024" lon="2.74205">
        <ele>139.19999694824</ele>
        <time>2022-02-10T14:32:44Z</time>
      </trkpt>
      <trkpt lat="48.36025" lon="2.74206">
        <ele>139.19999694824</ele>
        <time>2022-02-10T14:32:49Z</time>
      </trkpt>
      <trkpt lat="48.36026" lon="2.74204">
        <ele>139.19999694824</ele>
        <time>2022-02-10T14:32:54Z</time>
      </trkpt>
      <trkpt lat="48.36028" lon="2.74204">
        <ele>139.19999694824</ele>
        <time>2022-02-10T14:32:59Z</time>
      </trkpt>
      <trkpt lat="48.36027" lon="2.74203">
        <ele>139.19999694824</ele>
        <time>2022-02-10T14:33:04Z</time>
      </trkpt>
      <trkpt lat="48.36027" lon="2.74201">
        <ele>139.19999694824</ele>
        <time>2022-02-10T14:33:09Z</time>
      </trkpt>
      <trkpt lat="48.36027" lon="2.742">
        <ele>139.19999694824</ele>
        <time>2022-02-10T14:33:14Z</time>
      </trkpt>
      <trkpt lat="48.36028" lon="2.742">
        <ele>139.19999694824</ele>
        <time>2022-02-10T14:33:19Z</time>
      </trkpt>
      <trkpt lat="48.36029" lon="2.742">
        <ele>139.19999694824</ele>
        <time>2022-02-10T14:33:24Z</time>
      </trkpt>
      <trkpt lat="48.3603" lon="2.742">
        <ele>139.19999694824</ele>
        <time>2022-02-10T14:33:29Z</time>
      </trkpt>
      <trkpt lat="48.3603" lon="2.74201">
        <ele>139.19999694824</ele>
        <time>2022-02-10T14:33:34Z</time>
      </trkpt>
      <trkpt lat="48.3603" lon="2.74202">
        <ele>139.19999694824</ele>
        <time>2022-02-10T14:33:39Z</time>
      </trkpt>
      <trkpt lat="48.36031" lon="2.74203">
        <ele>139.19999694824</ele>
        <time>2022-02-10T14:33:44Z</time>
      </trkpt>
      <trkpt lat="48.36032" lon="2.74204">
        <ele>139.19999694824</ele>
        <time>2022-02-10T14:33:49Z</time>
      </trkpt>
      <trkpt lat="48.36034" lon="2.74205">
        <ele>139.19999694824</ele>
        <time>2022-02-10T14:33:54Z</time>
      </trkpt>
      <trkpt lat="48.36036" lon="2.74206">
        <ele>139.19999694824</ele>
        <time>2022-02-10T14:33:59Z</time>
      </trkpt>
      <trkpt lat="48.36035" lon="2.74205">
        <ele>139.19999694824</ele>
        <time>2022-02-10T14:34:04Z</time>
      </trkpt>
      <trkpt lat="48.36034" lon="2.74203">
        <ele>139.19999694824</ele>
        <time>2022-02-10T14:34:09Z</time>
      </trkpt>
      <trkpt lat="48.36034" lon="2.74201">
        <ele>139.19999694824</ele>
        <time>2022-02-10T14:34:14Z</time>
      </trkpt>
      <trkpt lat="48.36033" lon="2.742">
        <ele>139.19999694824</ele>
        <time>2022-02-10T14:34:19Z</time>
      </trkpt>
      <trkpt lat="48.36033" lon="2.74199">
        <ele>139.19999694824</ele>
        <time>2022-02-10T14:34:24Z</time>
      </trkpt>
      <trkpt lat="48.36033" lon="2.74198">
        <ele>139.19999694824</ele>
        <time>2022-02-10T14:34:29Z</time>
      </trkpt>
      <trkpt lat="48.36033" lon="2.74199">
        <ele>139.19999694824</ele>
        <time>2022-02-10T14:34:34Z</time>
      </trkpt>
      <trkpt lat="48.36033" lon="2.74201">
        <ele>139.19999694824</ele>
        <time>2022-02-10T14:34:39Z</time>
      </trkpt>
      <trkpt lat="48.36034" lon="2.74203">
        <ele>139.19999694824</ele>
        <time>2022-02-10T14:34:44Z</time>
      </trkpt>
      <trkpt lat="48.36034" lon="2.74204">
        <ele>139.19999694824</ele>
        <time>2022-02-10T14:34:49Z</time>
      </trkpt>
      <trkpt lat="48.36034" lon="2.74204">
        <ele>139.19999694824</ele>
        <time>2022-02-10T14:34:54Z</time>
      </trkpt>
      <trkpt lat="48.36034" lon="2.74203">
        <ele>139.19999694824</ele>
        <time>2022-02-10T14:34:59Z</time>
      </trkpt>
      <trkpt lat="48.36034" lon="2.74204">
        <ele>139.19999694824</ele>
        <time>2022-02-10T14:35:04Z</time>
      </trkpt>
      <trkpt lat="48.36034" lon="2.74204">
        <ele>139.19999694824</ele>
        <time>2022-02-10T14:35:09Z</time>
      </trkpt>
      <trkpt lat="48.36034" lon="2.74204">
        <ele>139.19999694824</ele>
        <time>2022-02-10T14:35:14Z</time>
      </trkpt>
      <trkpt lat="48.36035" lon="2.74205">
        <ele>139.19999694824</ele>
        <time>2022-02-10T14:35:19Z</time>
      </trkpt>
      <trkpt lat="48.36034" lon="2.74207">
        <ele>139.19999694824</ele>
        <time>2022-02-10T14:35:24Z</time>
      </trkpt>
      <trkpt lat="48.36034" lon="2.74209">
        <ele>139.19999694824</ele>
        <time>2022-02-10T14:35:29Z</time>
      </trkpt>
      <trkpt lat="48.36034" lon="2.74212">
        <ele>139.19999694824</ele>
        <time>2022-02-10T14:35:34Z</time>
      </trkpt>
      <trkpt lat="48.36035" lon="2.74219">
        <ele>139.19999694824</ele>
        <time>2022-02-10T14:35:39Z</time>
      </trkpt>
      <trkpt lat="48.36036" lon="2.74226">
        <ele>139.19999694824</ele>
        <time>2022-02-10T14:35:44Z</time>
      </trkpt>
      <trkpt lat="48.36038" lon="2.74232">
        <ele>139.19999694824</ele>
        <time>2022-02-10T14:35:49Z</time>
      </trkpt>
      <trkpt lat="48.3604" lon="2.74237">
        <ele>139.19999694824</ele>
        <time>2022-02-10T14:35:54Z</time>
      </trkpt>
      <trkpt lat="48.36041" lon="2.74243">
        <ele>139.39999389648</ele>
        <time>2022-02-10T14:35:59Z</time>
      </trkpt>
      <trkpt lat="48.36041" lon="2.74249">
        <ele>139.60000610352</ele>
        <time>2022-02-10T14:36:04Z</time>
      </trkpt>
      <trkpt lat="48.3604" lon="2.74256">
        <ele>139</ele>
        <time>2022-02-10T14:36:09Z</time>
      </trkpt>
      <trkpt lat="48.36038" lon="2.74262">
        <ele>138.80000305176</ele>
        <time>2022-02-10T14:36:14Z</time>
      </trkpt>
      <trkpt lat="48.36036" lon="2.74271">
        <ele>138.39999389648</ele>
        <time>2022-02-10T14:36:19Z</time>
      </trkpt>
      <trkpt lat="48.36038" lon="2.74277">
        <ele>138.39999389648</ele>
        <time>2022-02-10T14:36:24Z</time>
      </trkpt>
      <trkpt lat="48.36039" lon="2.74285">
        <ele>138.39999389648</ele>
        <time>2022-02-10T14:36:29Z</time>
      </trkpt>
      <trkpt lat="48.36038" lon="2.74294">
        <ele>138.39999389648</ele>
        <time>2022-02-10T14:36:34Z</time>
      </trkpt>
      <trkpt lat="48.36039" lon="2.743">
        <ele>138.39999389648</ele>
        <time>2022-02-10T14:36:39Z</time>
      </trkpt>
      <trkpt lat="48.36039" lon="2.74305">
        <ele>138.60000610352</ele>
        <time>2022-02-10T14:36:44Z</time>
      </trkpt>
      <trkpt lat="48.3604" lon="2.7431">
        <ele>138.60000610352</ele>
        <time>2022-02-10T14:36:49Z</time>
      </trkpt>
      <trkpt lat="48.3604" lon="2.74317">
        <ele>138.39999389648</ele>
        <time>2022-02-10T14:36:54Z</time>
      </trkpt>
      <trkpt lat="48.36041" lon="2.74325">
        <ele>138.39999389648</ele>
        <time>2022-02-10T14:36:59Z</time>
      </trkpt>
      <trkpt lat="48.36041" lon="2.74334">
        <ele>138.19999694824</ele>
        <time>2022-02-10T14:37:04Z</time>
      </trkpt>
      <trkpt lat="48.36042" lon="2.74343">
        <ele>138.19999694824</ele>
        <time>2022-02-10T14:37:09Z</time>
      </trkpt>
      <trkpt lat="48.36042" lon="2.74351">
        <ele>138.19999694824</ele>
        <time>2022-02-10T14:37:14Z</time>
      </trkpt>
      <trkpt lat="48.36042" lon="2.74359">
        <ele>138</ele>
        <time>2022-02-10T14:37:19Z</time>
      </trkpt>
      <trkpt lat="48.36042" lon="2.7437">
        <ele>138</ele>
        <time>2022-02-10T14:37:24Z</time>
      </trkpt>
      <trkpt lat="48.36042" lon="2.74378">
        <ele>137.80000305176</ele>
        <time>2022-02-10T14:37:29Z</time>
      </trkpt>
      <trkpt lat="48.36041" lon="2.74385">
        <ele>137.60000610352</ele>
        <time>2022-02-10T14:37:34Z</time>
      </trkpt>
      <trkpt lat="48.36041" lon="2.74392">
        <ele>137.80000305176</ele>
        <time>2022-02-10T14:37:39Z</time>
      </trkpt>
      <trkpt lat="48.3604" lon="2.74398">
        <ele>137.80000305176</ele>
        <time>2022-02-10T14:37:44Z</time>
      </trkpt>
      <trkpt lat="48.36037" lon="2.74406">
        <ele>137.80000305176</ele>
        <time>2022-02-10T14:37:49Z</time>
      </trkpt>
      <trkpt lat="48.36035" lon="2.74412">
        <ele>137.80000305176</ele>
        <time>2022-02-10T14:37:54Z</time>
      </trkpt>
      <trkpt lat="48.36034" lon="2.74419">
        <ele>137.80000305176</ele>
        <time>2022-02-10T14:37:59Z</time>
      </trkpt>
      <trkpt lat="48.36034" lon="2.74427">
        <ele>137.60000610352</ele>
        <time>2022-02-10T14:38:04Z</time>
      </trkpt>
      <trkpt lat="48.36034" lon="2.74435">
        <ele>137.60000610352</ele>
        <time>2022-02-10T14:38:09Z</time>
      </trkpt>
      <trkpt lat="48.36033" lon="2.74444">
        <ele>137.60000610352</ele>
        <time>2022-02-10T14:38:14Z</time>
      </trkpt>
      <trkpt lat="48.36032" lon="2.7445">
        <ele>137.60000610352</ele>
        <time>2022-02-10T14:38:19Z</time>
      </trkpt>
      <trkpt lat="48.36031" lon="2.74456">
        <ele>137.39999389648</ele>
        <time>2022-02-10T14:38:24Z</time>
      </trkpt>
      <trkpt lat="48.36031" lon="2.74462">
        <ele>137.39999389648</ele>
        <time>2022-02-10T14:38:29Z</time>
      </trkpt>
      <trkpt lat="48.36031" lon="2.74468">
        <ele>137.39999389648</ele>
        <time>2022-02-10T14:38:34Z</time>
      </trkpt>
      <trkpt lat="48.3603" lon="2.74475">
        <ele>137.39999389648</ele>
        <time>2022-02-10T14:38:39Z</time>
      </trkpt>
      <trkpt lat="48.36029" lon="2.74483">
        <ele>137.39999389648</ele>
        <time>2022-02-10T14:38:44Z</time>
      </trkpt>
      <trkpt lat="48.36029" lon="2.74491">
        <ele>137.39999389648</ele>
        <time>2022-02-10T14:38:49Z</time>
      </trkpt>
      <trkpt lat="48.36027" lon="2.74498">
        <ele>137.19999694824</ele>
        <time>2022-02-10T14:38:54Z</time>
      </trkpt>
      <trkpt lat="48.36024" lon="2.74504">
        <ele>137.19999694824</ele>
        <time>2022-02-10T14:38:59Z</time>
      </trkpt>
      <trkpt lat="48.36023" lon="2.74511">
        <ele>137.19999694824</ele>
        <time>2022-02-10T14:39:04Z</time>
      </trkpt>
      <trkpt lat="48.36022" lon="2.7452">
        <ele>137</ele>
        <time>2022-02-10T14:39:09Z</time>
      </trkpt>
      <trkpt lat="48.36022" lon="2.74529">
        <ele>137.19999694824</ele>
        <time>2022-02-10T14:39:14Z</time>
      </trkpt>
      <trkpt lat="48.36022" lon="2.74537">
        <ele>137</ele>
        <time>2022-02-10T14:39:19Z</time>
      </trkpt>
      <trkpt lat="48.36022" lon="2.74546">
        <ele>137.19999694824</ele>
        <time>2022-02-10T14:39:24Z</time>
      </trkpt>
      <trkpt lat="48.36022" lon="2.74553">
        <ele>137.39999389648</ele>
        <time>2022-02-10T14:39:29Z</time>
      </trkpt>
      <trkpt lat="48.36023" lon="2.74558">
        <ele>137.39999389648</ele>
        <time>2022-02-10T14:39:34Z</time>
      </trkpt>
      <trkpt lat="48.36022" lon="2.74566">
        <ele>137.60000610352</ele>
        <time>2022-02-10T14:39:39Z</time>
      </trkpt>
      <trkpt lat="48.36022" lon="2.74573">
        <ele>137.60000610352</ele>
        <time>2022-02-10T14:39:44Z</time>
      </trkpt>
      <trkpt lat="48.36017" lon="2.74581">
        <ele>137.60000610352</ele>
        <time>2022-02-10T14:39:49Z</time>
      </trkpt>
      <trkpt lat="48.36013" lon="2.74587">
        <ele>137.80000305176</ele>
        <time>2022-02-10T14:39:54Z</time>
      </trkpt>
      <trkpt lat="48.36011" lon="2.74595">
        <ele>137.80000305176</ele>
        <time>2022-02-10T14:39:59Z</time>
      </trkpt>
      <trkpt lat="48.3601" lon="2.74602">
        <ele>137.80000305176</ele>
        <time>2022-02-10T14:40:04Z</time>
      </trkpt>
      <trkpt lat="48.36011" lon="2.74611">
        <ele>138</ele>
        <time>2022-02-10T14:40:09Z</time>
      </trkpt>
      <trkpt lat="48.36011" lon="2.74617">
        <ele>138</ele>
        <time>2022-02-10T14:40:14Z</time>
      </trkpt>
      <trkpt lat="48.36012" lon="2.74622">
        <ele>138</ele>
        <time>2022-02-10T14:40:19Z</time>
      </trkpt>
      <trkpt lat="48.36012" lon="2.74628">
        <ele>137.80000305176</ele>
        <time>2022-02-10T14:40:24Z</time>
      </trkpt>
      <trkpt lat="48.36014" lon="2.74635">
        <ele>138</ele>
        <time>2022-02-10T14:40:29Z</time>
      </trkpt>
      <trkpt lat="48.36016" lon="2.74642">
        <ele>138</ele>
        <time>2022-02-10T14:40:34Z</time>
      </trkpt>
      <trkpt lat="48.36021" lon="2.74651">
        <ele>138</ele>
        <time>2022-02-10T14:40:39Z</time>
      </trkpt>
      <trkpt lat="48.36024" lon="2.74657">
        <ele>138</ele>
        <time>2022-02-10T14:40:44Z</time>
      </trkpt>
      <trkpt lat="48.36028" lon="2.74664">
        <ele>138</ele>
        <time>2022-02-10T14:40:49Z</time>
      </trkpt>
      <trkpt lat="48.36031" lon="2.74671">
        <ele>138</ele>
        <time>2022-02-10T14:40:54Z</time>
      </trkpt>
      <trkpt lat="48.36033" lon="2.74678">
        <ele>138.19999694824</ele>
        <time>2022-02-10T14:40:59Z</time>
      </trkpt>
      <trkpt lat="48.36035" lon="2.74682">
        <ele>138.19999694824</ele>
        <time>2022-02-10T14:41:04Z</time>
      </trkpt>
      <trkpt lat="48.36037" lon="2.74689">
        <ele>138.19999694824</ele>
        <time>2022-02-10T14:41:09Z</time>
      </trkpt>
      <trkpt lat="48.3604" lon="2.74695">
        <ele>138.19999694824</ele>
        <time>2022-02-10T14:41:14Z</time>
      </trkpt>
      <trkpt lat="48.36043" lon="2.747">
        <ele>138.19999694824</ele>
        <time>2022-02-10T14:41:19Z</time>
      </trkpt>
      <trkpt lat="48.36046" lon="2.74706">
        <ele>138.19999694824</ele>
        <time>2022-02-10T14:41:24Z</time>
      </trkpt>
      <trkpt lat="48.36047" lon="2.74711">
        <ele>138.19999694824</ele>
        <time>2022-02-10T14:41:29Z</time>
      </trkpt>
      <trkpt lat="48.36051" lon="2.74716">
        <ele>138.19999694824</ele>
        <time>2022-02-10T14:41:34Z</time>
      </trkpt>
      <trkpt lat="48.36053" lon="2.74724">
        <ele>138.19999694824</ele>
        <time>2022-02-10T14:41:39Z</time>
      </trkpt>
      <trkpt lat="48.36057" lon="2.74731">
        <ele>138.19999694824</ele>
        <time>2022-02-10T14:41:44Z</time>
      </trkpt>
      <trkpt lat="48.3606" lon="2.74737">
        <ele>138</ele>
        <time>2022-02-10T14:41:49Z</time>
      </trkpt>
      <trkpt lat="48.36063" lon="2.74745">
        <ele>138.19999694824</ele>
        <time>2022-02-10T14:41:54Z</time>
      </trkpt>
      <trkpt lat="48.36066" lon="2.74752">
        <ele>138</ele>
        <time>2022-02-10T14:41:59Z</time>
      </trkpt>
      <trkpt lat="48.36069" lon="2.74758">
        <ele>138.19999694824</ele>
        <time>2022-02-10T14:42:04Z</time>
      </trkpt>
      <trkpt lat="48.36072" lon="2.74763">
        <ele>138.19999694824</ele>
        <time>2022-02-10T14:42:09Z</time>
      </trkpt>
      <trkpt lat="48.36076" lon="2.74772">
        <ele>138.39999389648</ele>
        <time>2022-02-10T14:42:14Z</time>
      </trkpt>
      <trkpt lat="48.36079" lon="2.74779">
        <ele>138.39999389648</ele>
        <time>2022-02-10T14:42:19Z</time>
      </trkpt>
      <trkpt lat="48.3608" lon="2.74784">
        <ele>138.39999389648</ele>
        <time>2022-02-10T14:42:24Z</time>
      </trkpt>
      <trkpt lat="48.36083" lon="2.74789">
        <ele>138.39999389648</ele>
        <time>2022-02-10T14:42:29Z</time>
      </trkpt>
      <trkpt lat="48.36085" lon="2.74796">
        <ele>138.39999389648</ele>
        <time>2022-02-10T14:42:34Z</time>
      </trkpt>
      <trkpt lat="48.36089" lon="2.74803">
        <ele>138.60000610352</ele>
        <time>2022-02-10T14:42:39Z</time>
      </trkpt>
      <trkpt lat="48.36092" lon="2.74809">
        <ele>138.80000305176</ele>
        <time>2022-02-10T14:42:44Z</time>
      </trkpt>
      <trkpt lat="48.36094" lon="2.74816">
        <ele>138.80000305176</ele>
        <time>2022-02-10T14:42:49Z</time>
      </trkpt>
      <trkpt lat="48.36096" lon="2.74821">
        <ele>139</ele>
        <time>2022-02-10T14:42:54Z</time>
      </trkpt>
      <trkpt lat="48.36099" lon="2.74826">
        <ele>139</ele>
        <time>2022-02-10T14:42:59Z</time>
      </trkpt>
      <trkpt lat="48.36101" lon="2.74834">
        <ele>139.19999694824</ele>
        <time>2022-02-10T14:43:04Z</time>
      </trkpt>
      <trkpt lat="48.36104" lon="2.74841">
        <ele>139.19999694824</ele>
        <time>2022-02-10T14:43:09Z</time>
      </trkpt>
      <trkpt lat="48.36106" lon="2.74849">
        <ele>139.39999389648</ele>
        <time>2022-02-10T14:43:14Z</time>
      </trkpt>
      <trkpt lat="48.36108" lon="2.74856">
        <ele>139.39999389648</ele>
        <time>2022-02-10T14:43:19Z</time>
      </trkpt>
      <trkpt lat="48.36108" lon="2.74863">
        <ele>139.39999389648</ele>
        <time>2022-02-10T14:43:24Z</time>
      </trkpt>
      <trkpt lat="48.36109" lon="2.7487">
        <ele>139.19999694824</ele>
        <time>2022-02-10T14:43:29Z</time>
      </trkpt>
      <trkpt lat="48.36113" lon="2.74878">
        <ele>139.19999694824</ele>
        <time>2022-02-10T14:43:34Z</time>
      </trkpt>
      <trkpt lat="48.36113" lon="2.74886">
        <ele>139.39999389648</ele>
        <time>2022-02-10T14:43:39Z</time>
      </trkpt>
      <trkpt lat="48.36114" lon="2.74892">
        <ele>139.19999694824</ele>
        <time>2022-02-10T14:43:44Z</time>
      </trkpt>
      <trkpt lat="48.36117" lon="2.74899">
        <ele>139.19999694824</ele>
        <time>2022-02-10T14:43:49Z</time>
      </trkpt>
      <trkpt lat="48.36119" lon="2.74907">
        <ele>139.19999694824</ele>
        <time>2022-02-10T14:43:54Z</time>
      </trkpt>
      <trkpt lat="48.36122" lon="2.74915">
        <ele>139</ele>
        <time>2022-02-10T14:43:59Z</time>
      </trkpt>
      <trkpt lat="48.36122" lon="2.74921">
        <ele>139</ele>
        <time>2022-02-10T14:44:04Z</time>
      </trkpt>
      <trkpt lat="48.36125" lon="2.74928">
        <ele>139</ele>
        <time>2022-02-10T14:44:09Z</time>
      </trkpt>
      <trkpt lat="48.36125" lon="2.74935">
        <ele>139</ele>
        <time>2022-02-10T14:44:14Z</time>
      </trkpt>
      <trkpt lat="48.36125" lon="2.74943">
        <ele>139</ele>
        <time>2022-02-10T14:44:19Z</time>
      </trkpt>
      <trkpt lat="48.36123" lon="2.74947">
        <ele>139</ele>
        <time>2022-02-10T14:44:24Z</time>
      </trkpt>
      <trkpt lat="48.36123" lon="2.74948">
        <ele>139.39999389648</ele>
        <time>2022-02-10T14:44:29Z</time>
      </trkpt>
      <trkpt lat="48.36122" lon="2.74948">
        <ele>139.39999389648</ele>
        <time>2022-02-10T14:44:34Z</time>
      </trkpt>
      <trkpt lat="48.36121" lon="2.74949">
        <ele>139.39999389648</ele>
        <time>2022-02-10T14:44:39Z</time>
      </trkpt>
      <trkpt lat="48.36121" lon="2.7495">
        <ele>139.39999389648</ele>
        <time>2022-02-10T14:44:44Z</time>
      </trkpt>
      <trkpt lat="48.36118" lon="2.74955">
        <ele>139.39999389648</ele>
        <time>2022-02-10T14:44:49Z</time>
      </trkpt>
      <trkpt lat="48.36117" lon="2.74956">
        <ele>139.39999389648</ele>
        <time>2022-02-10T14:44:54Z</time>
      </trkpt>
      <trkpt lat="48.36116" lon="2.74957">
        <ele>139.39999389648</ele>
        <time>2022-02-10T14:44:59Z</time>
      </trkpt>
      <trkpt lat="48.36116" lon="2.74958">
        <ele>139.39999389648</ele>
        <time>2022-02-10T14:45:04Z</time>
      </trkpt>
      <trkpt lat="48.36114" lon="2.74961">
        <ele>139.39999389648</ele>
        <time>2022-02-10T14:45:09Z</time>
      </trkpt>
      <trkpt lat="48.36113" lon="2.74966">
        <ele>139.39999389648</ele>
        <time>2022-02-10T14:45:14Z</time>
      </trkpt>
      <trkpt lat="48.36114" lon="2.74972">
        <ele>139.39999389648</ele>
        <time>2022-02-10T14:45:19Z</time>
      </trkpt>
      <trkpt lat="48.36113" lon="2.74978">
        <ele>139.39999389648</ele>
        <time>2022-02-10T14:45:24Z</time>
      </trkpt>
      <trkpt lat="48.36113" lon="2.74984">
        <ele>139.39999389648</ele>
        <time>2022-02-10T14:45:29Z</time>
      </trkpt>
      <trkpt lat="48.36112" lon="2.74989">
        <ele>139.39999389648</ele>
        <time>2022-02-10T14:45:34Z</time>
      </trkpt>
      <trkpt lat="48.36114" lon="2.74993">
        <ele>139.39999389648</ele>
        <time>2022-02-10T14:45:39Z</time>
      </trkpt>
      <trkpt lat="48.36117" lon="2.74998">
        <ele>139.39999389648</ele>
        <time>2022-02-10T14:45:44Z</time>
      </trkpt>
      <trkpt lat="48.36121" lon="2.75">
        <ele>139.39999389648</ele>
        <time>2022-02-10T14:45:49Z</time>
      </trkpt>
      <trkpt lat="48.36126" lon="2.75">
        <ele>139.39999389648</ele>
        <time>2022-02-10T14:45:54Z</time>
      </trkpt>
      <trkpt lat="48.36129" lon="2.75006">
        <ele>139</ele>
        <time>2022-02-10T14:45:59Z</time>
      </trkpt>
      <trkpt lat="48.36131" lon="2.75014">
        <ele>138.80000305176</ele>
        <time>2022-02-10T14:46:04Z</time>
      </trkpt>
      <trkpt lat="48.36133" lon="2.75024">
        <ele>138.80000305176</ele>
        <time>2022-02-10T14:46:09Z</time>
      </trkpt>
      <trkpt lat="48.36133" lon="2.75032">
        <ele>138.80000305176</ele>
        <time>2022-02-10T14:46:14Z</time>
      </trkpt>
      <trkpt lat="48.36133" lon="2.75039">
        <ele>138.80000305176</ele>
        <time>2022-02-10T14:46:19Z</time>
      </trkpt>
      <trkpt lat="48.36132" lon="2.75048">
        <ele>138.80000305176</ele>
        <time>2022-02-10T14:46:24Z</time>
      </trkpt>
      <trkpt lat="48.36132" lon="2.75057">
        <ele>138.80000305176</ele>
        <time>2022-02-10T14:46:29Z</time>
      </trkpt>
      <trkpt lat="48.36131" lon="2.75066">
        <ele>138.80000305176</ele>
        <time>2022-02-10T14:46:34Z</time>
      </trkpt>
      <trkpt lat="48.36129" lon="2.75073">
        <ele>138.80000305176</ele>
        <time>2022-02-10T14:46:39Z</time>
      </trkpt>
      <trkpt lat="48.36128" lon="2.75081">
        <ele>138.80000305176</ele>
        <time>2022-02-10T14:46:44Z</time>
      </trkpt>
      <trkpt lat="48.36127" lon="2.75089">
        <ele>138.80000305176</ele>
        <time>2022-02-10T14:46:49Z</time>
      </trkpt>
      <trkpt lat="48.36125" lon="2.75097">
        <ele>138.80000305176</ele>
        <time>2022-02-10T14:46:54Z</time>
      </trkpt>
      <trkpt lat="48.36125" lon="2.75105">
        <ele>138.80000305176</ele>
        <time>2022-02-10T14:46:59Z</time>
      </trkpt>
      <trkpt lat="48.36123" lon="2.75114">
        <ele>139</ele>
        <time>2022-02-10T14:47:04Z</time>
      </trkpt>
      <trkpt lat="48.36122" lon="2.75122">
        <ele>139</ele>
        <time>2022-02-10T14:47:09Z</time>
      </trkpt>
      <trkpt lat="48.36123" lon="2.75131">
        <ele>139.19999694824</ele>
        <time>2022-02-10T14:47:14Z</time>
      </trkpt>
      <trkpt lat="48.36123" lon="2.7514">
        <ele>139.19999694824</ele>
        <time>2022-02-10T14:47:19Z</time>
      </trkpt>
      <trkpt lat="48.36121" lon="2.75148">
        <ele>139.19999694824</ele>
        <time>2022-02-10T14:47:24Z</time>
      </trkpt>
      <trkpt lat="48.3612" lon="2.75156">
        <ele>139.39999389648</ele>
        <time>2022-02-10T14:47:29Z</time>
      </trkpt>
      <trkpt lat="48.36117" lon="2.75165">
        <ele>139.39999389648</ele>
        <time>2022-02-10T14:47:34Z</time>
      </trkpt>
      <trkpt lat="48.36115" lon="2.7517">
        <ele>139.60000610352</ele>
        <time>2022-02-10T14:47:39Z</time>
      </trkpt>
      <trkpt lat="48.36114" lon="2.75177">
        <ele>139.60000610352</ele>
        <time>2022-02-10T14:47:44Z</time>
      </trkpt>
      <trkpt lat="48.36114" lon="2.75185">
        <ele>139.60000610352</ele>
        <time>2022-02-10T14:47:49Z</time>
      </trkpt>
      <trkpt lat="48.36111" lon="2.7519">
        <ele>139.60000610352</ele>
        <time>2022-02-10T14:47:54Z</time>
      </trkpt>
      <trkpt lat="48.36106" lon="2.75192">
        <ele>139.80000305176</ele>
        <time>2022-02-10T14:47:59Z</time>
      </trkpt>
      <trkpt lat="48.36102" lon="2.75193">
        <ele>140</ele>
        <time>2022-02-10T14:48:04Z</time>
      </trkpt>
      <trkpt lat="48.36096" lon="2.75193">
        <ele>140.19999694824</ele>
        <time>2022-02-10T14:48:09Z</time>
      </trkpt>
      <trkpt lat="48.36092" lon="2.75194">
        <ele>140.19999694824</ele>
        <time>2022-02-10T14:48:14Z</time>
      </trkpt>
      <trkpt lat="48.36089" lon="2.75193">
        <ele>140.19999694824</ele>
        <time>2022-02-10T14:48:19Z</time>
      </trkpt>
      <trkpt lat="48.36085" lon="2.75194">
        <ele>140</ele>
        <time>2022-02-10T14:48:24Z</time>
      </trkpt>
      <trkpt lat="48.36081" lon="2.75195">
        <ele>140</ele>
        <time>2022-02-10T14:48:29Z</time>
      </trkpt>
      <trkpt lat="48.36076" lon="2.75197">
        <ele>139.80000305176</ele>
        <time>2022-02-10T14:48:34Z</time>
      </trkpt>
      <trkpt lat="48.36073" lon="2.75204">
        <ele>139.80000305176</ele>
        <time>2022-02-10T14:48:39Z</time>
      </trkpt>
      <trkpt lat="48.36071" lon="2.7521">
        <ele>139.80000305176</ele>
        <time>2022-02-10T14:48:44Z</time>
      </trkpt>
      <trkpt lat="48.36071" lon="2.75216">
        <ele>139.80000305176</ele>
        <time>2022-02-10T14:48:49Z</time>
      </trkpt>
      <trkpt lat="48.36071" lon="2.75222">
        <ele>139.80000305176</ele>
        <time>2022-02-10T14:48:54Z</time>
      </trkpt>
      <trkpt lat="48.36072" lon="2.75228">
        <ele>139.60000610352</ele>
        <time>2022-02-10T14:48:59Z</time>
      </trkpt>
      <trkpt lat="48.36073" lon="2.75232">
        <ele>139.60000610352</ele>
        <time>2022-02-10T14:49:04Z</time>
      </trkpt>
      <trkpt lat="48.36073" lon="2.75235">
        <ele>139.60000610352</ele>
        <time>2022-02-10T14:49:09Z</time>
      </trkpt>
      <trkpt lat="48.36073" lon="2.75237">
        <ele>139.60000610352</ele>
        <time>2022-02-10T14:49:14Z</time>
      </trkpt>
      <trkpt lat="48.36072" lon="2.75239">
        <ele>139.60000610352</ele>
        <time>2022-02-10T14:49:19Z</time>
      </trkpt>
      <trkpt lat="48.36072" lon="2.75239">
        <ele>139.60000610352</ele>
        <time>2022-02-10T14:49:24Z</time>
      </trkpt>
      <trkpt lat="48.36072" lon="2.75239">
        <ele>139.60000610352</ele>
        <time>2022-02-10T14:49:29Z</time>
      </trkpt>
      <trkpt lat="48.36071" lon="2.7524">
        <ele>139.80000305176</ele>
        <time>2022-02-10T14:49:34Z</time>
      </trkpt>
      <trkpt lat="48.36071" lon="2.7524">
        <ele>139.80000305176</ele>
        <time>2022-02-10T14:49:39Z</time>
      </trkpt>
      <trkpt lat="48.36071" lon="2.75242">
        <ele>140</ele>
        <time>2022-02-10T14:49:44Z</time>
      </trkpt>
      <trkpt lat="48.36071" lon="2.75243">
        <ele>140</ele>
        <time>2022-02-10T14:49:49Z</time>
      </trkpt>
      <trkpt lat="48.36071" lon="2.75243">
        <ele>140.19999694824</ele>
        <time>2022-02-10T14:49:54Z</time>
      </trkpt>
      <trkpt lat="48.36069" lon="2.75243">
        <ele>140.19999694824</ele>
        <time>2022-02-10T14:49:59Z</time>
      </trkpt>
      <trkpt lat="48.36069" lon="2.75243">
        <ele>140</ele>
        <time>2022-02-10T14:50:04Z</time>
      </trkpt>
      <trkpt lat="48.36069" lon="2.75242">
        <ele>140</ele>
        <time>2022-02-10T14:50:09Z</time>
      </trkpt>
      <trkpt lat="48.3607" lon="2.75242">
        <ele>140</ele>
        <time>2022-02-10T14:50:14Z</time>
      </trkpt>
      <trkpt lat="48.3607" lon="2.75244">
        <ele>140</ele>
        <time>2022-02-10T14:50:19Z</time>
      </trkpt>
      <trkpt lat="48.36072" lon="2.75246">
        <ele>140</ele>
        <time>2022-02-10T14:50:24Z</time>
      </trkpt>
      <trkpt lat="48.36074" lon="2.7525">
        <ele>140</ele>
        <time>2022-02-10T14:50:29Z</time>
      </trkpt>
      <trkpt lat="48.36076" lon="2.75253">
        <ele>140</ele>
        <time>2022-02-10T14:50:34Z</time>
      </trkpt>
      <trkpt lat="48.36079" lon="2.75256">
        <ele>140</ele>
        <time>2022-02-10T14:50:39Z</time>
      </trkpt>
      <trkpt lat="48.36083" lon="2.75259">
        <ele>140</ele>
        <time>2022-02-10T14:50:44Z</time>
      </trkpt>
      <trkpt lat="48.36087" lon="2.75262">
        <ele>140</ele>
        <time>2022-02-10T14:50:49Z</time>
      </trkpt>
      <trkpt lat="48.36092" lon="2.75263">
        <ele>140</ele>
        <time>2022-02-10T14:50:54Z</time>
      </trkpt>
      <trkpt lat="48.36095" lon="2.75266">
        <ele>140</ele>
        <time>2022-02-10T14:50:59Z</time>
      </trkpt>
      <trkpt lat="48.36095" lon="2.75267">
        <ele>140</ele>
        <time>2022-02-10T14:51:04Z</time>
      </trkpt>
      <trkpt lat="48.36095" lon="2.75268">
        <ele>140</ele>
        <time>2022-02-10T14:51:09Z</time>
      </trkpt>
      <trkpt lat="48.36096" lon="2.75268">
        <ele>140</ele>
        <time>2022-02-10T14:51:14Z</time>
      </trkpt>
      <trkpt lat="48.36097" lon="2.7527">
        <ele>140</ele>
        <time>2022-02-10T14:51:19Z</time>
      </trkpt>
      <trkpt lat="48.36097" lon="2.75272">
        <ele>140</ele>
        <time>2022-02-10T14:51:24Z</time>
      </trkpt>
      <trkpt lat="48.36098" lon="2.75274">
        <ele>140</ele>
        <time>2022-02-10T14:51:29Z</time>
      </trkpt>
      <trkpt lat="48.36099" lon="2.75276">
        <ele>140</ele>
        <time>2022-02-10T14:51:34Z</time>
      </trkpt>
      <trkpt lat="48.361" lon="2.75276">
        <ele>140</ele>
        <time>2022-02-10T14:51:39Z</time>
      </trkpt>
      <trkpt lat="48.36101" lon="2.75278">
        <ele>140</ele>
        <time>2022-02-10T14:51:44Z</time>
      </trkpt>
      <trkpt lat="48.36103" lon="2.75278">
        <ele>140</ele>
        <time>2022-02-10T14:51:49Z</time>
      </trkpt>
      <trkpt lat="48.36104" lon="2.75278">
        <ele>140</ele>
        <time>2022-02-10T14:51:54Z</time>
      </trkpt>
      <trkpt lat="48.36106" lon="2.75279">
        <ele>140</ele>
        <time>2022-02-10T14:51:59Z</time>
      </trkpt>
      <trkpt lat="48.36108" lon="2.7528">
        <ele>140</ele>
        <time>2022-02-10T14:52:04Z</time>
      </trkpt>
      <trkpt lat="48.3611" lon="2.75281">
        <ele>131.60000610352</ele>
        <time>2022-02-10T14:52:09Z</time>
      </trkpt>
      <trkpt lat="48.36113" lon="2.75285">
        <ele>131.19999694824</ele>
        <time>2022-02-10T14:52:14Z</time>
      </trkpt>
      <trkpt lat="48.36114" lon="2.75289">
        <ele>130.60000610352</ele>
        <time>2022-02-10T14:52:19Z</time>
      </trkpt>
      <trkpt lat="48.36115" lon="2.75292">
        <ele>130</ele>
        <time>2022-02-10T14:52:24Z</time>
      </trkpt>
      <trkpt lat="48.36115" lon="2.75295">
        <ele>129.19999694824</ele>
        <time>2022-02-10T14:52:29Z</time>
      </trkpt>
      <trkpt lat="48.36115" lon="2.75297">
        <ele>128.60000610352</ele>
        <time>2022-02-10T14:52:34Z</time>
      </trkpt>
      <trkpt lat="48.36115" lon="2.753">
        <ele>127.80000305176</ele>
        <time>2022-02-10T14:52:39Z</time>
      </trkpt>
      <trkpt lat="48.36115" lon="2.75307">
        <ele>127</ele>
        <time>2022-02-10T14:52:44Z</time>
      </trkpt>
      <trkpt lat="48.36117" lon="2.75313">
        <ele>126.40000152588</ele>
        <time>2022-02-10T14:52:49Z</time>
      </trkpt>
      <trkpt lat="48.36121" lon="2.75319">
        <ele>126</ele>
        <time>2022-02-10T14:52:54Z</time>
      </trkpt>
      <trkpt lat="48.36122" lon="2.75325">
        <ele>125.19999694824</ele>
        <time>2022-02-10T14:52:59Z</time>
      </trkpt>
      <trkpt lat="48.36123" lon="2.75332">
        <ele>124.80000305176</ele>
        <time>2022-02-10T14:53:04Z</time>
      </trkpt>
      <trkpt lat="48.36124" lon="2.75339">
        <ele>124.19999694824</ele>
        <time>2022-02-10T14:53:09Z</time>
      </trkpt>
      <trkpt lat="48.36126" lon="2.75345">
        <ele>123.59999847412</ele>
        <time>2022-02-10T14:53:14Z</time>
      </trkpt>
      <trkpt lat="48.36127" lon="2.75353">
        <ele>122.59999847412</ele>
        <time>2022-02-10T14:53:19Z</time>
      </trkpt>
      <trkpt lat="48.36129" lon="2.75358">
        <ele>121.59999847412</ele>
        <time>2022-02-10T14:53:24Z</time>
      </trkpt>
      <trkpt lat="48.36131" lon="2.75362">
        <ele>120.80000305176</ele>
        <time>2022-02-10T14:53:29Z</time>
      </trkpt>
      <trkpt lat="48.36133" lon="2.75369">
        <ele>120.19999694824</ele>
        <time>2022-02-10T14:53:34Z</time>
      </trkpt>
      <trkpt lat="48.36135" lon="2.75374">
        <ele>119.40000152588</ele>
        <time>2022-02-10T14:53:39Z</time>
      </trkpt>
      <trkpt lat="48.36136" lon="2.75381">
        <ele>118.59999847412</ele>
        <time>2022-02-10T14:53:44Z</time>
      </trkpt>
      <trkpt lat="48.36137" lon="2.75386">
        <ele>117.59999847412</ele>
        <time>2022-02-10T14:53:49Z</time>
      </trkpt>
      <trkpt lat="48.36137" lon="2.75393">
        <ele>116.80000305176</ele>
        <time>2022-02-10T14:53:54Z</time>
      </trkpt>
      <trkpt lat="48.36138" lon="2.75398">
        <ele>116.19999694824</ele>
        <time>2022-02-10T14:53:59Z</time>
      </trkpt>
      <trkpt lat="48.36138" lon="2.75406">
        <ele>115.40000152588</ele>
        <time>2022-02-10T14:54:04Z</time>
      </trkpt>
      <trkpt lat="48.36138" lon="2.75408">
        <ele>114.80000305176</ele>
        <time>2022-02-10T14:54:09Z</time>
      </trkpt>
      <trkpt lat="48.36139" lon="2.75408">
        <ele>114.80000305176</ele>
        <time>2022-02-10T14:54:14Z</time>
      </trkpt>
      <trkpt lat="48.36139" lon="2.7541">
        <ele>114.40000152588</ele>
        <time>2022-02-10T14:54:19Z</time>
      </trkpt>
      <trkpt lat="48.3614" lon="2.75415">
        <ele>113.80000305176</ele>
        <time>2022-02-10T14:54:24Z</time>
      </trkpt>
      <trkpt lat="48.36141" lon="2.75422">
        <ele>113</ele>
        <time>2022-02-10T14:54:29Z</time>
      </trkpt>
      <trkpt lat="48.36144" lon="2.75427">
        <ele>112.19999694824</ele>
        <time>2022-02-10T14:54:34Z</time>
      </trkpt>
      <trkpt lat="48.36146" lon="2.75434">
        <ele>111.59999847412</ele>
        <time>2022-02-10T14:54:39Z</time>
      </trkpt>
      <trkpt lat="48.36147" lon="2.75439">
        <ele>111</ele>
        <time>2022-02-10T14:54:44Z</time>
      </trkpt>
      <trkpt lat="48.36151" lon="2.75443">
        <ele>110.19999694824</ele>
        <time>2022-02-10T14:54:49Z</time>
      </trkpt>
      <trkpt lat="48.36156" lon="2.75448">
        <ele>109.40000152588</ele>
        <time>2022-02-10T14:54:54Z</time>
      </trkpt>
      <trkpt lat="48.36158" lon="2.75454">
        <ele>108.59999847412</ele>
        <time>2022-02-10T14:54:59Z</time>
      </trkpt>
      <trkpt lat="48.3616" lon="2.7546">
        <ele>108</ele>
        <time>2022-02-10T14:55:04Z</time>
      </trkpt>
      <trkpt lat="48.3616" lon="2.75468">
        <ele>107.40000152588</ele>
        <time>2022-02-10T14:55:09Z</time>
      </trkpt>
      <trkpt lat="48.3616" lon="2.75475">
        <ele>107</ele>
        <time>2022-02-10T14:55:14Z</time>
      </trkpt>
      <trkpt lat="48.36161" lon="2.75483">
        <ele>106.59999847412</ele>
        <time>2022-02-10T14:55:19Z</time>
      </trkpt>
      <trkpt lat="48.36163" lon="2.75489">
        <ele>106</ele>
        <time>2022-02-10T14:55:24Z</time>
      </trkpt>
      <trkpt lat="48.36166" lon="2.75496">
        <ele>105.80000305176</ele>
        <time>2022-02-10T14:55:29Z</time>
      </trkpt>
      <trkpt lat="48.36169" lon="2.75502">
        <ele>105.40000152588</ele>
        <time>2022-02-10T14:55:34Z</time>
      </trkpt>
      <trkpt lat="48.36173" lon="2.75508">
        <ele>105</ele>
        <time>2022-02-10T14:55:39Z</time>
      </trkpt>
      <trkpt lat="48.36175" lon="2.75515">
        <ele>104.59999847412</ele>
        <time>2022-02-10T14:55:44Z</time>
      </trkpt>
      <trkpt lat="48.36176" lon="2.75522">
        <ele>104.19999694824</ele>
        <time>2022-02-10T14:55:49Z</time>
      </trkpt>
      <trkpt lat="48.36177" lon="2.75529">
        <ele>104</ele>
        <time>2022-02-10T14:55:54Z</time>
      </trkpt>
      <trkpt lat="48.36179" lon="2.75535">
        <ele>103.80000305176</ele>
        <time>2022-02-10T14:55:59Z</time>
      </trkpt>
      <trkpt lat="48.3618" lon="2.75541">
        <ele>103.59999847412</ele>
        <time>2022-02-10T14:56:04Z</time>
      </trkpt>
      <trkpt lat="48.36182" lon="2.75549">
        <ele>103</ele>
        <time>2022-02-10T14:56:09Z</time>
      </trkpt>
      <trkpt lat="48.36184" lon="2.75556">
        <ele>102.59999847412</ele>
        <time>2022-02-10T14:56:14Z</time>
      </trkpt>
      <trkpt lat="48.36187" lon="2.75563">
        <ele>102.40000152588</ele>
        <time>2022-02-10T14:56:19Z</time>
      </trkpt>
      <trkpt lat="48.36189" lon="2.75571">
        <ele>102</ele>
        <time>2022-02-10T14:56:24Z</time>
      </trkpt>
      <trkpt lat="48.3619" lon="2.7558">
        <ele>101.80000305176</ele>
        <time>2022-02-10T14:56:29Z</time>
      </trkpt>
      <trkpt lat="48.3619" lon="2.75586">
        <ele>101.59999847412</ele>
        <time>2022-02-10T14:56:34Z</time>
      </trkpt>
      <trkpt lat="48.3619" lon="2.75588">
        <ele>101.59999847412</ele>
        <time>2022-02-10T14:56:39Z</time>
      </trkpt>
      <trkpt lat="48.3619" lon="2.75589">
        <ele>101.59999847412</ele>
        <time>2022-02-10T14:56:44Z</time>
      </trkpt>
      <trkpt lat="48.36191" lon="2.7559">
        <ele>101.40000152588</ele>
        <time>2022-02-10T14:56:49Z</time>
      </trkpt>
      <trkpt lat="48.36192" lon="2.75591">
        <ele>101.40000152588</ele>
        <time>2022-02-10T14:56:54Z</time>
      </trkpt>
      <trkpt lat="48.36194" lon="2.75594">
        <ele>101.59999847412</ele>
        <time>2022-02-10T14:56:59Z</time>
      </trkpt>
      <trkpt lat="48.36194" lon="2.75599">
        <ele>101.40000152588</ele>
        <time>2022-02-10T14:57:04Z</time>
      </trkpt>
      <trkpt lat="48.36189" lon="2.75602">
        <ele>101.40000152588</ele>
        <time>2022-02-10T14:57:09Z</time>
      </trkpt>
      <trkpt lat="48.36185" lon="2.75605">
        <ele>101.59999847412</ele>
        <time>2022-02-10T14:57:14Z</time>
      </trkpt>
      <trkpt lat="48.36182" lon="2.75607">
        <ele>101.80000305176</ele>
        <time>2022-02-10T14:57:19Z</time>
      </trkpt>
      <trkpt lat="48.36178" lon="2.75609">
        <ele>102</ele>
        <time>2022-02-10T14:57:24Z</time>
      </trkpt>
      <trkpt lat="48.36174" lon="2.7561">
        <ele>102.40000152588</ele>
        <time>2022-02-10T14:57:29Z</time>
      </trkpt>
      <trkpt lat="48.3617" lon="2.75613">
        <ele>102.59999847412</ele>
        <time>2022-02-10T14:57:34Z</time>
      </trkpt>
      <trkpt lat="48.36167" lon="2.75615">
        <ele>103</ele>
        <time>2022-02-10T14:57:39Z</time>
      </trkpt>
      <trkpt lat="48.36163" lon="2.75618">
        <ele>103.40000152588</ele>
        <time>2022-02-10T14:57:44Z</time>
      </trkpt>
      <trkpt lat="48.36163" lon="2.7562">
        <ele>103.80000305176</ele>
        <time>2022-02-10T14:57:49Z</time>
      </trkpt>
      <trkpt lat="48.36156" lon="2.75626">
        <ele>103.80000305176</ele>
        <time>2022-02-10T14:57:54Z</time>
      </trkpt>
      <trkpt lat="48.36152" lon="2.7563">
        <ele>103.40000152588</ele>
        <time>2022-02-10T14:57:59Z</time>
      </trkpt>
      <trkpt lat="48.36152" lon="2.75632">
        <ele>103</ele>
        <time>2022-02-10T14:58:04Z</time>
      </trkpt>
      <trkpt lat="48.36151" lon="2.75635">
        <ele>102.59999847412</ele>
        <time>2022-02-10T14:58:09Z</time>
      </trkpt>
      <trkpt lat="48.3615" lon="2.75637">
        <ele>101.80000305176</ele>
        <time>2022-02-10T14:58:14Z</time>
      </trkpt>
      <trkpt lat="48.36149" lon="2.7564">
        <ele>101.80000305176</ele>
        <time>2022-02-10T14:58:19Z</time>
      </trkpt>
      <trkpt lat="48.36149" lon="2.75643">
        <ele>101.80000305176</ele>
        <time>2022-02-10T14:58:24Z</time>
      </trkpt>
      <trkpt lat="48.36147" lon="2.75645">
        <ele>101.80000305176</ele>
        <time>2022-02-10T14:58:29Z</time>
      </trkpt>
      <trkpt lat="48.36146" lon="2.75647">
        <ele>101.80000305176</ele>
        <time>2022-02-10T14:58:34Z</time>
      </trkpt>
      <trkpt lat="48.36142" lon="2.75648">
        <ele>101.80000305176</ele>
        <time>2022-02-10T14:58:39Z</time>
      </trkpt>
      <trkpt lat="48.36139" lon="2.75651">
        <ele>101.80000305176</ele>
        <time>2022-02-10T14:58:44Z</time>
      </trkpt>
      <trkpt lat="48.36135" lon="2.75655">
        <ele>98.400001525879</ele>
        <time>2022-02-10T14:58:49Z</time>
      </trkpt>
      <trkpt lat="48.36131" lon="2.75658">
        <ele>97.199996948242</ele>
        <time>2022-02-10T14:58:54Z</time>
      </trkpt>
      <trkpt lat="48.36127" lon="2.75662">
        <ele>96.599998474121</ele>
        <time>2022-02-10T14:58:59Z</time>
      </trkpt>
      <trkpt lat="48.36121" lon="2.75668">
        <ele>95.800003051758</ele>
        <time>2022-02-10T14:59:04Z</time>
      </trkpt>
      <trkpt lat="48.3611" lon="2.7568">
        <ele>95.199996948242</ele>
        <time>2022-02-10T14:59:09Z</time>
      </trkpt>
      <trkpt lat="48.36102" lon="2.75685">
        <ele>94.800003051758</ele>
        <time>2022-02-10T14:59:14Z</time>
      </trkpt>
      <trkpt lat="48.36096" lon="2.75689">
        <ele>94.400001525879</ele>
        <time>2022-02-10T14:59:19Z</time>
      </trkpt>
      <trkpt lat="48.36092" lon="2.75692">
        <ele>94.199996948242</ele>
        <time>2022-02-10T14:59:24Z</time>
      </trkpt>
      <trkpt lat="48.3609" lon="2.75695">
        <ele>94</ele>
        <time>2022-02-10T14:59:29Z</time>
      </trkpt>
      <trkpt lat="48.36089" lon="2.75697">
        <ele>93.800003051758</ele>
        <time>2022-02-10T14:59:34Z</time>
      </trkpt>
      <trkpt lat="48.36083" lon="2.75702">
        <ele>93.599998474121</ele>
        <time>2022-02-10T14:59:39Z</time>
      </trkpt>
      <trkpt lat="48.36077" lon="2.75708">
        <ele>93.400001525879</ele>
        <time>2022-02-10T14:59:44Z</time>
      </trkpt>
      <trkpt lat="48.36072" lon="2.75713">
        <ele>93.199996948242</ele>
        <time>2022-02-10T14:59:49Z</time>
      </trkpt>
      <trkpt lat="48.36067" lon="2.75715">
        <ele>93.199996948242</ele>
        <time>2022-02-10T14:59:54Z</time>
      </trkpt>
      <trkpt lat="48.36062" lon="2.75719">
        <ele>93.199996948242</ele>
        <time>2022-02-10T14:59:59Z</time>
      </trkpt>
      <trkpt lat="48.36057" lon="2.75725">
        <ele>93.199996948242</ele>
        <time>2022-02-10T15:00:04Z</time>
      </trkpt>
      <trkpt lat="48.36054" lon="2.75734">
        <ele>93.199996948242</ele>
        <time>2022-02-10T15:00:09Z</time>
      </trkpt>
      <trkpt lat="48.36052" lon="2.75741">
        <ele>93.199996948242</ele>
        <time>2022-02-10T15:00:14Z</time>
      </trkpt>
      <trkpt lat="48.36049" lon="2.75751">
        <ele>93.199996948242</ele>
        <time>2022-02-10T15:00:19Z</time>
      </trkpt>
      <trkpt lat="48.36043" lon="2.75759">
        <ele>93.400001525879</ele>
        <time>2022-02-10T15:00:24Z</time>
      </trkpt>
      <trkpt lat="48.36039" lon="2.75766">
        <ele>93.400001525879</ele>
        <time>2022-02-10T15:00:29Z</time>
      </trkpt>
      <trkpt lat="48.36037" lon="2.75774">
        <ele>93.400001525879</ele>
        <time>2022-02-10T15:00:34Z</time>
      </trkpt>
      <trkpt lat="48.36036" lon="2.75779">
        <ele>93.599998474121</ele>
        <time>2022-02-10T15:00:39Z</time>
      </trkpt>
      <trkpt lat="48.36036" lon="2.75784">
        <ele>93.800003051758</ele>
        <time>2022-02-10T15:00:44Z</time>
      </trkpt>
      <trkpt lat="48.36035" lon="2.75791">
        <ele>93.800003051758</ele>
        <time>2022-02-10T15:00:49Z</time>
      </trkpt>
      <trkpt lat="48.36035" lon="2.75795">
        <ele>93.800003051758</ele>
        <time>2022-02-10T15:00:54Z</time>
      </trkpt>
      <trkpt lat="48.36034" lon="2.758">
        <ele>93.800003051758</ele>
        <time>2022-02-10T15:00:59Z</time>
      </trkpt>
      <trkpt lat="48.36032" lon="2.75803">
        <ele>93.800003051758</ele>
        <time>2022-02-10T15:01:04Z</time>
      </trkpt>
      <trkpt lat="48.36033" lon="2.75804">
        <ele>93.800003051758</ele>
        <time>2022-02-10T15:01:09Z</time>
      </trkpt>
      <trkpt lat="48.36031" lon="2.75804">
        <ele>93.800003051758</ele>
        <time>2022-02-10T15:01:14Z</time>
      </trkpt>
      <trkpt lat="48.36029" lon="2.75805">
        <ele>93.800003051758</ele>
        <time>2022-02-10T15:01:19Z</time>
      </trkpt>
      <trkpt lat="48.36023" lon="2.75808">
        <ele>93.800003051758</ele>
        <time>2022-02-10T15:01:24Z</time>
      </trkpt>
      <trkpt lat="48.36021" lon="2.75813">
        <ele>93.800003051758</ele>
        <time>2022-02-10T15:01:29Z</time>
      </trkpt>
      <trkpt lat="48.36018" lon="2.75819">
        <ele>93.599998474121</ele>
        <time>2022-02-10T15:01:34Z</time>
      </trkpt>
      <trkpt lat="48.36017" lon="2.75823">
        <ele>93.599998474121</ele>
        <time>2022-02-10T15:01:39Z</time>
      </trkpt>
      <trkpt lat="48.36017" lon="2.75827">
        <ele>93.599998474121</ele>
        <time>2022-02-10T15:01:44Z</time>
      </trkpt>
      <trkpt lat="48.36018" lon="2.75835">
        <ele>93.599998474121</ele>
        <time>2022-02-10T15:01:49Z</time>
      </trkpt>
      <trkpt lat="48.3602" lon="2.75841">
        <ele>93.599998474121</ele>
        <time>2022-02-10T15:01:54Z</time>
      </trkpt>
      <trkpt lat="48.36021" lon="2.75843">
        <ele>93.599998474121</ele>
        <time>2022-02-10T15:01:59Z</time>
      </trkpt>
      <trkpt lat="48.3602" lon="2.75848">
        <ele>93.599998474121</ele>
        <time>2022-02-10T15:02:04Z</time>
      </trkpt>
      <trkpt lat="48.36021" lon="2.75852">
        <ele>93.599998474121</ele>
        <time>2022-02-10T15:02:09Z</time>
      </trkpt>
      <trkpt lat="48.3602" lon="2.75856">
        <ele>93.599998474121</ele>
        <time>2022-02-10T15:02:14Z</time>
      </trkpt>
      <trkpt lat="48.36016" lon="2.75867">
        <ele>93.599998474121</ele>
        <time>2022-02-10T15:02:19Z</time>
      </trkpt>
      <trkpt lat="48.36011" lon="2.75877">
        <ele>93.599998474121</ele>
        <time>2022-02-10T15:02:24Z</time>
      </trkpt>
      <trkpt lat="48.36007" lon="2.75883">
        <ele>93.599998474121</ele>
        <time>2022-02-10T15:02:29Z</time>
      </trkpt>
      <trkpt lat="48.36004" lon="2.7589">
        <ele>93.599998474121</ele>
        <time>2022-02-10T15:02:34Z</time>
      </trkpt>
      <trkpt lat="48.36003" lon="2.75896">
        <ele>93.599998474121</ele>
        <time>2022-02-10T15:02:39Z</time>
      </trkpt>
      <trkpt lat="48.36002" lon="2.75902">
        <ele>93.599998474121</ele>
        <time>2022-02-10T15:02:44Z</time>
      </trkpt>
      <trkpt lat="48.36" lon="2.75909">
        <ele>93.599998474121</ele>
        <time>2022-02-10T15:02:49Z</time>
      </trkpt>
      <trkpt lat="48.36" lon="2.75913">
        <ele>93.599998474121</ele>
        <time>2022-02-10T15:02:54Z</time>
      </trkpt>
      <trkpt lat="48.35999" lon="2.75915">
        <ele>93.599998474121</ele>
        <time>2022-02-10T15:02:59Z</time>
      </trkpt>
      <trkpt lat="48.35998" lon="2.75921">
        <ele>93.599998474121</ele>
        <time>2022-02-10T15:03:04Z</time>
      </trkpt>
      <trkpt lat="48.35993" lon="2.75935">
        <ele>93.599998474121</ele>
        <time>2022-02-10T15:03:09Z</time>
      </trkpt>
      <trkpt lat="48.35991" lon="2.75943">
        <ele>93.599998474121</ele>
        <time>2022-02-10T15:03:14Z</time>
      </trkpt>
      <trkpt lat="48.35987" lon="2.75951">
        <ele>93.599998474121</ele>
        <time>2022-02-10T15:03:19Z</time>
      </trkpt>
      <trkpt lat="48.35987" lon="2.75955">
        <ele>93.599998474121</ele>
        <time>2022-02-10T15:03:24Z</time>
      </trkpt>
      <trkpt lat="48.35987" lon="2.75958">
        <ele>93.599998474121</ele>
        <time>2022-02-10T15:03:29Z</time>
      </trkpt>
      <trkpt lat="48.35985" lon="2.75964">
        <ele>93.599998474121</ele>
        <time>2022-02-10T15:03:34Z</time>
      </trkpt>
      <trkpt lat="48.35984" lon="2.75966">
        <ele>93.599998474121</ele>
        <time>2022-02-10T15:03:39Z</time>
      </trkpt>
      <trkpt lat="48.35983" lon="2.75971">
        <ele>93.599998474121</ele>
        <time>2022-02-10T15:03:44Z</time>
      </trkpt>
      <trkpt lat="48.3598" lon="2.75976">
        <ele>93.599998474121</ele>
        <time>2022-02-10T15:03:49Z</time>
      </trkpt>
      <trkpt lat="48.35977" lon="2.75981">
        <ele>93.599998474121</ele>
        <time>2022-02-10T15:03:54Z</time>
      </trkpt>
      <trkpt lat="48.35973" lon="2.75993">
        <ele>93.599998474121</ele>
        <time>2022-02-10T15:03:59Z</time>
      </trkpt>
      <trkpt lat="48.35972" lon="2.75999">
        <ele>93.599998474121</ele>
        <time>2022-02-10T15:04:04Z</time>
      </trkpt>
      <trkpt lat="48.35972" lon="2.76003">
        <ele>93.599998474121</ele>
        <time>2022-02-10T15:04:09Z</time>
      </trkpt>
      <trkpt lat="48.35966" lon="2.76011">
        <ele>93.599998474121</ele>
        <time>2022-02-10T15:04:14Z</time>
      </trkpt>
      <trkpt lat="48.35963" lon="2.76019">
        <ele>93.599998474121</ele>
        <time>2022-02-10T15:04:19Z</time>
      </trkpt>
      <trkpt lat="48.35962" lon="2.76024">
        <ele>93.599998474121</ele>
        <time>2022-02-10T15:04:24Z</time>
      </trkpt>
      <trkpt lat="48.35961" lon="2.76029">
        <ele>93.599998474121</ele>
        <time>2022-02-10T15:04:29Z</time>
      </trkpt>
      <trkpt lat="48.35959" lon="2.76037">
        <ele>93.599998474121</ele>
        <time>2022-02-10T15:04:34Z</time>
      </trkpt>
      <trkpt lat="48.35958" lon="2.76041">
        <ele>93.599998474121</ele>
        <time>2022-02-10T15:04:39Z</time>
      </trkpt>
      <trkpt lat="48.35954" lon="2.76051">
        <ele>93.599998474121</ele>
        <time>2022-02-10T15:04:44Z</time>
      </trkpt>
      <trkpt lat="48.35951" lon="2.76061">
        <ele>93.599998474121</ele>
        <time>2022-02-10T15:04:49Z</time>
      </trkpt>
      <trkpt lat="48.35948" lon="2.76066">
        <ele>93.599998474121</ele>
        <time>2022-02-10T15:04:54Z</time>
      </trkpt>
      <trkpt lat="48.35945" lon="2.76074">
        <ele>93.599998474121</ele>
        <time>2022-02-10T15:04:59Z</time>
      </trkpt>
      <trkpt lat="48.35942" lon="2.76083">
        <ele>93.599998474121</ele>
        <time>2022-02-10T15:05:04Z</time>
      </trkpt>
      <trkpt lat="48.3594" lon="2.76089">
        <ele>93.599998474121</ele>
        <time>2022-02-10T15:05:09Z</time>
      </trkpt>
      <trkpt lat="48.35936" lon="2.76095">
        <ele>93.599998474121</ele>
        <time>2022-02-10T15:05:14Z</time>
      </trkpt>
      <trkpt lat="48.35934" lon="2.76101">
        <ele>93.599998474121</ele>
        <time>2022-02-10T15:05:19Z</time>
      </trkpt>
      <trkpt lat="48.35932" lon="2.76109">
        <ele>93.599998474121</ele>
        <time>2022-02-10T15:05:24Z</time>
      </trkpt>
      <trkpt lat="48.3593" lon="2.76112">
        <ele>93.599998474121</ele>
        <time>2022-02-10T15:05:29Z</time>
      </trkpt>
      <trkpt lat="48.35927" lon="2.76116">
        <ele>93.599998474121</ele>
        <time>2022-02-10T15:05:34Z</time>
      </trkpt>
      <trkpt lat="48.35926" lon="2.7612">
        <ele>93.599998474121</ele>
        <time>2022-02-10T15:05:39Z</time>
      </trkpt>
      <trkpt lat="48.35926" lon="2.76125">
        <ele>93.599998474121</ele>
        <time>2022-02-10T15:05:44Z</time>
      </trkpt>
      <trkpt lat="48.35928" lon="2.7613">
        <ele>93.599998474121</ele>
        <time>2022-02-10T15:05:49Z</time>
      </trkpt>
      <trkpt lat="48.35927" lon="2.76131">
        <ele>93.599998474121</ele>
        <time>2022-02-10T15:05:54Z</time>
      </trkpt>
      <trkpt lat="48.35928" lon="2.76131">
        <ele>93.599998474121</ele>
        <time>2022-02-10T15:05:59Z</time>
      </trkpt>
      <trkpt lat="48.35927" lon="2.76131">
        <ele>93.599998474121</ele>
        <time>2022-02-10T15:06:04Z</time>
      </trkpt>
      <trkpt lat="48.35924" lon="2.76134">
        <ele>93.599998474121</ele>
        <time>2022-02-10T15:06:09Z</time>
      </trkpt>
      <trkpt lat="48.35924" lon="2.7614">
        <ele>93.599998474121</ele>
        <time>2022-02-10T15:06:14Z</time>
      </trkpt>
      <trkpt lat="48.35921" lon="2.76147">
        <ele>93.599998474121</ele>
        <time>2022-02-10T15:06:19Z</time>
      </trkpt>
      <trkpt lat="48.35918" lon="2.76149">
        <ele>93.599998474121</ele>
        <time>2022-02-10T15:06:24Z</time>
      </trkpt>
      <trkpt lat="48.35917" lon="2.76151">
        <ele>93.599998474121</ele>
        <time>2022-02-10T15:06:29Z</time>
      </trkpt>
      <trkpt lat="48.35916" lon="2.76151">
        <ele>93.599998474121</ele>
        <time>2022-02-10T15:06:34Z</time>
      </trkpt>
      <trkpt lat="48.35914" lon="2.76151">
        <ele>93.599998474121</ele>
        <time>2022-02-10T15:06:39Z</time>
      </trkpt>
      <trkpt lat="48.35914" lon="2.76152">
        <ele>93.599998474121</ele>
        <time>2022-02-10T15:06:44Z</time>
      </trkpt>
      <trkpt lat="48.35914" lon="2.76155">
        <ele>93.599998474121</ele>
        <time>2022-02-10T15:06:49Z</time>
      </trkpt>
      <trkpt lat="48.35914" lon="2.76159">
        <ele>93.599998474121</ele>
        <time>2022-02-10T15:06:54Z</time>
      </trkpt>
      <trkpt lat="48.35914" lon="2.76162">
        <ele>93.599998474121</ele>
        <time>2022-02-10T15:06:59Z</time>
      </trkpt>
      <trkpt lat="48.35913" lon="2.76165">
        <ele>93.599998474121</ele>
        <time>2022-02-10T15:07:04Z</time>
      </trkpt>
      <trkpt lat="48.35908" lon="2.76172">
        <ele>93.599998474121</ele>
        <time>2022-02-10T15:07:09Z</time>
      </trkpt>
      <trkpt lat="48.35909" lon="2.76179">
        <ele>93.599998474121</ele>
        <time>2022-02-10T15:07:14Z</time>
      </trkpt>
      <trkpt lat="48.35907" lon="2.76186">
        <ele>93.599998474121</ele>
        <time>2022-02-10T15:07:19Z</time>
      </trkpt>
      <trkpt lat="48.35907" lon="2.76189">
        <ele>93.599998474121</ele>
        <time>2022-02-10T15:07:24Z</time>
      </trkpt>
      <trkpt lat="48.35907" lon="2.76196">
        <ele>93.599998474121</ele>
        <time>2022-02-10T15:07:29Z</time>
      </trkpt>
      <trkpt lat="48.35908" lon="2.76204">
        <ele>93.599998474121</ele>
        <time>2022-02-10T15:07:34Z</time>
      </trkpt>
      <trkpt lat="48.3591" lon="2.76209">
        <ele>93.599998474121</ele>
        <time>2022-02-10T15:07:39Z</time>
      </trkpt>
      <trkpt lat="48.35908" lon="2.76215">
        <ele>93.599998474121</ele>
        <time>2022-02-10T15:07:44Z</time>
      </trkpt>
      <trkpt lat="48.3591" lon="2.76223">
        <ele>93.599998474121</ele>
        <time>2022-02-10T15:07:49Z</time>
      </trkpt>
      <trkpt lat="48.35911" lon="2.76228">
        <ele>93.599998474121</ele>
        <time>2022-02-10T15:07:54Z</time>
      </trkpt>
      <trkpt lat="48.35906" lon="2.76234">
        <ele>93.599998474121</ele>
        <time>2022-02-10T15:07:59Z</time>
      </trkpt>
      <trkpt lat="48.35906" lon="2.76239">
        <ele>93.599998474121</ele>
        <time>2022-02-10T15:08:04Z</time>
      </trkpt>
      <trkpt lat="48.35907" lon="2.76244">
        <ele>93.599998474121</ele>
        <time>2022-02-10T15:08:09Z</time>
      </trkpt>
      <trkpt lat="48.35905" lon="2.76251">
        <ele>93.599998474121</ele>
        <time>2022-02-10T15:08:14Z</time>
      </trkpt>
      <trkpt lat="48.35905" lon="2.76259">
        <ele>93.599998474121</ele>
        <time>2022-02-10T15:08:19Z</time>
      </trkpt>
      <trkpt lat="48.35902" lon="2.76266">
        <ele>93.599998474121</ele>
        <time>2022-02-10T15:08:24Z</time>
      </trkpt>
      <trkpt lat="48.359" lon="2.76273">
        <ele>93.599998474121</ele>
        <time>2022-02-10T15:08:29Z</time>
      </trkpt>
      <trkpt lat="48.35896" lon="2.7628">
        <ele>93.599998474121</ele>
        <time>2022-02-10T15:08:34Z</time>
      </trkpt>
      <trkpt lat="48.35893" lon="2.76286">
        <ele>93.599998474121</ele>
        <time>2022-02-10T15:08:39Z</time>
      </trkpt>
      <trkpt lat="48.35893" lon="2.76292">
        <ele>93.599998474121</ele>
        <time>2022-02-10T15:08:44Z</time>
      </trkpt>
      <trkpt lat="48.35891" lon="2.76298">
        <ele>93.599998474121</ele>
        <time>2022-02-10T15:08:49Z</time>
      </trkpt>
      <trkpt lat="48.35891" lon="2.76304">
        <ele>93.599998474121</ele>
        <time>2022-02-10T15:08:54Z</time>
      </trkpt>
      <trkpt lat="48.35891" lon="2.76311">
        <ele>93.599998474121</ele>
        <time>2022-02-10T15:08:59Z</time>
      </trkpt>
      <trkpt lat="48.35891" lon="2.76315">
        <ele>93.599998474121</ele>
        <time>2022-02-10T15:09:04Z</time>
      </trkpt>
      <trkpt lat="48.35891" lon="2.76323">
        <ele>93.599998474121</ele>
        <time>2022-02-10T15:09:09Z</time>
      </trkpt>
      <trkpt lat="48.3589" lon="2.76331">
        <ele>93.599998474121</ele>
        <time>2022-02-10T15:09:14Z</time>
      </trkpt>
      <trkpt lat="48.35888" lon="2.76337">
        <ele>93.599998474121</ele>
        <time>2022-02-10T15:09:19Z</time>
      </trkpt>
      <trkpt lat="48.35888" lon="2.76339">
        <ele>93.599998474121</ele>
        <time>2022-02-10T15:09:24Z</time>
      </trkpt>
      <trkpt lat="48.35888" lon="2.7635">
        <ele>93.599998474121</ele>
        <time>2022-02-10T15:09:29Z</time>
      </trkpt>
      <trkpt lat="48.35884" lon="2.76359">
        <ele>93.599998474121</ele>
        <time>2022-02-10T15:09:34Z</time>
      </trkpt>
      <trkpt lat="48.35884" lon="2.7637">
        <ele>93.599998474121</ele>
        <time>2022-02-10T15:09:39Z</time>
      </trkpt>
      <trkpt lat="48.35884" lon="2.76379">
        <ele>93.599998474121</ele>
        <time>2022-02-10T15:09:44Z</time>
      </trkpt>
      <trkpt lat="48.35882" lon="2.76388">
        <ele>93.599998474121</ele>
        <time>2022-02-10T15:09:49Z</time>
      </trkpt>
      <trkpt lat="48.35881" lon="2.76397">
        <ele>93.599998474121</ele>
        <time>2022-02-10T15:09:54Z</time>
      </trkpt>
      <trkpt lat="48.35881" lon="2.76405">
        <ele>92.400001525879</ele>
        <time>2022-02-10T15:09:59Z</time>
      </trkpt>
      <trkpt lat="48.3588" lon="2.7641">
        <ele>92.199996948242</ele>
        <time>2022-02-10T15:10:04Z</time>
      </trkpt>
      <trkpt lat="48.3588" lon="2.76417">
        <ele>92.199996948242</ele>
        <time>2022-02-10T15:10:09Z</time>
      </trkpt>
      <trkpt lat="48.3588" lon="2.76424">
        <ele>92.199996948242</ele>
        <time>2022-02-10T15:10:14Z</time>
      </trkpt>
      <trkpt lat="48.35878" lon="2.7643">
        <ele>92.199996948242</ele>
        <time>2022-02-10T15:10:19Z</time>
      </trkpt>
      <trkpt lat="48.35876" lon="2.76436">
        <ele>92.199996948242</ele>
        <time>2022-02-10T15:10:24Z</time>
      </trkpt>
      <trkpt lat="48.35876" lon="2.76446">
        <ele>92.199996948242</ele>
        <time>2022-02-10T15:10:29Z</time>
      </trkpt>
      <trkpt lat="48.35877" lon="2.76453">
        <ele>92</ele>
        <time>2022-02-10T15:10:34Z</time>
      </trkpt>
      <trkpt lat="48.35876" lon="2.76461">
        <ele>91.800003051758</ele>
        <time>2022-02-10T15:10:39Z</time>
      </trkpt>
      <trkpt lat="48.35875" lon="2.76467">
        <ele>91.800003051758</ele>
        <time>2022-02-10T15:10:44Z</time>
      </trkpt>
      <trkpt lat="48.35872" lon="2.76474">
        <ele>91.800003051758</ele>
        <time>2022-02-10T15:10:49Z</time>
      </trkpt>
      <trkpt lat="48.3587" lon="2.7648">
        <ele>91.800003051758</ele>
        <time>2022-02-10T15:10:54Z</time>
      </trkpt>
      <trkpt lat="48.35866" lon="2.7649">
        <ele>91.800003051758</ele>
        <time>2022-02-10T15:10:59Z</time>
      </trkpt>
      <trkpt lat="48.35867" lon="2.76497">
        <ele>91.800003051758</ele>
        <time>2022-02-10T15:11:04Z</time>
      </trkpt>
      <trkpt lat="48.35868" lon="2.76502">
        <ele>91.599998474121</ele>
        <time>2022-02-10T15:11:09Z</time>
      </trkpt>
      <trkpt lat="48.35869" lon="2.76509">
        <ele>91.599998474121</ele>
        <time>2022-02-10T15:11:14Z</time>
      </trkpt>
      <trkpt lat="48.35871" lon="2.76517">
        <ele>91.400001525879</ele>
        <time>2022-02-10T15:11:19Z</time>
      </trkpt>
      <trkpt lat="48.3587" lon="2.76527">
        <ele>91.400001525879</ele>
        <time>2022-02-10T15:11:24Z</time>
      </trkpt>
      <trkpt lat="48.35869" lon="2.76534">
        <ele>91.599998474121</ele>
        <time>2022-02-10T15:11:29Z</time>
      </trkpt>
      <trkpt lat="48.35867" lon="2.76541">
        <ele>91.400001525879</ele>
        <time>2022-02-10T15:11:34Z</time>
      </trkpt>
      <trkpt lat="48.35865" lon="2.76549">
        <ele>91.599998474121</ele>
        <time>2022-02-10T15:11:39Z</time>
      </trkpt>
      <trkpt lat="48.35863" lon="2.76558">
        <ele>91.599998474121</ele>
        <time>2022-02-10T15:11:44Z</time>
      </trkpt>
      <trkpt lat="48.35863" lon="2.76565">
        <ele>91.599998474121</ele>
        <time>2022-02-10T15:11:49Z</time>
      </trkpt>
      <trkpt lat="48.35861" lon="2.76573">
        <ele>91.400001525879</ele>
        <time>2022-02-10T15:11:54Z</time>
      </trkpt>
      <trkpt lat="48.35861" lon="2.76577">
        <ele>91.400001525879</ele>
        <time>2022-02-10T15:11:59Z</time>
      </trkpt>
      <trkpt lat="48.35859" lon="2.76582">
        <ele>91.400001525879</ele>
        <time>2022-02-10T15:12:04Z</time>
      </trkpt>
      <trkpt lat="48.35855" lon="2.76592">
        <ele>91.400001525879</ele>
        <time>2022-02-10T15:12:09Z</time>
      </trkpt>
      <trkpt lat="48.35851" lon="2.76601">
        <ele>91.199996948242</ele>
        <time>2022-02-10T15:12:14Z</time>
      </trkpt>
      <trkpt lat="48.3585" lon="2.7661">
        <ele>91.400001525879</ele>
        <time>2022-02-10T15:12:19Z</time>
      </trkpt>
      <trkpt lat="48.35847" lon="2.76615">
        <ele>91.400001525879</ele>
        <time>2022-02-10T15:12:24Z</time>
      </trkpt>
      <trkpt lat="48.35844" lon="2.7662">
        <ele>91.199996948242</ele>
        <time>2022-02-10T15:12:29Z</time>
      </trkpt>
      <trkpt lat="48.35841" lon="2.76626">
        <ele>91.199996948242</ele>
        <time>2022-02-10T15:12:34Z</time>
      </trkpt>
      <trkpt lat="48.35838" lon="2.76632">
        <ele>91.199996948242</ele>
        <time>2022-02-10T15:12:39Z</time>
      </trkpt>
      <trkpt lat="48.35832" lon="2.76636">
        <ele>91.199996948242</ele>
        <time>2022-02-10T15:12:44Z</time>
      </trkpt>
      <trkpt lat="48.35826" lon="2.76642">
        <ele>91.199996948242</ele>
        <time>2022-02-10T15:12:49Z</time>
      </trkpt>
      <trkpt lat="48.35824" lon="2.76645">
        <ele>91.199996948242</ele>
        <time>2022-02-10T15:12:54Z</time>
      </trkpt>
      <trkpt lat="48.3582" lon="2.76649">
        <ele>91.199996948242</ele>
        <time>2022-02-10T15:12:59Z</time>
      </trkpt>
      <trkpt lat="48.35817" lon="2.76653">
        <ele>91.199996948242</ele>
        <time>2022-02-10T15:13:04Z</time>
      </trkpt>
      <trkpt lat="48.35812" lon="2.76658">
        <ele>91.199996948242</ele>
        <time>2022-02-10T15:13:09Z</time>
      </trkpt>
      <trkpt lat="48.35808" lon="2.76662">
        <ele>91.199996948242</ele>
        <time>2022-02-10T15:13:14Z</time>
      </trkpt>
      <trkpt lat="48.35808" lon="2.76664">
        <ele>91.199996948242</ele>
        <time>2022-02-10T15:13:19Z</time>
      </trkpt>
      <trkpt lat="48.35805" lon="2.76668">
        <ele>91.199996948242</ele>
        <time>2022-02-10T15:13:24Z</time>
      </trkpt>
      <trkpt lat="48.358" lon="2.76674">
        <ele>91.199996948242</ele>
        <time>2022-02-10T15:13:29Z</time>
      </trkpt>
      <trkpt lat="48.35796" lon="2.76679">
        <ele>91.199996948242</ele>
        <time>2022-02-10T15:13:34Z</time>
      </trkpt>
      <trkpt lat="48.35791" lon="2.76685">
        <ele>91.199996948242</ele>
        <time>2022-02-10T15:13:39Z</time>
      </trkpt>
      <trkpt lat="48.35788" lon="2.76688">
        <ele>91</ele>
        <time>2022-02-10T15:13:44Z</time>
      </trkpt>
      <trkpt lat="48.35783" lon="2.76693">
        <ele>90.800003051758</ele>
        <time>2022-02-10T15:13:49Z</time>
      </trkpt>
      <trkpt lat="48.35778" lon="2.76698">
        <ele>90.800003051758</ele>
        <time>2022-02-10T15:13:54Z</time>
      </trkpt>
      <trkpt lat="48.35773" lon="2.76704">
        <ele>90.800003051758</ele>
        <time>2022-02-10T15:13:59Z</time>
      </trkpt>
      <trkpt lat="48.35768" lon="2.7671">
        <ele>90.599998474121</ele>
        <time>2022-02-10T15:14:04Z</time>
      </trkpt>
      <trkpt lat="48.35767" lon="2.76712">
        <ele>90.599998474121</ele>
        <time>2022-02-10T15:14:09Z</time>
      </trkpt>
      <trkpt lat="48.35764" lon="2.76714">
        <ele>90.599998474121</ele>
        <time>2022-02-10T15:14:14Z</time>
      </trkpt>
      <trkpt lat="48.35761" lon="2.7672">
        <ele>90.599998474121</ele>
        <time>2022-02-10T15:14:19Z</time>
      </trkpt>
      <trkpt lat="48.35755" lon="2.76729">
        <ele>90.599998474121</ele>
        <time>2022-02-10T15:14:24Z</time>
      </trkpt>
      <trkpt lat="48.35751" lon="2.76736">
        <ele>90.599998474121</ele>
        <time>2022-02-10T15:14:29Z</time>
      </trkpt>
      <trkpt lat="48.35747" lon="2.76741">
        <ele>90.599998474121</ele>
        <time>2022-02-10T15:14:34Z</time>
      </trkpt>
      <trkpt lat="48.35742" lon="2.76745">
        <ele>90.599998474121</ele>
        <time>2022-02-10T15:14:39Z</time>
      </trkpt>
      <trkpt lat="48.35739" lon="2.76747">
        <ele>90.599998474121</ele>
        <time>2022-02-10T15:14:44Z</time>
      </trkpt>
      <trkpt lat="48.35736" lon="2.76751">
        <ele>90.400001525879</ele>
        <time>2022-02-10T15:14:49Z</time>
      </trkpt>
      <trkpt lat="48.35731" lon="2.76756">
        <ele>90.400001525879</ele>
        <time>2022-02-10T15:14:54Z</time>
      </trkpt>
      <trkpt lat="48.35726" lon="2.76761">
        <ele>90.400001525879</ele>
        <time>2022-02-10T15:14:59Z</time>
      </trkpt>
      <trkpt lat="48.35721" lon="2.76766">
        <ele>90.199996948242</ele>
        <time>2022-02-10T15:15:04Z</time>
      </trkpt>
      <trkpt lat="48.35717" lon="2.76774">
        <ele>90.199996948242</ele>
        <time>2022-02-10T15:15:09Z</time>
      </trkpt>
      <trkpt lat="48.35712" lon="2.76779">
        <ele>90.199996948242</ele>
        <time>2022-02-10T15:15:14Z</time>
      </trkpt>
      <trkpt lat="48.35708" lon="2.76784">
        <ele>90.199996948242</ele>
        <time>2022-02-10T15:15:19Z</time>
      </trkpt>
      <trkpt lat="48.35704" lon="2.7679">
        <ele>90.199996948242</ele>
        <time>2022-02-10T15:15:24Z</time>
      </trkpt>
      <trkpt lat="48.35701" lon="2.76795">
        <ele>90.400001525879</ele>
        <time>2022-02-10T15:15:29Z</time>
      </trkpt>
      <trkpt lat="48.35696" lon="2.768">
        <ele>90.199996948242</ele>
        <time>2022-02-10T15:15:34Z</time>
      </trkpt>
      <trkpt lat="48.35695" lon="2.76803">
        <ele>90.199996948242</ele>
        <time>2022-02-10T15:15:39Z</time>
      </trkpt>
      <trkpt lat="48.35692" lon="2.76808">
        <ele>90.199996948242</ele>
        <time>2022-02-10T15:15:44Z</time>
      </trkpt>
      <trkpt lat="48.35688" lon="2.76812">
        <ele>90.199996948242</ele>
        <time>2022-02-10T15:15:49Z</time>
      </trkpt>
      <trkpt lat="48.35682" lon="2.76817">
        <ele>90.400001525879</ele>
        <time>2022-02-10T15:15:54Z</time>
      </trkpt>
      <trkpt lat="48.35677" lon="2.76821">
        <ele>90.199996948242</ele>
        <time>2022-02-10T15:15:59Z</time>
      </trkpt>
      <trkpt lat="48.35673" lon="2.76827">
        <ele>90.400001525879</ele>
        <time>2022-02-10T15:16:04Z</time>
      </trkpt>
      <trkpt lat="48.3567" lon="2.76831">
        <ele>90.400001525879</ele>
        <time>2022-02-10T15:16:09Z</time>
      </trkpt>
      <trkpt lat="48.35669" lon="2.76837">
        <ele>90.199996948242</ele>
        <time>2022-02-10T15:16:14Z</time>
      </trkpt>
      <trkpt lat="48.35664" lon="2.76842">
        <ele>90</ele>
        <time>2022-02-10T15:16:19Z</time>
      </trkpt>
      <trkpt lat="48.35662" lon="2.76847">
        <ele>90</ele>
        <time>2022-02-10T15:16:24Z</time>
      </trkpt>
      <trkpt lat="48.35658" lon="2.76853">
        <ele>90</ele>
        <time>2022-02-10T15:16:29Z</time>
      </trkpt>
      <trkpt lat="48.35652" lon="2.76857">
        <ele>90.199996948242</ele>
        <time>2022-02-10T15:16:34Z</time>
      </trkpt>
      <trkpt lat="48.35646" lon="2.76864">
        <ele>90</ele>
        <time>2022-02-10T15:16:39Z</time>
      </trkpt>
      <trkpt lat="48.35641" lon="2.7687">
        <ele>90.199996948242</ele>
        <time>2022-02-10T15:16:44Z</time>
      </trkpt>
      <trkpt lat="48.35637" lon="2.76874">
        <ele>90</ele>
        <time>2022-02-10T15:16:49Z</time>
      </trkpt>
      <trkpt lat="48.35634" lon="2.7688">
        <ele>90</ele>
        <time>2022-02-10T15:16:54Z</time>
      </trkpt>
      <trkpt lat="48.3563" lon="2.76886">
        <ele>90</ele>
        <time>2022-02-10T15:16:59Z</time>
      </trkpt>
      <trkpt lat="48.35625" lon="2.7689">
        <ele>90</ele>
        <time>2022-02-10T15:17:04Z</time>
      </trkpt>
      <trkpt lat="48.35621" lon="2.76895">
        <ele>90</ele>
        <time>2022-02-10T15:17:09Z</time>
      </trkpt>
      <trkpt lat="48.35618" lon="2.76899">
        <ele>89.800003051758</ele>
        <time>2022-02-10T15:17:14Z</time>
      </trkpt>
      <trkpt lat="48.35614" lon="2.76904">
        <ele>89.800003051758</ele>
        <time>2022-02-10T15:17:19Z</time>
      </trkpt>
      <trkpt lat="48.3561" lon="2.76909">
        <ele>89.800003051758</ele>
        <time>2022-02-10T15:17:24Z</time>
      </trkpt>
      <trkpt lat="48.35606" lon="2.76914">
        <ele>89.800003051758</ele>
        <time>2022-02-10T15:17:29Z</time>
      </trkpt>
      <trkpt lat="48.35603" lon="2.7692">
        <ele>89.800003051758</ele>
        <time>2022-02-10T15:17:34Z</time>
      </trkpt>
      <trkpt lat="48.35598" lon="2.76924">
        <ele>90</ele>
        <time>2022-02-10T15:17:39Z</time>
      </trkpt>
      <trkpt lat="48.35596" lon="2.76929">
        <ele>90</ele>
        <time>2022-02-10T15:17:44Z</time>
      </trkpt>
      <trkpt lat="48.35592" lon="2.76934">
        <ele>90</ele>
        <time>2022-02-10T15:17:49Z</time>
      </trkpt>
      <trkpt lat="48.35588" lon="2.76936">
        <ele>89.800003051758</ele>
        <time>2022-02-10T15:17:54Z</time>
      </trkpt>
      <trkpt lat="48.35586" lon="2.76939">
        <ele>89.800003051758</ele>
        <time>2022-02-10T15:17:59Z</time>
      </trkpt>
      <trkpt lat="48.35581" lon="2.76945">
        <ele>89.800003051758</ele>
        <time>2022-02-10T15:18:04Z</time>
      </trkpt>
      <trkpt lat="48.35577" lon="2.76951">
        <ele>89.599998474121</ele>
        <time>2022-02-10T15:18:09Z</time>
      </trkpt>
      <trkpt lat="48.35573" lon="2.76955">
        <ele>89.800003051758</ele>
        <time>2022-02-10T15:18:14Z</time>
      </trkpt>
      <trkpt lat="48.35569" lon="2.76961">
        <ele>89.800003051758</ele>
        <time>2022-02-10T15:18:19Z</time>
      </trkpt>
      <trkpt lat="48.35566" lon="2.76968">
        <ele>89.800003051758</ele>
        <time>2022-02-10T15:18:24Z</time>
      </trkpt>
      <trkpt lat="48.35564" lon="2.76971">
        <ele>90</ele>
        <time>2022-02-10T15:18:29Z</time>
      </trkpt>
      <trkpt lat="48.35559" lon="2.76976">
        <ele>90</ele>
        <time>2022-02-10T15:18:34Z</time>
      </trkpt>
      <trkpt lat="48.35555" lon="2.76982">
        <ele>90</ele>
        <time>2022-02-10T15:18:39Z</time>
      </trkpt>
      <trkpt lat="48.35551" lon="2.76988">
        <ele>90.199996948242</ele>
        <time>2022-02-10T15:18:44Z</time>
      </trkpt>
      <trkpt lat="48.35549" lon="2.76993">
        <ele>90.199996948242</ele>
        <time>2022-02-10T15:18:49Z</time>
      </trkpt>
      <trkpt lat="48.35547" lon="2.76997">
        <ele>90.199996948242</ele>
        <time>2022-02-10T15:18:54Z</time>
      </trkpt>
      <trkpt lat="48.35544" lon="2.77002">
        <ele>90.400001525879</ele>
        <time>2022-02-10T15:18:59Z</time>
      </trkpt>
      <trkpt lat="48.3554" lon="2.77006">
        <ele>90.400001525879</ele>
        <time>2022-02-10T15:19:04Z</time>
      </trkpt>
      <trkpt lat="48.35536" lon="2.77011">
        <ele>90.400001525879</ele>
        <time>2022-02-10T15:19:09Z</time>
      </trkpt>
      <trkpt lat="48.3553" lon="2.77015">
        <ele>90.599998474121</ele>
        <time>2022-02-10T15:19:14Z</time>
      </trkpt>
      <trkpt lat="48.35526" lon="2.77022">
        <ele>90.599998474121</ele>
        <time>2022-02-10T15:19:19Z</time>
      </trkpt>
      <trkpt lat="48.35522" lon="2.77026">
        <ele>90.599998474121</ele>
        <time>2022-02-10T15:19:24Z</time>
      </trkpt>
      <trkpt lat="48.35518" lon="2.77032">
        <ele>90.800003051758</ele>
        <time>2022-02-10T15:19:29Z</time>
      </trkpt>
      <trkpt lat="48.35514" lon="2.77037">
        <ele>90.800003051758</ele>
        <time>2022-02-10T15:19:34Z</time>
      </trkpt>
      <trkpt lat="48.35512" lon="2.77041">
        <ele>90.800003051758</ele>
        <time>2022-02-10T15:19:39Z</time>
      </trkpt>
      <trkpt lat="48.35507" lon="2.77047">
        <ele>90.800003051758</ele>
        <time>2022-02-10T15:19:44Z</time>
      </trkpt>
      <trkpt lat="48.35503" lon="2.77052">
        <ele>90.800003051758</ele>
        <time>2022-02-10T15:19:49Z</time>
      </trkpt>
      <trkpt lat="48.35499" lon="2.77056">
        <ele>90.800003051758</ele>
        <time>2022-02-10T15:19:54Z</time>
      </trkpt>
      <trkpt lat="48.35496" lon="2.77061">
        <ele>90.800003051758</ele>
        <time>2022-02-10T15:19:59Z</time>
      </trkpt>
      <trkpt lat="48.35492" lon="2.77066">
        <ele>91</ele>
        <time>2022-02-10T15:20:04Z</time>
      </trkpt>
      <trkpt lat="48.3549" lon="2.77072">
        <ele>90.800003051758</ele>
        <time>2022-02-10T15:20:09Z</time>
      </trkpt>
      <trkpt lat="48.35487" lon="2.77079">
        <ele>90.599998474121</ele>
        <time>2022-02-10T15:20:14Z</time>
      </trkpt>
      <trkpt lat="48.35486" lon="2.77086">
        <ele>90.599998474121</ele>
        <time>2022-02-10T15:20:19Z</time>
      </trkpt>
      <trkpt lat="48.35486" lon="2.77095">
        <ele>90.400001525879</ele>
        <time>2022-02-10T15:20:24Z</time>
      </trkpt>
      <trkpt lat="48.35482" lon="2.77104">
        <ele>90.400001525879</ele>
        <time>2022-02-10T15:20:29Z</time>
      </trkpt>
      <trkpt lat="48.35477" lon="2.7711">
        <ele>90.400001525879</ele>
        <time>2022-02-10T15:20:34Z</time>
      </trkpt>
      <trkpt lat="48.35476" lon="2.77117">
        <ele>90.199996948242</ele>
        <time>2022-02-10T15:20:39Z</time>
      </trkpt>
      <trkpt lat="48.35475" lon="2.77125">
        <ele>90.199996948242</ele>
        <time>2022-02-10T15:20:44Z</time>
      </trkpt>
      <trkpt lat="48.35477" lon="2.77131">
        <ele>90.199996948242</ele>
        <time>2022-02-10T15:20:49Z</time>
      </trkpt>
      <trkpt lat="48.35477" lon="2.77139">
        <ele>90.199996948242</ele>
        <time>2022-02-10T15:20:54Z</time>
      </trkpt>
      <trkpt lat="48.35477" lon="2.77147">
        <ele>90.199996948242</ele>
        <time>2022-02-10T15:20:59Z</time>
      </trkpt>
      <trkpt lat="48.35477" lon="2.77154">
        <ele>90.400001525879</ele>
        <time>2022-02-10T15:21:04Z</time>
      </trkpt>
      <trkpt lat="48.35475" lon="2.7716">
        <ele>90.400001525879</ele>
        <time>2022-02-10T15:21:09Z</time>
      </trkpt>
      <trkpt lat="48.35473" lon="2.77169">
        <ele>90.599998474121</ele>
        <time>2022-02-10T15:21:14Z</time>
      </trkpt>
      <trkpt lat="48.35474" lon="2.77177">
        <ele>90.599998474121</ele>
        <time>2022-02-10T15:21:19Z</time>
      </trkpt>
      <trkpt lat="48.35476" lon="2.77182">
        <ele>90.599998474121</ele>
        <time>2022-02-10T15:21:24Z</time>
      </trkpt>
      <trkpt lat="48.35475" lon="2.7719">
        <ele>90.599998474121</ele>
        <time>2022-02-10T15:21:29Z</time>
      </trkpt>
      <trkpt lat="48.35476" lon="2.77194">
        <ele>90.599998474121</ele>
        <time>2022-02-10T15:21:34Z</time>
      </trkpt>
      <trkpt lat="48.35475" lon="2.77199">
        <ele>90.599998474121</ele>
        <time>2022-02-10T15:21:39Z</time>
      </trkpt>
      <trkpt lat="48.35476" lon="2.77207">
        <ele>90.599998474121</ele>
        <time>2022-02-10T15:21:44Z</time>
      </trkpt>
      <trkpt lat="48.35477" lon="2.77215">
        <ele>90.599998474121</ele>
        <time>2022-02-10T15:21:49Z</time>
      </trkpt>
      <trkpt lat="48.35476" lon="2.77223">
        <ele>90.599998474121</ele>
        <time>2022-02-10T15:21:54Z</time>
      </trkpt>
      <trkpt lat="48.35473" lon="2.7723">
        <ele>90.400001525879</ele>
        <time>2022-02-10T15:21:59Z</time>
      </trkpt>
      <trkpt lat="48.3547" lon="2.77237">
        <ele>90.400001525879</ele>
        <time>2022-02-10T15:22:04Z</time>
      </trkpt>
      <trkpt lat="48.35467" lon="2.77245">
        <ele>90.599998474121</ele>
        <time>2022-02-10T15:22:09Z</time>
      </trkpt>
      <trkpt lat="48.35466" lon="2.77252">
        <ele>90.599998474121</ele>
        <time>2022-02-10T15:22:14Z</time>
      </trkpt>
      <trkpt lat="48.35466" lon="2.7726">
        <ele>90.599998474121</ele>
        <time>2022-02-10T15:22:19Z</time>
      </trkpt>
      <trkpt lat="48.35468" lon="2.77269">
        <ele>90.599998474121</ele>
        <time>2022-02-10T15:22:24Z</time>
      </trkpt>
      <trkpt lat="48.35467" lon="2.77275">
        <ele>90.599998474121</ele>
        <time>2022-02-10T15:22:29Z</time>
      </trkpt>
      <trkpt lat="48.35464" lon="2.77283">
        <ele>90.800003051758</ele>
        <time>2022-02-10T15:22:34Z</time>
      </trkpt>
      <trkpt lat="48.35464" lon="2.7729">
        <ele>90.800003051758</ele>
        <time>2022-02-10T15:22:39Z</time>
      </trkpt>
      <trkpt lat="48.35462" lon="2.77297">
        <ele>90.800003051758</ele>
        <time>2022-02-10T15:22:44Z</time>
      </trkpt>
      <trkpt lat="48.35463" lon="2.77303">
        <ele>90.800003051758</ele>
        <time>2022-02-10T15:22:49Z</time>
      </trkpt>
      <trkpt lat="48.35465" lon="2.77307">
        <ele>90.800003051758</ele>
        <time>2022-02-10T15:22:54Z</time>
      </trkpt>
      <trkpt lat="48.35465" lon="2.77315">
        <ele>90.800003051758</ele>
        <time>2022-02-10T15:22:59Z</time>
      </trkpt>
      <trkpt lat="48.35463" lon="2.77322">
        <ele>90.800003051758</ele>
        <time>2022-02-10T15:23:04Z</time>
      </trkpt>
      <trkpt lat="48.3546" lon="2.77329">
        <ele>90.800003051758</ele>
        <time>2022-02-10T15:23:09Z</time>
      </trkpt>
      <trkpt lat="48.35459" lon="2.77336">
        <ele>90.599998474121</ele>
        <time>2022-02-10T15:23:14Z</time>
      </trkpt>
      <trkpt lat="48.35457" lon="2.77344">
        <ele>90.800003051758</ele>
        <time>2022-02-10T15:23:19Z</time>
      </trkpt>
      <trkpt lat="48.35455" lon="2.77351">
        <ele>90.800003051758</ele>
        <time>2022-02-10T15:23:24Z</time>
      </trkpt>
      <trkpt lat="48.35454" lon="2.77358">
        <ele>90.800003051758</ele>
        <time>2022-02-10T15:23:29Z</time>
      </trkpt>
      <trkpt lat="48.35452" lon="2.77367">
        <ele>90.800003051758</ele>
        <time>2022-02-10T15:23:34Z</time>
      </trkpt>
      <trkpt lat="48.35453" lon="2.77373">
        <ele>90.800003051758</ele>
        <time>2022-02-10T15:23:39Z</time>
      </trkpt>
      <trkpt lat="48.35452" lon="2.77379">
        <ele>91</ele>
        <time>2022-02-10T15:23:44Z</time>
      </trkpt>
      <trkpt lat="48.35451" lon="2.77385">
        <ele>91</ele>
        <time>2022-02-10T15:23:49Z</time>
      </trkpt>
      <trkpt lat="48.35449" lon="2.77395">
        <ele>91.199996948242</ele>
        <time>2022-02-10T15:23:54Z</time>
      </trkpt>
      <trkpt lat="48.35446" lon="2.77405">
        <ele>91.199996948242</ele>
        <time>2022-02-10T15:23:59Z</time>
      </trkpt>
      <trkpt lat="48.35444" lon="2.77412">
        <ele>91.199996948242</ele>
        <time>2022-02-10T15:24:04Z</time>
      </trkpt>
      <trkpt lat="48.35443" lon="2.7742">
        <ele>91.199996948242</ele>
        <time>2022-02-10T15:24:09Z</time>
      </trkpt>
      <trkpt lat="48.35444" lon="2.77428">
        <ele>91.199996948242</ele>
        <time>2022-02-10T15:24:14Z</time>
      </trkpt>
      <trkpt lat="48.35444" lon="2.77436">
        <ele>91.199996948242</ele>
        <time>2022-02-10T15:24:19Z</time>
      </trkpt>
      <trkpt lat="48.35443" lon="2.77446">
        <ele>91.199996948242</ele>
        <time>2022-02-10T15:24:24Z</time>
      </trkpt>
      <trkpt lat="48.35441" lon="2.77451">
        <ele>91.199996948242</ele>
        <time>2022-02-10T15:24:29Z</time>
      </trkpt>
      <trkpt lat="48.35441" lon="2.77457">
        <ele>91.199996948242</ele>
        <time>2022-02-10T15:24:34Z</time>
      </trkpt>
      <trkpt lat="48.3544" lon="2.77465">
        <ele>91.400001525879</ele>
        <time>2022-02-10T15:24:39Z</time>
      </trkpt>
      <trkpt lat="48.35438" lon="2.77472">
        <ele>91.199996948242</ele>
        <time>2022-02-10T15:24:44Z</time>
      </trkpt>
      <trkpt lat="48.35436" lon="2.7748">
        <ele>91.199996948242</ele>
        <time>2022-02-10T15:24:49Z</time>
      </trkpt>
      <trkpt lat="48.35435" lon="2.77487">
        <ele>91.199996948242</ele>
        <time>2022-02-10T15:24:54Z</time>
      </trkpt>
      <trkpt lat="48.35435" lon="2.77495">
        <ele>91.199996948242</ele>
        <time>2022-02-10T15:24:59Z</time>
      </trkpt>
      <trkpt lat="48.35434" lon="2.77501">
        <ele>91.199996948242</ele>
        <time>2022-02-10T15:25:04Z</time>
      </trkpt>
      <trkpt lat="48.35433" lon="2.77508">
        <ele>91.199996948242</ele>
        <time>2022-02-10T15:25:09Z</time>
      </trkpt>
      <trkpt lat="48.35433" lon="2.77516">
        <ele>91.199996948242</ele>
        <time>2022-02-10T15:25:14Z</time>
      </trkpt>
      <trkpt lat="48.35432" lon="2.77524">
        <ele>91.199996948242</ele>
        <time>2022-02-10T15:25:19Z</time>
      </trkpt>
      <trkpt lat="48.35434" lon="2.7753">
        <ele>91.400001525879</ele>
        <time>2022-02-10T15:25:24Z</time>
      </trkpt>
      <trkpt lat="48.35432" lon="2.77539">
        <ele>91.400001525879</ele>
        <time>2022-02-10T15:25:29Z</time>
      </trkpt>
      <trkpt lat="48.35431" lon="2.77549">
        <ele>91.400001525879</ele>
        <time>2022-02-10T15:25:34Z</time>
      </trkpt>
      <trkpt lat="48.3543" lon="2.77557">
        <ele>91.400001525879</ele>
        <time>2022-02-10T15:25:39Z</time>
      </trkpt>
      <trkpt lat="48.3543" lon="2.77566">
        <ele>91.400001525879</ele>
        <time>2022-02-10T15:25:44Z</time>
      </trkpt>
      <trkpt lat="48.35429" lon="2.77573">
        <ele>91.599998474121</ele>
        <time>2022-02-10T15:25:49Z</time>
      </trkpt>
      <trkpt lat="48.3543" lon="2.7758">
        <ele>91.599998474121</ele>
        <time>2022-02-10T15:25:54Z</time>
      </trkpt>
      <trkpt lat="48.35428" lon="2.77587">
        <ele>91.599998474121</ele>
        <time>2022-02-10T15:25:59Z</time>
      </trkpt>
      <trkpt lat="48.35428" lon="2.77592">
        <ele>91.599998474121</ele>
        <time>2022-02-10T15:26:04Z</time>
      </trkpt>
      <trkpt lat="48.35427" lon="2.77599">
        <ele>91.599998474121</ele>
        <time>2022-02-10T15:26:09Z</time>
      </trkpt>
      <trkpt lat="48.35427" lon="2.77607">
        <ele>91.599998474121</ele>
        <time>2022-02-10T15:26:14Z</time>
      </trkpt>
      <trkpt lat="48.35425" lon="2.77613">
        <ele>91.800003051758</ele>
        <time>2022-02-10T15:26:19Z</time>
      </trkpt>
      <trkpt lat="48.35423" lon="2.77621">
        <ele>91.800003051758</ele>
        <time>2022-02-10T15:26:24Z</time>
      </trkpt>
      <trkpt lat="48.3542" lon="2.77628">
        <ele>91.800003051758</ele>
        <time>2022-02-10T15:26:29Z</time>
      </trkpt>
      <trkpt lat="48.3542" lon="2.77636">
        <ele>91.800003051758</ele>
        <time>2022-02-10T15:26:34Z</time>
      </trkpt>
      <trkpt lat="48.35421" lon="2.77641">
        <ele>91.800003051758</ele>
        <time>2022-02-10T15:26:39Z</time>
      </trkpt>
      <trkpt lat="48.3542" lon="2.7765">
        <ele>92</ele>
        <time>2022-02-10T15:26:44Z</time>
      </trkpt>
      <trkpt lat="48.35421" lon="2.77657">
        <ele>92</ele>
        <time>2022-02-10T15:26:49Z</time>
      </trkpt>
      <trkpt lat="48.35418" lon="2.77664">
        <ele>92</ele>
        <time>2022-02-10T15:26:54Z</time>
      </trkpt>
      <trkpt lat="48.35417" lon="2.7767">
        <ele>92.199996948242</ele>
        <time>2022-02-10T15:26:59Z</time>
      </trkpt>
      <trkpt lat="48.35413" lon="2.77677">
        <ele>92.199996948242</ele>
        <time>2022-02-10T15:27:04Z</time>
      </trkpt>
      <trkpt lat="48.35411" lon="2.77678">
        <ele>92.199996948242</ele>
        <time>2022-02-10T15:27:09Z</time>
      </trkpt>
      <trkpt lat="48.35406" lon="2.77678">
        <ele>92.199996948242</ele>
        <time>2022-02-10T15:27:14Z</time>
      </trkpt>
      <trkpt lat="48.35403" lon="2.77679">
        <ele>92.199996948242</ele>
        <time>2022-02-10T15:27:19Z</time>
      </trkpt>
      <trkpt lat="48.35398" lon="2.7768">
        <ele>92.199996948242</ele>
        <time>2022-02-10T15:27:24Z</time>
      </trkpt>
      <trkpt lat="48.35394" lon="2.77681">
        <ele>92.199996948242</ele>
        <time>2022-02-10T15:27:29Z</time>
      </trkpt>
      <trkpt lat="48.3539" lon="2.77681">
        <ele>92.199996948242</ele>
        <time>2022-02-10T15:27:34Z</time>
      </trkpt>
      <trkpt lat="48.35385" lon="2.77683">
        <ele>92.199996948242</ele>
        <time>2022-02-10T15:27:39Z</time>
      </trkpt>
      <trkpt lat="48.35381" lon="2.77684">
        <ele>93.400001525879</ele>
        <time>2022-02-10T15:27:44Z</time>
      </trkpt>
      <trkpt lat="48.35377" lon="2.77687">
        <ele>93.599998474121</ele>
        <time>2022-02-10T15:27:49Z</time>
      </trkpt>
      <trkpt lat="48.35372" lon="2.77689">
        <ele>93.800003051758</ele>
        <time>2022-02-10T15:27:54Z</time>
      </trkpt>
      <trkpt lat="48.35369" lon="2.77689">
        <ele>93.800003051758</ele>
        <time>2022-02-10T15:27:59Z</time>
      </trkpt>
      <trkpt lat="48.35363" lon="2.7769">
        <ele>94.199996948242</ele>
        <time>2022-02-10T15:28:04Z</time>
      </trkpt>
      <trkpt lat="48.35358" lon="2.77691">
        <ele>94.400001525879</ele>
        <time>2022-02-10T15:28:09Z</time>
      </trkpt>
      <trkpt lat="48.35356" lon="2.77693">
        <ele>94.800003051758</ele>
        <time>2022-02-10T15:28:14Z</time>
      </trkpt>
      <trkpt lat="48.35353" lon="2.77696">
        <ele>95</ele>
        <time>2022-02-10T15:28:19Z</time>
      </trkpt>
      <trkpt lat="48.35347" lon="2.77698">
        <ele>95.199996948242</ele>
        <time>2022-02-10T15:28:24Z</time>
      </trkpt>
      <trkpt lat="48.35343" lon="2.77698">
        <ele>95.599998474121</ele>
        <time>2022-02-10T15:28:29Z</time>
      </trkpt>
      <trkpt lat="48.35338" lon="2.777">
        <ele>96</ele>
        <time>2022-02-10T15:28:34Z</time>
      </trkpt>
      <trkpt lat="48.35331" lon="2.77704">
        <ele>96.199996948242</ele>
        <time>2022-02-10T15:28:39Z</time>
      </trkpt>
      <trkpt lat="48.35328" lon="2.77707">
        <ele>96.400001525879</ele>
        <time>2022-02-10T15:28:44Z</time>
      </trkpt>
      <trkpt lat="48.35326" lon="2.77709">
        <ele>97</ele>
        <time>2022-02-10T15:28:49Z</time>
      </trkpt>
      <trkpt lat="48.35323" lon="2.7771">
        <ele>97.400001525879</ele>
        <time>2022-02-10T15:28:54Z</time>
      </trkpt>
      <trkpt lat="48.35321" lon="2.77711">
        <ele>98.199996948242</ele>
        <time>2022-02-10T15:28:59Z</time>
      </trkpt>
      <trkpt lat="48.35318" lon="2.77713">
        <ele>98.800003051758</ele>
        <time>2022-02-10T15:29:04Z</time>
      </trkpt>
      <trkpt lat="48.35315" lon="2.77716">
        <ele>99.199996948242</ele>
        <time>2022-02-10T15:29:09Z</time>
      </trkpt>
      <trkpt lat="48.35313" lon="2.77719">
        <ele>100</ele>
        <time>2022-02-10T15:29:14Z</time>
      </trkpt>
      <trkpt lat="48.35311" lon="2.7772">
        <ele>100.59999847412</ele>
        <time>2022-02-10T15:29:19Z</time>
      </trkpt>
      <trkpt lat="48.35306" lon="2.77723">
        <ele>101</ele>
        <time>2022-02-10T15:29:24Z</time>
      </trkpt>
      <trkpt lat="48.35303" lon="2.77725">
        <ele>101.80000305176</ele>
        <time>2022-02-10T15:29:29Z</time>
      </trkpt>
      <trkpt lat="48.35302" lon="2.77728">
        <ele>102.19999694824</ele>
        <time>2022-02-10T15:29:34Z</time>
      </trkpt>
      <trkpt lat="48.353" lon="2.7773">
        <ele>102.59999847412</ele>
        <time>2022-02-10T15:29:39Z</time>
      </trkpt>
      <trkpt lat="48.35295" lon="2.77732">
        <ele>103.19999694824</ele>
        <time>2022-02-10T15:29:44Z</time>
      </trkpt>
      <trkpt lat="48.35295" lon="2.77733">
        <ele>103.80000305176</ele>
        <time>2022-02-10T15:29:49Z</time>
      </trkpt>
      <trkpt lat="48.35294" lon="2.77735">
        <ele>104</ele>
        <time>2022-02-10T15:29:54Z</time>
      </trkpt>
      <trkpt lat="48.35288" lon="2.77739">
        <ele>104</ele>
        <time>2022-02-10T15:29:59Z</time>
      </trkpt>
      <trkpt lat="48.35281" lon="2.77742">
        <ele>103.59999847412</ele>
        <time>2022-02-10T15:30:04Z</time>
      </trkpt>
      <trkpt lat="48.35277" lon="2.77744">
        <ele>103.19999694824</ele>
        <time>2022-02-10T15:30:09Z</time>
      </trkpt>
      <trkpt lat="48.35269" lon="2.77746">
        <ele>102.80000305176</ele>
        <time>2022-02-10T15:30:14Z</time>
      </trkpt>
      <trkpt lat="48.35263" lon="2.7775">
        <ele>102.19999694824</ele>
        <time>2022-02-10T15:30:19Z</time>
      </trkpt>
      <trkpt lat="48.3526" lon="2.77751">
        <ele>102</ele>
        <time>2022-02-10T15:30:24Z</time>
      </trkpt>
      <trkpt lat="48.35257" lon="2.77751">
        <ele>101.80000305176</ele>
        <time>2022-02-10T15:30:29Z</time>
      </trkpt>
      <trkpt lat="48.35251" lon="2.77753">
        <ele>101.40000152588</ele>
        <time>2022-02-10T15:30:34Z</time>
      </trkpt>
      <trkpt lat="48.35246" lon="2.77753">
        <ele>101.19999694824</ele>
        <time>2022-02-10T15:30:39Z</time>
      </trkpt>
      <trkpt lat="48.35241" lon="2.77754">
        <ele>101</ele>
        <time>2022-02-10T15:30:44Z</time>
      </trkpt>
      <trkpt lat="48.35238" lon="2.77755">
        <ele>100.80000305176</ele>
        <time>2022-02-10T15:30:49Z</time>
      </trkpt>
      <trkpt lat="48.35233" lon="2.77758">
        <ele>100.59999847412</ele>
        <time>2022-02-10T15:30:54Z</time>
      </trkpt>
      <trkpt lat="48.35229" lon="2.77762">
        <ele>99.800003051758</ele>
        <time>2022-02-10T15:30:59Z</time>
      </trkpt>
      <trkpt lat="48.35223" lon="2.77766">
        <ele>99.400001525879</ele>
        <time>2022-02-10T15:31:04Z</time>
      </trkpt>
      <trkpt lat="48.35221" lon="2.77767">
        <ele>99.199996948242</ele>
        <time>2022-02-10T15:31:09Z</time>
      </trkpt>
      <trkpt lat="48.35215" lon="2.77766">
        <ele>99</ele>
        <time>2022-02-10T15:31:14Z</time>
      </trkpt>
      <trkpt lat="48.35209" lon="2.77769">
        <ele>98.800003051758</ele>
        <time>2022-02-10T15:31:19Z</time>
      </trkpt>
      <trkpt lat="48.35204" lon="2.77772">
        <ele>98.599998474121</ele>
        <time>2022-02-10T15:31:24Z</time>
      </trkpt>
      <trkpt lat="48.35198" lon="2.77777">
        <ele>98.400001525879</ele>
        <time>2022-02-10T15:31:29Z</time>
      </trkpt>
      <trkpt lat="48.35195" lon="2.77779">
        <ele>98.199996948242</ele>
        <time>2022-02-10T15:31:34Z</time>
      </trkpt>
      <trkpt lat="48.3519" lon="2.77781">
        <ele>98.199996948242</ele>
        <time>2022-02-10T15:31:39Z</time>
      </trkpt>
      <trkpt lat="48.35187" lon="2.77783">
        <ele>98</ele>
        <time>2022-02-10T15:31:44Z</time>
      </trkpt>
      <trkpt lat="48.35179" lon="2.77787">
        <ele>98</ele>
        <time>2022-02-10T15:31:49Z</time>
      </trkpt>
      <trkpt lat="48.35174" lon="2.7779">
        <ele>97.800003051758</ele>
        <time>2022-02-10T15:31:54Z</time>
      </trkpt>
      <trkpt lat="48.35169" lon="2.77792">
        <ele>97.599998474121</ele>
        <time>2022-02-10T15:31:59Z</time>
      </trkpt>
      <trkpt lat="48.35165" lon="2.77794">
        <ele>97.599998474121</ele>
        <time>2022-02-10T15:32:04Z</time>
      </trkpt>
      <trkpt lat="48.3516" lon="2.77796">
        <ele>97.400001525879</ele>
        <time>2022-02-10T15:32:09Z</time>
      </trkpt>
      <trkpt lat="48.35155" lon="2.778">
        <ele>97.599998474121</ele>
        <time>2022-02-10T15:32:14Z</time>
      </trkpt>
      <trkpt lat="48.35149" lon="2.77801">
        <ele>97.599998474121</ele>
        <time>2022-02-10T15:32:19Z</time>
      </trkpt>
      <trkpt lat="48.35142" lon="2.77806">
        <ele>97.400001525879</ele>
        <time>2022-02-10T15:32:24Z</time>
      </trkpt>
      <trkpt lat="48.35137" lon="2.7781">
        <ele>97.199996948242</ele>
        <time>2022-02-10T15:32:29Z</time>
      </trkpt>
      <trkpt lat="48.35132" lon="2.77814">
        <ele>97.199996948242</ele>
        <time>2022-02-10T15:32:34Z</time>
      </trkpt>
      <trkpt lat="48.35128" lon="2.77817">
        <ele>97</ele>
        <time>2022-02-10T15:32:39Z</time>
      </trkpt>
      <trkpt lat="48.35124" lon="2.77821">
        <ele>97</ele>
        <time>2022-02-10T15:32:44Z</time>
      </trkpt>
      <trkpt lat="48.35121" lon="2.77823">
        <ele>97</ele>
        <time>2022-02-10T15:32:49Z</time>
      </trkpt>
      <trkpt lat="48.35117" lon="2.77827">
        <ele>97</ele>
        <time>2022-02-10T15:32:54Z</time>
      </trkpt>
      <trkpt lat="48.35113" lon="2.7783">
        <ele>97</ele>
        <time>2022-02-10T15:32:59Z</time>
      </trkpt>
      <trkpt lat="48.35107" lon="2.77833">
        <ele>96.800003051758</ele>
        <time>2022-02-10T15:33:04Z</time>
      </trkpt>
      <trkpt lat="48.35102" lon="2.77836">
        <ele>96.800003051758</ele>
        <time>2022-02-10T15:33:09Z</time>
      </trkpt>
      <trkpt lat="48.35097" lon="2.77837">
        <ele>96.800003051758</ele>
        <time>2022-02-10T15:33:14Z</time>
      </trkpt>
      <trkpt lat="48.35096" lon="2.77838">
        <ele>96.800003051758</ele>
        <time>2022-02-10T15:33:19Z</time>
      </trkpt>
      <trkpt lat="48.35092" lon="2.77841">
        <ele>96.800003051758</ele>
        <time>2022-02-10T15:33:24Z</time>
      </trkpt>
      <trkpt lat="48.35089" lon="2.77844">
        <ele>96.800003051758</ele>
        <time>2022-02-10T15:33:29Z</time>
      </trkpt>
      <trkpt lat="48.35084" lon="2.77847">
        <ele>96.599998474121</ele>
        <time>2022-02-10T15:33:34Z</time>
      </trkpt>
      <trkpt lat="48.35081" lon="2.7785">
        <ele>96.599998474121</ele>
        <time>2022-02-10T15:33:39Z</time>
      </trkpt>
      <trkpt lat="48.35075" lon="2.77854">
        <ele>96.400001525879</ele>
        <time>2022-02-10T15:33:44Z</time>
      </trkpt>
      <trkpt lat="48.35069" lon="2.77857">
        <ele>96.199996948242</ele>
        <time>2022-02-10T15:33:49Z</time>
      </trkpt>
      <trkpt lat="48.35064" lon="2.7786">
        <ele>96.199996948242</ele>
        <time>2022-02-10T15:33:54Z</time>
      </trkpt>
      <trkpt lat="48.35061" lon="2.77866">
        <ele>96</ele>
        <time>2022-02-10T15:33:59Z</time>
      </trkpt>
      <trkpt lat="48.35051" lon="2.77872">
        <ele>96</ele>
        <time>2022-02-10T15:34:04Z</time>
      </trkpt>
      <trkpt lat="48.35045" lon="2.77877">
        <ele>95.599998474121</ele>
        <time>2022-02-10T15:34:09Z</time>
      </trkpt>
      <trkpt lat="48.3504" lon="2.77883">
        <ele>95.400001525879</ele>
        <time>2022-02-10T15:34:14Z</time>
      </trkpt>
      <trkpt lat="48.35037" lon="2.77886">
        <ele>95.199996948242</ele>
        <time>2022-02-10T15:34:19Z</time>
      </trkpt>
      <trkpt lat="48.35032" lon="2.7789">
        <ele>95.199996948242</ele>
        <time>2022-02-10T15:34:24Z</time>
      </trkpt>
      <trkpt lat="48.35027" lon="2.77895">
        <ele>95</ele>
        <time>2022-02-10T15:34:29Z</time>
      </trkpt>
      <trkpt lat="48.35023" lon="2.779">
        <ele>95</ele>
        <time>2022-02-10T15:34:34Z</time>
      </trkpt>
      <trkpt lat="48.35024" lon="2.77905">
        <ele>94.800003051758</ele>
        <time>2022-02-10T15:34:39Z</time>
      </trkpt>
      <trkpt lat="48.35022" lon="2.7791">
        <ele>94.599998474121</ele>
        <time>2022-02-10T15:34:44Z</time>
      </trkpt>
      <trkpt lat="48.35019" lon="2.77916">
        <ele>94.599998474121</ele>
        <time>2022-02-10T15:34:49Z</time>
      </trkpt>
      <trkpt lat="48.35014" lon="2.77921">
        <ele>94.800003051758</ele>
        <time>2022-02-10T15:34:54Z</time>
      </trkpt>
      <trkpt lat="48.35009" lon="2.77929">
        <ele>94.800003051758</ele>
        <time>2022-02-10T15:34:59Z</time>
      </trkpt>
      <trkpt lat="48.35005" lon="2.77934">
        <ele>95</ele>
        <time>2022-02-10T15:35:04Z</time>
      </trkpt>
      <trkpt lat="48.35002" lon="2.77939">
        <ele>95</ele>
        <time>2022-02-10T15:35:09Z</time>
      </trkpt>
      <trkpt lat="48.35" lon="2.77944">
        <ele>95</ele>
        <time>2022-02-10T15:35:14Z</time>
      </trkpt>
      <trkpt lat="48.34997" lon="2.7795">
        <ele>95</ele>
        <time>2022-02-10T15:35:19Z</time>
      </trkpt>
      <trkpt lat="48.34994" lon="2.77955">
        <ele>95.199996948242</ele>
        <time>2022-02-10T15:35:24Z</time>
      </trkpt>
      <trkpt lat="48.34992" lon="2.77962">
        <ele>95.199996948242</ele>
        <time>2022-02-10T15:35:29Z</time>
      </trkpt>
      <trkpt lat="48.34987" lon="2.77967">
        <ele>95.199996948242</ele>
        <time>2022-02-10T15:35:34Z</time>
      </trkpt>
      <trkpt lat="48.34982" lon="2.77971">
        <ele>95.400001525879</ele>
        <time>2022-02-10T15:35:39Z</time>
      </trkpt>
      <trkpt lat="48.34977" lon="2.77975">
        <ele>95.599998474121</ele>
        <time>2022-02-10T15:35:44Z</time>
      </trkpt>
      <trkpt lat="48.3497" lon="2.77981">
        <ele>96</ele>
        <time>2022-02-10T15:35:49Z</time>
      </trkpt>
      <trkpt lat="48.34966" lon="2.77983">
        <ele>96</ele>
        <time>2022-02-10T15:35:54Z</time>
      </trkpt>
      <trkpt lat="48.34963" lon="2.77986">
        <ele>95.800003051758</ele>
        <time>2022-02-10T15:35:59Z</time>
      </trkpt>
      <trkpt lat="48.34959" lon="2.7799">
        <ele>95.400001525879</ele>
        <time>2022-02-10T15:36:04Z</time>
      </trkpt>
      <trkpt lat="48.34955" lon="2.77994">
        <ele>95.199996948242</ele>
        <time>2022-02-10T15:36:09Z</time>
      </trkpt>
      <trkpt lat="48.34954" lon="2.77998">
        <ele>95</ele>
        <time>2022-02-10T15:36:14Z</time>
      </trkpt>
      <trkpt lat="48.34956" lon="2.78">
        <ele>94.599998474121</ele>
        <time>2022-02-10T15:36:19Z</time>
      </trkpt>
      <trkpt lat="48.34955" lon="2.78007">
        <ele>94</ele>
        <time>2022-02-10T15:36:24Z</time>
      </trkpt>
      <trkpt lat="48.34952" lon="2.78012">
        <ele>93.599998474121</ele>
        <time>2022-02-10T15:36:29Z</time>
      </trkpt>
      <trkpt lat="48.34948" lon="2.78017">
        <ele>93.199996948242</ele>
        <time>2022-02-10T15:36:34Z</time>
      </trkpt>
      <trkpt lat="48.34945" lon="2.78021">
        <ele>92.599998474121</ele>
        <time>2022-02-10T15:36:39Z</time>
      </trkpt>
      <trkpt lat="48.34942" lon="2.78026">
        <ele>92</ele>
        <time>2022-02-10T15:36:44Z</time>
      </trkpt>
      <trkpt lat="48.3494" lon="2.78031">
        <ele>91.599998474121</ele>
        <time>2022-02-10T15:36:49Z</time>
      </trkpt>
      <trkpt lat="48.34939" lon="2.78036">
        <ele>91.199996948242</ele>
        <time>2022-02-10T15:36:54Z</time>
      </trkpt>
      <trkpt lat="48.34936" lon="2.78041">
        <ele>90.599998474121</ele>
        <time>2022-02-10T15:36:59Z</time>
      </trkpt>
      <trkpt lat="48.34934" lon="2.78046">
        <ele>90</ele>
        <time>2022-02-10T15:37:04Z</time>
      </trkpt>
      <trkpt lat="48.34931" lon="2.78051">
        <ele>89.400001525879</ele>
        <time>2022-02-10T15:37:09Z</time>
      </trkpt>
      <trkpt lat="48.34928" lon="2.78055">
        <ele>89</ele>
        <time>2022-02-10T15:37:14Z</time>
      </trkpt>
      <trkpt lat="48.34926" lon="2.78059">
        <ele>88.400001525879</ele>
        <time>2022-02-10T15:37:19Z</time>
      </trkpt>
      <trkpt lat="48.34922" lon="2.78067">
        <ele>88</ele>
        <time>2022-02-10T15:37:24Z</time>
      </trkpt>
      <trkpt lat="48.3492" lon="2.78071">
        <ele>87.199996948242</ele>
        <time>2022-02-10T15:37:29Z</time>
      </trkpt>
      <trkpt lat="48.34917" lon="2.78076">
        <ele>86.800003051758</ele>
        <time>2022-02-10T15:37:34Z</time>
      </trkpt>
      <trkpt lat="48.34914" lon="2.78082">
        <ele>86.199996948242</ele>
        <time>2022-02-10T15:37:39Z</time>
      </trkpt>
      <trkpt lat="48.34908" lon="2.78086">
        <ele>85.800003051758</ele>
        <time>2022-02-10T15:37:44Z</time>
      </trkpt>
      <trkpt lat="48.34904" lon="2.78091">
        <ele>85.199996948242</ele>
        <time>2022-02-10T15:37:49Z</time>
      </trkpt>
      <trkpt lat="48.349" lon="2.78096">
        <ele>85</ele>
        <time>2022-02-10T15:37:54Z</time>
      </trkpt>
      <trkpt lat="48.34897" lon="2.78101">
        <ele>84.599998474121</ele>
        <time>2022-02-10T15:37:59Z</time>
      </trkpt>
      <trkpt lat="48.34894" lon="2.78106">
        <ele>84.199996948242</ele>
        <time>2022-02-10T15:38:04Z</time>
      </trkpt>
      <trkpt lat="48.34893" lon="2.7811">
        <ele>84</ele>
        <time>2022-02-10T15:38:09Z</time>
      </trkpt>
      <trkpt lat="48.3489" lon="2.78116">
        <ele>83.599998474121</ele>
        <time>2022-02-10T15:38:14Z</time>
      </trkpt>
      <trkpt lat="48.34889" lon="2.78119">
        <ele>83.199996948242</ele>
        <time>2022-02-10T15:38:19Z</time>
      </trkpt>
      <trkpt lat="48.34887" lon="2.78123">
        <ele>82.800003051758</ele>
        <time>2022-02-10T15:38:24Z</time>
      </trkpt>
      <trkpt lat="48.34884" lon="2.78128">
        <ele>82.599998474121</ele>
        <time>2022-02-10T15:38:29Z</time>
      </trkpt>
      <trkpt lat="48.3488" lon="2.78134">
        <ele>82.199996948242</ele>
        <time>2022-02-10T15:38:34Z</time>
      </trkpt>
      <trkpt lat="48.34876" lon="2.78141">
        <ele>82</ele>
        <time>2022-02-10T15:38:39Z</time>
      </trkpt>
      <trkpt lat="48.34872" lon="2.78147">
        <ele>81.599998474121</ele>
        <time>2022-02-10T15:38:44Z</time>
      </trkpt>
      <trkpt lat="48.34868" lon="2.78154">
        <ele>81.400001525879</ele>
        <time>2022-02-10T15:38:49Z</time>
      </trkpt>
      <trkpt lat="48.34866" lon="2.7816">
        <ele>81.199996948242</ele>
        <time>2022-02-10T15:38:54Z</time>
      </trkpt>
      <trkpt lat="48.34862" lon="2.78165">
        <ele>81</ele>
        <time>2022-02-10T15:38:59Z</time>
      </trkpt>
      <trkpt lat="48.3486" lon="2.78169">
        <ele>80.599998474121</ele>
        <time>2022-02-10T15:39:04Z</time>
      </trkpt>
      <trkpt lat="48.34856" lon="2.78174">
        <ele>80.199996948242</ele>
        <time>2022-02-10T15:39:09Z</time>
      </trkpt>
      <trkpt lat="48.34854" lon="2.7818">
        <ele>80</ele>
        <time>2022-02-10T15:39:14Z</time>
      </trkpt>
      <trkpt lat="48.34852" lon="2.78186">
        <ele>79.599998474121</ele>
        <time>2022-02-10T15:39:19Z</time>
      </trkpt>
      <trkpt lat="48.34849" lon="2.7819">
        <ele>79.199996948242</ele>
        <time>2022-02-10T15:39:24Z</time>
      </trkpt>
      <trkpt lat="48.34844" lon="2.78194">
        <ele>78.800003051758</ele>
        <time>2022-02-10T15:39:29Z</time>
      </trkpt>
      <trkpt lat="48.34843" lon="2.78198">
        <ele>78.800003051758</ele>
        <time>2022-02-10T15:39:34Z</time>
      </trkpt>
      <trkpt lat="48.34843" lon="2.78198">
        <ele>78.599998474121</ele>
        <time>2022-02-10T15:39:39Z</time>
      </trkpt>
      <trkpt lat="48.34842" lon="2.782">
        <ele>78.599998474121</ele>
        <time>2022-02-10T15:39:44Z</time>
      </trkpt>
      <trkpt lat="48.34838" lon="2.78206">
        <ele>78.199996948242</ele>
        <time>2022-02-10T15:39:49Z</time>
      </trkpt>
      <trkpt lat="48.34836" lon="2.78206">
        <ele>78.199996948242</ele>
        <time>2022-02-10T15:39:54Z</time>
      </trkpt>
      <trkpt lat="48.34835" lon="2.78204">
        <ele>78</ele>
        <time>2022-02-10T15:39:59Z</time>
      </trkpt>
      <trkpt lat="48.34832" lon="2.78199">
        <ele>77.800003051758</ele>
        <time>2022-02-10T15:40:04Z</time>
      </trkpt>
      <trkpt lat="48.34831" lon="2.78194">
        <ele>77.800003051758</ele>
        <time>2022-02-10T15:40:09Z</time>
      </trkpt>
      <trkpt lat="48.34831" lon="2.78187">
        <ele>77.599998474121</ele>
        <time>2022-02-10T15:40:14Z</time>
      </trkpt>
      <trkpt lat="48.34829" lon="2.7818">
        <ele>77.599998474121</ele>
        <time>2022-02-10T15:40:19Z</time>
      </trkpt>
      <trkpt lat="48.34826" lon="2.78176">
        <ele>77.400001525879</ele>
        <time>2022-02-10T15:40:24Z</time>
      </trkpt>
      <trkpt lat="48.34825" lon="2.7817">
        <ele>77.400001525879</ele>
        <time>2022-02-10T15:40:29Z</time>
      </trkpt>
      <trkpt lat="48.34822" lon="2.78164">
        <ele>77.199996948242</ele>
        <time>2022-02-10T15:40:34Z</time>
      </trkpt>
      <trkpt lat="48.3482" lon="2.78159">
        <ele>77.199996948242</ele>
        <time>2022-02-10T15:40:39Z</time>
      </trkpt>
      <trkpt lat="48.34818" lon="2.78153">
        <ele>77.199996948242</ele>
        <time>2022-02-10T15:40:44Z</time>
      </trkpt>
      <trkpt lat="48.34818" lon="2.7815">
        <ele>77.199996948242</ele>
        <time>2022-02-10T15:40:49Z</time>
      </trkpt>
      <trkpt lat="48.34814" lon="2.7814">
        <ele>77</ele>
        <time>2022-02-10T15:40:54Z</time>
      </trkpt>
      <trkpt lat="48.3481" lon="2.78133">
        <ele>77</ele>
        <time>2022-02-10T15:40:59Z</time>
      </trkpt>
      <trkpt lat="48.34804" lon="2.78128">
        <ele>77</ele>
        <time>2022-02-10T15:41:04Z</time>
      </trkpt>
      <trkpt lat="48.34802" lon="2.78122">
        <ele>76.800003051758</ele>
        <time>2022-02-10T15:41:09Z</time>
      </trkpt>
      <trkpt lat="48.34797" lon="2.78119">
        <ele>76.800003051758</ele>
        <time>2022-02-10T15:41:14Z</time>
      </trkpt>
      <trkpt lat="48.34794" lon="2.78113">
        <ele>76.599998474121</ele>
        <time>2022-02-10T15:41:19Z</time>
      </trkpt>
      <trkpt lat="48.34791" lon="2.78107">
        <ele>76.599998474121</ele>
        <time>2022-02-10T15:41:24Z</time>
      </trkpt>
      <trkpt lat="48.34791" lon="2.781">
        <ele>76.599998474121</ele>
        <time>2022-02-10T15:41:29Z</time>
      </trkpt>
      <trkpt lat="48.3479" lon="2.78096">
        <ele>76.599998474121</ele>
        <time>2022-02-10T15:41:34Z</time>
      </trkpt>
      <trkpt lat="48.3479" lon="2.78094">
        <ele>76.400001525879</ele>
        <time>2022-02-10T15:41:39Z</time>
      </trkpt>
      <trkpt lat="48.34788" lon="2.78088">
        <ele>76.199996948242</ele>
        <time>2022-02-10T15:41:44Z</time>
      </trkpt>
      <trkpt lat="48.34787" lon="2.78085">
        <ele>76.199996948242</ele>
        <time>2022-02-10T15:41:49Z</time>
      </trkpt>
      <trkpt lat="48.34785" lon="2.78077">
        <ele>76.199996948242</ele>
        <time>2022-02-10T15:41:54Z</time>
      </trkpt>
      <trkpt lat="48.34781" lon="2.78068">
        <ele>76</ele>
        <time>2022-02-10T15:41:59Z</time>
      </trkpt>
      <trkpt lat="48.34777" lon="2.7806">
        <ele>75.800003051758</ele>
        <time>2022-02-10T15:42:04Z</time>
      </trkpt>
      <trkpt lat="48.34772" lon="2.78051">
        <ele>75.599998474121</ele>
        <time>2022-02-10T15:42:09Z</time>
      </trkpt>
      <trkpt lat="48.34765" lon="2.78047">
        <ele>75.599998474121</ele>
        <time>2022-02-10T15:42:14Z</time>
      </trkpt>
      <trkpt lat="48.34762" lon="2.78043">
        <ele>75.599998474121</ele>
        <time>2022-02-10T15:42:19Z</time>
      </trkpt>
      <trkpt lat="48.34761" lon="2.78035">
        <ele>75.599998474121</ele>
        <time>2022-02-10T15:42:24Z</time>
      </trkpt>
      <trkpt lat="48.34757" lon="2.78031">
        <ele>75.400001525879</ele>
        <time>2022-02-10T15:42:29Z</time>
      </trkpt>
      <trkpt lat="48.34753" lon="2.78026">
        <ele>75.400001525879</ele>
        <time>2022-02-10T15:42:34Z</time>
      </trkpt>
      <trkpt lat="48.34749" lon="2.7802">
        <ele>75.199996948242</ele>
        <time>2022-02-10T15:42:39Z</time>
      </trkpt>
      <trkpt lat="48.34746" lon="2.78013">
        <ele>75.199996948242</ele>
        <time>2022-02-10T15:42:44Z</time>
      </trkpt>
      <trkpt lat="48.34743" lon="2.78007">
        <ele>75</ele>
        <time>2022-02-10T15:42:49Z</time>
      </trkpt>
      <trkpt lat="48.34739" lon="2.78002">
        <ele>75</ele>
        <time>2022-02-10T15:42:54Z</time>
      </trkpt>
      <trkpt lat="48.34738" lon="2.77995">
        <ele>74.800003051758</ele>
        <time>2022-02-10T15:42:59Z</time>
      </trkpt>
      <trkpt lat="48.34736" lon="2.77989">
        <ele>74.800003051758</ele>
        <time>2022-02-10T15:43:04Z</time>
      </trkpt>
      <trkpt lat="48.34734" lon="2.77982">
        <ele>75</ele>
        <time>2022-02-10T15:43:09Z</time>
      </trkpt>
      <trkpt lat="48.3473" lon="2.77976">
        <ele>75</ele>
        <time>2022-02-10T15:43:14Z</time>
      </trkpt>
      <trkpt lat="48.34724" lon="2.77971">
        <ele>75</ele>
        <time>2022-02-10T15:43:19Z</time>
      </trkpt>
      <trkpt lat="48.34719" lon="2.77965">
        <ele>75</ele>
        <time>2022-02-10T15:43:24Z</time>
      </trkpt>
      <trkpt lat="48.34713" lon="2.77959">
        <ele>75</ele>
        <time>2022-02-10T15:43:29Z</time>
      </trkpt>
      <trkpt lat="48.3471" lon="2.77952">
        <ele>75</ele>
        <time>2022-02-10T15:43:34Z</time>
      </trkpt>
      <trkpt lat="48.34707" lon="2.77946">
        <ele>75</ele>
        <time>2022-02-10T15:43:39Z</time>
      </trkpt>
      <trkpt lat="48.34704" lon="2.7794">
        <ele>75</ele>
        <time>2022-02-10T15:43:44Z</time>
      </trkpt>
      <trkpt lat="48.34704" lon="2.77932">
        <ele>74.800003051758</ele>
        <time>2022-02-10T15:43:49Z</time>
      </trkpt>
      <trkpt lat="48.34702" lon="2.77926">
        <ele>74.800003051758</ele>
        <time>2022-02-10T15:43:54Z</time>
      </trkpt>
      <trkpt lat="48.34699" lon="2.77919">
        <ele>74.800003051758</ele>
        <time>2022-02-10T15:43:59Z</time>
      </trkpt>
      <trkpt lat="48.34696" lon="2.77914">
        <ele>74.800003051758</ele>
        <time>2022-02-10T15:44:04Z</time>
      </trkpt>
      <trkpt lat="48.34692" lon="2.77909">
        <ele>74.800003051758</ele>
        <time>2022-02-10T15:44:09Z</time>
      </trkpt>
      <trkpt lat="48.3469" lon="2.779">
        <ele>74.800003051758</ele>
        <time>2022-02-10T15:44:14Z</time>
      </trkpt>
      <trkpt lat="48.34688" lon="2.77897">
        <ele>74.599998474121</ele>
        <time>2022-02-10T15:44:19Z</time>
      </trkpt>
      <trkpt lat="48.34685" lon="2.77892">
        <ele>74.400001525879</ele>
        <time>2022-02-10T15:44:24Z</time>
      </trkpt>
      <trkpt lat="48.34681" lon="2.77886">
        <ele>74.400001525879</ele>
        <time>2022-02-10T15:44:29Z</time>
      </trkpt>
      <trkpt lat="48.34679" lon="2.7788">
        <ele>74.400001525879</ele>
        <time>2022-02-10T15:44:34Z</time>
      </trkpt>
      <trkpt lat="48.34675" lon="2.77876">
        <ele>74.400001525879</ele>
        <time>2022-02-10T15:44:39Z</time>
      </trkpt>
      <trkpt lat="48.34673" lon="2.77869">
        <ele>74.199996948242</ele>
        <time>2022-02-10T15:44:44Z</time>
      </trkpt>
      <trkpt lat="48.34669" lon="2.77863">
        <ele>74.199996948242</ele>
        <time>2022-02-10T15:44:49Z</time>
      </trkpt>
      <trkpt lat="48.34665" lon="2.7786">
        <ele>74.199996948242</ele>
        <time>2022-02-10T15:44:54Z</time>
      </trkpt>
      <trkpt lat="48.34663" lon="2.77854">
        <ele>74</ele>
        <time>2022-02-10T15:44:59Z</time>
      </trkpt>
      <trkpt lat="48.34661" lon="2.77849">
        <ele>73.800003051758</ele>
        <time>2022-02-10T15:45:04Z</time>
      </trkpt>
      <trkpt lat="48.34656" lon="2.77843">
        <ele>73.599998474121</ele>
        <time>2022-02-10T15:45:09Z</time>
      </trkpt>
      <trkpt lat="48.34652" lon="2.77836">
        <ele>73.599998474121</ele>
        <time>2022-02-10T15:45:14Z</time>
      </trkpt>
      <trkpt lat="48.34649" lon="2.77831">
        <ele>73.599998474121</ele>
        <time>2022-02-10T15:45:19Z</time>
      </trkpt>
      <trkpt lat="48.34646" lon="2.77826">
        <ele>73.400001525879</ele>
        <time>2022-02-10T15:45:24Z</time>
      </trkpt>
      <trkpt lat="48.3464" lon="2.77822">
        <ele>73.199996948242</ele>
        <time>2022-02-10T15:45:29Z</time>
      </trkpt>
      <trkpt lat="48.34635" lon="2.77818">
        <ele>73</ele>
        <time>2022-02-10T15:45:34Z</time>
      </trkpt>
      <trkpt lat="48.34633" lon="2.77813">
        <ele>72.800003051758</ele>
        <time>2022-02-10T15:45:39Z</time>
      </trkpt>
      <trkpt lat="48.34631" lon="2.77809">
        <ele>72.400001525879</ele>
        <time>2022-02-10T15:45:44Z</time>
      </trkpt>
      <trkpt lat="48.34628" lon="2.77804">
        <ele>71.800003051758</ele>
        <time>2022-02-10T15:45:49Z</time>
      </trkpt>
      <trkpt lat="48.34625" lon="2.77799">
        <ele>71.199996948242</ele>
        <time>2022-02-10T15:45:54Z</time>
      </trkpt>
      <trkpt lat="48.34621" lon="2.77794">
        <ele>70.800003051758</ele>
        <time>2022-02-10T15:45:59Z</time>
      </trkpt>
      <trkpt lat="48.34615" lon="2.77792">
        <ele>70.199996948242</ele>
        <time>2022-02-10T15:46:04Z</time>
      </trkpt>
      <trkpt lat="48.34611" lon="2.77787">
        <ele>69.800003051758</ele>
        <time>2022-02-10T15:46:09Z</time>
      </trkpt>
      <trkpt lat="48.34608" lon="2.77782">
        <ele>69.599998474121</ele>
        <time>2022-02-10T15:46:14Z</time>
      </trkpt>
      <trkpt lat="48.34605" lon="2.77779">
        <ele>68.800003051758</ele>
        <time>2022-02-10T15:46:19Z</time>
      </trkpt>
      <trkpt lat="48.34604" lon="2.77775">
        <ele>68.400001525879</ele>
        <time>2022-02-10T15:46:24Z</time>
      </trkpt>
      <trkpt lat="48.34602" lon="2.7777">
        <ele>67.800003051758</ele>
        <time>2022-02-10T15:46:29Z</time>
      </trkpt>
      <trkpt lat="48.34598" lon="2.77767">
        <ele>67.199996948242</ele>
        <time>2022-02-10T15:46:34Z</time>
      </trkpt>
      <trkpt lat="48.34594" lon="2.77761">
        <ele>66.800003051758</ele>
        <time>2022-02-10T15:46:39Z</time>
      </trkpt>
      <trkpt lat="48.34587" lon="2.77755">
        <ele>66.599998474121</ele>
        <time>2022-02-10T15:46:44Z</time>
      </trkpt>
      <trkpt lat="48.34585" lon="2.77749">
        <ele>66.400001525879</ele>
        <time>2022-02-10T15:46:49Z</time>
      </trkpt>
      <trkpt lat="48.3458" lon="2.77743">
        <ele>66</ele>
        <time>2022-02-10T15:46:54Z</time>
      </trkpt>
      <trkpt lat="48.34579" lon="2.77737">
        <ele>65.800003051758</ele>
        <time>2022-02-10T15:46:59Z</time>
      </trkpt>
      <trkpt lat="48.34578" lon="2.77731">
        <ele>65.599998474121</ele>
        <time>2022-02-10T15:47:04Z</time>
      </trkpt>
      <trkpt lat="48.34578" lon="2.77724">
        <ele>65.599998474121</ele>
        <time>2022-02-10T15:47:09Z</time>
      </trkpt>
      <trkpt lat="48.34572" lon="2.77718">
        <ele>65.400001525879</ele>
        <time>2022-02-10T15:47:14Z</time>
      </trkpt>
      <trkpt lat="48.34565" lon="2.77713">
        <ele>65.199996948242</ele>
        <time>2022-02-10T15:47:19Z</time>
      </trkpt>
      <trkpt lat="48.34563" lon="2.77706">
        <ele>65</ele>
        <time>2022-02-10T15:47:24Z</time>
      </trkpt>
      <trkpt lat="48.34564" lon="2.77701">
        <ele>65</ele>
        <time>2022-02-10T15:47:29Z</time>
      </trkpt>
      <trkpt lat="48.34557" lon="2.77696">
        <ele>65</ele>
        <time>2022-02-10T15:47:34Z</time>
      </trkpt>
      <trkpt lat="48.34554" lon="2.77692">
        <ele>65</ele>
        <time>2022-02-10T15:47:39Z</time>
      </trkpt>
      <trkpt lat="48.34551" lon="2.77687">
        <ele>64.800003051758</ele>
        <time>2022-02-10T15:47:44Z</time>
      </trkpt>
      <trkpt lat="48.34546" lon="2.77683">
        <ele>64.599998474121</ele>
        <time>2022-02-10T15:47:49Z</time>
      </trkpt>
      <trkpt lat="48.34543" lon="2.77679">
        <ele>64.400001525879</ele>
        <time>2022-02-10T15:47:54Z</time>
      </trkpt>
      <trkpt lat="48.34541" lon="2.77673">
        <ele>64.400001525879</ele>
        <time>2022-02-10T15:47:59Z</time>
      </trkpt>
      <trkpt lat="48.34539" lon="2.77668">
        <ele>64.400001525879</ele>
        <time>2022-02-10T15:48:04Z</time>
      </trkpt>
      <trkpt lat="48.34535" lon="2.7766">
        <ele>64.199996948242</ele>
        <time>2022-02-10T15:48:09Z</time>
      </trkpt>
      <trkpt lat="48.34534" lon="2.77654">
        <ele>64.199996948242</ele>
        <time>2022-02-10T15:48:14Z</time>
      </trkpt>
      <trkpt lat="48.34531" lon="2.77649">
        <ele>64</ele>
        <time>2022-02-10T15:48:19Z</time>
      </trkpt>
      <trkpt lat="48.34526" lon="2.77644">
        <ele>64</ele>
        <time>2022-02-10T15:48:24Z</time>
      </trkpt>
      <trkpt lat="48.34521" lon="2.7764">
        <ele>64</ele>
        <time>2022-02-10T15:48:29Z</time>
      </trkpt>
      <trkpt lat="48.3452" lon="2.77633">
        <ele>63.799999237061</ele>
        <time>2022-02-10T15:48:34Z</time>
      </trkpt>
      <trkpt lat="48.34516" lon="2.77628">
        <ele>63.799999237061</ele>
        <time>2022-02-10T15:48:39Z</time>
      </trkpt>
      <trkpt lat="48.34512" lon="2.77623">
        <ele>63.799999237061</ele>
        <time>2022-02-10T15:48:44Z</time>
      </trkpt>
      <trkpt lat="48.34509" lon="2.77618">
        <ele>63.799999237061</ele>
        <time>2022-02-10T15:48:49Z</time>
      </trkpt>
      <trkpt lat="48.34505" lon="2.77613">
        <ele>63.599998474121</ele>
        <time>2022-02-10T15:48:54Z</time>
      </trkpt>
      <trkpt lat="48.345" lon="2.77608">
        <ele>63.599998474121</ele>
        <time>2022-02-10T15:48:59Z</time>
      </trkpt>
      <trkpt lat="48.34496" lon="2.77604">
        <ele>63.599998474121</ele>
        <time>2022-02-10T15:49:04Z</time>
      </trkpt>
      <trkpt lat="48.34492" lon="2.77598">
        <ele>63.599998474121</ele>
        <time>2022-02-10T15:49:09Z</time>
      </trkpt>
      <trkpt lat="48.34486" lon="2.77593">
        <ele>63.400001525879</ele>
        <time>2022-02-10T15:49:14Z</time>
      </trkpt>
      <trkpt lat="48.34482" lon="2.77589">
        <ele>63.400001525879</ele>
        <time>2022-02-10T15:49:19Z</time>
      </trkpt>
      <trkpt lat="48.3448" lon="2.77584">
        <ele>63.400001525879</ele>
        <time>2022-02-10T15:49:24Z</time>
      </trkpt>
      <trkpt lat="48.34476" lon="2.77579">
        <ele>63.200000762939</ele>
        <time>2022-02-10T15:49:29Z</time>
      </trkpt>
      <trkpt lat="48.34475" lon="2.77577">
        <ele>63.200000762939</ele>
        <time>2022-02-10T15:49:34Z</time>
      </trkpt>
      <trkpt lat="48.34475" lon="2.77577">
        <ele>63.400001525879</ele>
        <time>2022-02-10T15:49:39Z</time>
      </trkpt>
      <trkpt lat="48.34475" lon="2.77575">
        <ele>63.400001525879</ele>
        <time>2022-02-10T15:49:44Z</time>
      </trkpt>
      <trkpt lat="48.34474" lon="2.77572">
        <ele>63.200000762939</ele>
        <time>2022-02-10T15:49:49Z</time>
      </trkpt>
      <trkpt lat="48.34473" lon="2.77569">
        <ele>63.200000762939</ele>
        <time>2022-02-10T15:49:54Z</time>
      </trkpt>
      <trkpt lat="48.34467" lon="2.77574">
        <ele>63.200000762939</ele>
        <time>2022-02-10T15:49:59Z</time>
      </trkpt>
      <trkpt lat="48.34457" lon="2.77582">
        <ele>63.200000762939</ele>
        <time>2022-02-10T15:50:04Z</time>
      </trkpt>
      <trkpt lat="48.34453" lon="2.7759">
        <ele>63</ele>
        <time>2022-02-10T15:50:09Z</time>
      </trkpt>
      <trkpt lat="48.3445" lon="2.77595">
        <ele>63</ele>
        <time>2022-02-10T15:50:14Z</time>
      </trkpt>
      <trkpt lat="48.34448" lon="2.77599">
        <ele>62.799999237061</ele>
        <time>2022-02-10T15:50:19Z</time>
      </trkpt>
      <trkpt lat="48.34446" lon="2.77603">
        <ele>63</ele>
        <time>2022-02-10T15:50:24Z</time>
      </trkpt>
      <trkpt lat="48.34444" lon="2.77604">
        <ele>62.799999237061</ele>
        <time>2022-02-10T15:50:29Z</time>
      </trkpt>
      <trkpt lat="48.34442" lon="2.77603">
        <ele>63</ele>
        <time>2022-02-10T15:50:34Z</time>
      </trkpt>
      <trkpt lat="48.34439" lon="2.77602">
        <ele>63</ele>
        <time>2022-02-10T15:50:39Z</time>
      </trkpt>
      <trkpt lat="48.34439" lon="2.77601">
        <ele>63</ele>
        <time>2022-02-10T15:50:44Z</time>
      </trkpt>
      <trkpt lat="48.3444" lon="2.776">
        <ele>63</ele>
        <time>2022-02-10T15:50:49Z</time>
      </trkpt>
      <trkpt lat="48.3444" lon="2.776">
        <ele>63</ele>
        <time>2022-02-10T15:50:54Z</time>
      </trkpt>
      <trkpt lat="48.34442" lon="2.776">
        <ele>63</ele>
        <time>2022-02-10T15:50:59Z</time>
      </trkpt>
      <trkpt lat="48.34443" lon="2.776">
        <ele>63</ele>
        <time>2022-02-10T15:51:04Z</time>
      </trkpt>
      <trkpt lat="48.34442" lon="2.77601">
        <ele>63</ele>
        <time>2022-02-10T15:51:09Z</time>
      </trkpt>
      <trkpt lat="48.3444" lon="2.77602">
        <ele>63</ele>
        <time>2022-02-10T15:51:14Z</time>
      </trkpt>
      <trkpt lat="48.34438" lon="2.77602">
        <ele>63</ele>
        <time>2022-02-10T15:51:19Z</time>
      </trkpt>
      <trkpt lat="48.34438" lon="2.77602">
        <ele>63</ele>
        <time>2022-02-10T15:51:23Z</time>
      </trkpt>
    </trkseg>
  </trk>
</gpx>